<?xml version='1.0' encoding='UTF-8'?><gpx version="1.1" creator="JPX - https://github.com/jenetics/jpx" xmlns="http://www.topografix.com/GPX/1/1"><trk><trkseg><trkpt lat="45.6319108" lon="10.6013615"><ele>62.00000000000001</ele><time>2026-03-28T15:15:51.293Z</time></trkpt><trkpt lat="45.6318226" lon="10.6012667"><ele>62.0</ele><time>2026-03-28T15:15:53.355Z</time></trkpt><trkpt lat="45.631775" lon="10.6012019"><ele>62.0</ele><time>2026-03-28T15:16:00.384Z</time></trkpt><trkpt lat="45.6318487" lon="10.6011535"><ele>62.0</ele><time>2026-03-28T15:16:07.388Z</time></trkpt><trkpt lat="45.631917" lon="10.60115"><ele>62.00000000000001</ele><time>2026-03-28T15:16:09.417Z</time></trkpt><trkpt lat="45.6319831" lon="10.6011504"><ele>62.0</ele><time>2026-03-28T15:16:11.393Z</time></trkpt><trkpt lat="45.6320496" lon="10.6011405"><ele>62.142857142857146</ele><time>2026-03-28T15:16:13.402Z</time></trkpt><trkpt lat="45.6321164" lon="10.6011231"><ele>62.28571428571429</ele><time>2026-03-28T15:16:15.406Z</time></trkpt><trkpt lat="45.6321965" lon="10.6011161"><ele>62.42857142857143</ele><time>2026-03-28T15:16:18.403Z</time></trkpt><trkpt lat="45.6322673" lon="10.6010957"><ele>62.57142857142857</ele><time>2026-03-28T15:16:21.407Z</time></trkpt><trkpt lat="45.6323259" lon="10.6010577"><ele>62.714285714285715</ele><time>2026-03-28T15:16:23.2Z</time></trkpt><trkpt lat="45.6323899" lon="10.6010173"><ele>62.85714285714286</ele><time>2026-03-28T15:16:25.9Z</time></trkpt><trkpt lat="45.6324564" lon="10.6010122"><ele>63.0</ele><time>2026-03-28T15:16:35.608Z</time></trkpt><trkpt lat="45.632408" lon="10.6010845"><ele>63.0</ele><time>2026-03-28T15:17:16.599Z</time></trkpt><trkpt lat="45.632452" lon="10.601019"><ele>63.0</ele><time>2026-03-28T15:18:06.601Z</time></trkpt><trkpt lat="45.632495" lon="10.6009313"><ele>63.0</ele><time>2026-03-28T15:18:23.593Z</time></trkpt><trkpt lat="45.6325548" lon="10.6008703"><ele>63.0</ele><time>2026-03-28T15:18:36.598Z</time></trkpt><trkpt lat="45.6326504" lon="10.6008395"><ele>63.0</ele><time>2026-03-28T15:18:39.595Z</time></trkpt><trkpt lat="45.6327145" lon="10.6008426"><ele>63.0</ele><time>2026-03-28T15:18:44.588Z</time></trkpt><trkpt lat="45.6327913" lon="10.6008417"><ele>63.714285714285715</ele><time>2026-03-28T15:18:50.594Z</time></trkpt><trkpt lat="45.632864" lon="10.6008454"><ele>64.42857142857143</ele><time>2026-03-28T15:18:54.604Z</time></trkpt><trkpt lat="45.6329229" lon="10.6008809"><ele>65.14285714285714</ele><time>2026-03-28T15:18:57.6Z</time></trkpt><trkpt lat="45.6329854" lon="10.6009127"><ele>65.85714285714286</ele><time>2026-03-28T15:19:00.601Z</time></trkpt><trkpt lat="45.6330483" lon="10.6009909"><ele>66.57142857142857</ele><time>2026-03-28T15:19:04.589Z</time></trkpt><trkpt lat="45.6330495" lon="10.6011061"><ele>67.28571428571428</ele><time>2026-03-28T15:19:06.59Z</time></trkpt><trkpt lat="45.6330236" lon="10.6012077"><ele>68.0</ele><time>2026-03-28T15:19:09.603Z</time></trkpt><trkpt lat="45.6329807" lon="10.601333"><ele>68.0</ele><time>2026-03-28T15:19:12.597Z</time></trkpt><trkpt lat="45.6329348" lon="10.6014356"><ele>68.0</ele><time>2026-03-28T15:19:14.594Z</time></trkpt><trkpt lat="45.6328945" lon="10.6015579"><ele>68.0</ele><time>2026-03-28T15:19:16.592Z</time></trkpt><trkpt lat="45.6328743" lon="10.6016695"><ele>68.0</ele><time>2026-03-28T15:19:18.585Z</time></trkpt><trkpt lat="45.6328427" lon="10.6017545"><ele>68.0</ele><time>2026-03-28T15:19:20.585Z</time></trkpt><trkpt lat="45.6328029" lon="10.6018728"><ele>68.0</ele><time>2026-03-28T15:19:22.584Z</time></trkpt><trkpt lat="45.6327658" lon="10.6020253"><ele>68.0</ele><time>2026-03-28T15:19:24.58Z</time></trkpt><trkpt lat="45.6327355" lon="10.6021423"><ele>68.0</ele><time>2026-03-28T15:19:26.576Z</time></trkpt><trkpt lat="45.632702" lon="10.6022369"><ele>68.0</ele><time>2026-03-28T15:19:28.591Z</time></trkpt><trkpt lat="45.6326711" lon="10.6023436"><ele>68.0</ele><time>2026-03-28T15:19:30.585Z</time></trkpt><trkpt lat="45.6326453" lon="10.6024565"><ele>68.0</ele><time>2026-03-28T15:19:32.592Z</time></trkpt><trkpt lat="45.6326095" lon="10.6025831"><ele>68.0</ele><time>2026-03-28T15:19:34.585Z</time></trkpt><trkpt lat="45.6325586" lon="10.6027073"><ele>68.0</ele><time>2026-03-28T15:19:36.577Z</time></trkpt><trkpt lat="45.6325105" lon="10.6028189"><ele>68.0</ele><time>2026-03-28T15:19:38.589Z</time></trkpt><trkpt lat="45.6324381" lon="10.6029131"><ele>68.0</ele><time>2026-03-28T15:19:40.586Z</time></trkpt><trkpt lat="45.6323909" lon="10.6030829"><ele>68.0</ele><time>2026-03-28T15:19:42.589Z</time></trkpt><trkpt lat="45.6323544" lon="10.6031748"><ele>68.0</ele><time>2026-03-28T15:19:43.586Z</time></trkpt><trkpt lat="45.6323111" lon="10.6033199"><ele>68.2</ele><time>2026-03-28T15:19:45.585Z</time></trkpt><trkpt lat="45.6322756" lon="10.6034493"><ele>68.4</ele><time>2026-03-28T15:19:47.592Z</time></trkpt><trkpt lat="45.6322476" lon="10.6035979"><ele>68.60000000000001</ele><time>2026-03-28T15:19:49.592Z</time></trkpt><trkpt lat="45.6322152" lon="10.6037318"><ele>68.8</ele><time>2026-03-28T15:19:51.585Z</time></trkpt><trkpt lat="45.6321919" lon="10.6038407"><ele>69.0</ele><time>2026-03-28T15:19:53.607Z</time></trkpt><trkpt lat="45.6322288" lon="10.6039394"><ele>69.0</ele><time>2026-03-28T15:19:55.59Z</time></trkpt><trkpt lat="45.6323209" lon="10.6040613"><ele>69.0</ele><time>2026-03-28T15:19:57.573Z</time></trkpt><trkpt lat="45.6323829" lon="10.6041209"><ele>69.0</ele><time>2026-03-28T15:19:58.592Z</time></trkpt><trkpt lat="45.6324481" lon="10.6041858"><ele>69.0</ele><time>2026-03-28T15:19:59.588Z</time></trkpt><trkpt lat="45.632521" lon="10.6042403"><ele>69.0</ele><time>2026-03-28T15:20:00.584Z</time></trkpt><trkpt lat="45.6325813" lon="10.604311"><ele>69.0</ele><time>2026-03-28T15:20:01.594Z</time></trkpt><trkpt lat="45.6326323" lon="10.6043877"><ele>69.0</ele><time>2026-03-28T15:20:02.582Z</time></trkpt><trkpt lat="45.6326837" lon="10.6044754"><ele>69.0</ele><time>2026-03-28T15:20:03.591Z</time></trkpt><trkpt lat="45.632732" lon="10.6045557"><ele>69.0</ele><time>2026-03-28T15:20:04.575Z</time></trkpt><trkpt lat="45.6327922" lon="10.6046425"><ele>69.0</ele><time>2026-03-28T15:20:05.585Z</time></trkpt><trkpt lat="45.6328507" lon="10.6047411"><ele>69.0</ele><time>2026-03-28T15:20:06.583Z</time></trkpt><trkpt lat="45.6329107" lon="10.6048385"><ele>69.0</ele><time>2026-03-28T15:20:07.582Z</time></trkpt><trkpt lat="45.632973" lon="10.6049244"><ele>68.83333333333333</ele><time>2026-03-28T15:20:08.581Z</time></trkpt><trkpt lat="45.6330242" lon="10.6049998"><ele>68.66666666666667</ele><time>2026-03-28T15:20:09.581Z</time></trkpt><trkpt lat="45.6331078" lon="10.6051135"><ele>68.5</ele><time>2026-03-28T15:20:11.589Z</time></trkpt><trkpt lat="45.6331589" lon="10.6051799"><ele>68.33333333333334</ele><time>2026-03-28T15:20:12.582Z</time></trkpt><trkpt lat="45.6331996" lon="10.6052521"><ele>68.16666666666667</ele><time>2026-03-28T15:20:13.588Z</time></trkpt><trkpt lat="45.6332469" lon="10.6053246"><ele>68.0</ele><time>2026-03-28T15:20:14.578Z</time></trkpt><trkpt lat="45.6332963" lon="10.6053869"><ele>68.33333333333334</ele><time>2026-03-28T15:20:15.586Z</time></trkpt><trkpt lat="45.6333433" lon="10.6054591"><ele>68.66666666666667</ele><time>2026-03-28T15:20:16.579Z</time></trkpt><trkpt lat="45.6333956" lon="10.6055277"><ele>69.0</ele><time>2026-03-28T15:20:17.579Z</time></trkpt><trkpt lat="45.6334517" lon="10.6056041"><ele>69.33333333333333</ele><time>2026-03-28T15:20:18.595Z</time></trkpt><trkpt lat="45.6335152" lon="10.6056855"><ele>69.66666666666666</ele><time>2026-03-28T15:20:19.581Z</time></trkpt><trkpt lat="45.6335727" lon="10.6057649"><ele>70.0</ele><time>2026-03-28T15:20:20.58Z</time></trkpt><trkpt lat="45.6336302" lon="10.605838"><ele>70.0</ele><time>2026-03-28T15:20:21.592Z</time></trkpt><trkpt lat="45.6336848" lon="10.6059079"><ele>70.0</ele><time>2026-03-28T15:20:22.579Z</time></trkpt><trkpt lat="45.6337426" lon="10.6059682"><ele>70.0</ele><time>2026-03-28T15:20:23.58Z</time></trkpt><trkpt lat="45.6337998" lon="10.6060323"><ele>70.0</ele><time>2026-03-28T15:20:24.583Z</time></trkpt><trkpt lat="45.633845" lon="10.606098"><ele>70.0</ele><time>2026-03-28T15:20:25.594Z</time></trkpt><trkpt lat="45.6338921" lon="10.6061609"><ele>70.0</ele><time>2026-03-28T15:20:26.59Z</time></trkpt><trkpt lat="45.6339786" lon="10.6062465"><ele>70.0</ele><time>2026-03-28T15:20:28.587Z</time></trkpt><trkpt lat="45.6340605" lon="10.6063344"><ele>70.0</ele><time>2026-03-28T15:20:30.586Z</time></trkpt><trkpt lat="45.6341238" lon="10.6064199"><ele>70.0</ele><time>2026-03-28T15:20:32.589Z</time></trkpt><trkpt lat="45.6342041" lon="10.6065153"><ele>70.0</ele><time>2026-03-28T15:20:34.582Z</time></trkpt><trkpt lat="45.6343229" lon="10.6065999"><ele>70.0</ele><time>2026-03-28T15:20:36.581Z</time></trkpt><trkpt lat="45.6343981" lon="10.6066528"><ele>70.16666666666666</ele><time>2026-03-28T15:20:37.585Z</time></trkpt><trkpt lat="45.6344721" lon="10.6067131"><ele>70.33333333333333</ele><time>2026-03-28T15:20:38.585Z</time></trkpt><trkpt lat="45.6345399" lon="10.6067737"><ele>70.5</ele><time>2026-03-28T15:20:39.592Z</time></trkpt><trkpt lat="45.6346156" lon="10.6068348"><ele>70.66666666666667</ele><time>2026-03-28T15:20:40.594Z</time></trkpt><trkpt lat="45.6346781" lon="10.6069011"><ele>70.83333333333334</ele><time>2026-03-28T15:20:41.588Z</time></trkpt><trkpt lat="45.6347348" lon="10.6069808"><ele>71.0</ele><time>2026-03-28T15:20:42.602Z</time></trkpt><trkpt lat="45.6347798" lon="10.6070474"><ele>71.0</ele><time>2026-03-28T15:20:43.586Z</time></trkpt><trkpt lat="45.6348547" lon="10.6071666"><ele>71.0</ele><time>2026-03-28T15:20:45.597Z</time></trkpt><trkpt lat="45.6349302" lon="10.6072719"><ele>71.0</ele><time>2026-03-28T15:20:47.584Z</time></trkpt><trkpt lat="45.6349836" lon="10.607355"><ele>71.0</ele><time>2026-03-28T15:20:49.614Z</time></trkpt><trkpt lat="45.6350466" lon="10.6074385"><ele>71.0</ele><time>2026-03-28T15:20:52.608Z</time></trkpt><trkpt lat="45.6350792" lon="10.6075189"><ele>71.0</ele><time>2026-03-28T15:20:56.605Z</time></trkpt><trkpt lat="45.6351393" lon="10.6075577"><ele>71.0</ele><time>2026-03-28T15:21:06.586Z</time></trkpt><trkpt lat="45.6352203" lon="10.6075013"><ele>71.0</ele><time>2026-03-28T15:21:08.578Z</time></trkpt><trkpt lat="45.6352761" lon="10.60744"><ele>71.0</ele><time>2026-03-28T15:21:09.587Z</time></trkpt><trkpt lat="45.63534" lon="10.6073535"><ele>71.0</ele><time>2026-03-28T15:21:10.576Z</time></trkpt><trkpt lat="45.6353999" lon="10.6072763"><ele>71.0</ele><time>2026-03-28T15:21:11.576Z</time></trkpt><trkpt lat="45.6354516" lon="10.6071993"><ele>71.0</ele><time>2026-03-28T15:21:12.59Z</time></trkpt><trkpt lat="45.635503" lon="10.6071394"><ele>71.2</ele><time>2026-03-28T15:21:13.574Z</time></trkpt><trkpt lat="45.6355534" lon="10.6070652"><ele>71.39999999999999</ele><time>2026-03-28T15:21:14.582Z</time></trkpt><trkpt lat="45.6356005" lon="10.606994"><ele>71.6</ele><time>2026-03-28T15:21:15.586Z</time></trkpt><trkpt lat="45.6356478" lon="10.6069103"><ele>71.8</ele><time>2026-03-28T15:21:16.572Z</time></trkpt><trkpt lat="45.6357162" lon="10.6068004"><ele>72.0</ele><time>2026-03-28T15:21:17.594Z</time></trkpt><trkpt lat="45.6358066" lon="10.6066597"><ele>72.0</ele><time>2026-03-28T15:21:18.58Z</time></trkpt><trkpt lat="45.6359152" lon="10.6065098"><ele>72.0</ele><time>2026-03-28T15:21:19.585Z</time></trkpt><trkpt lat="45.6360398" lon="10.6063551"><ele>72.0</ele><time>2026-03-28T15:21:20.597Z</time></trkpt><trkpt lat="45.6361162" lon="10.6062323"><ele>72.0</ele><time>2026-03-28T15:21:21.582Z</time></trkpt><trkpt lat="45.6361812" lon="10.6061282"><ele>72.33333333333333</ele><time>2026-03-28T15:21:22.611Z</time></trkpt><trkpt lat="45.6362363" lon="10.6060481"><ele>72.66666666666667</ele><time>2026-03-28T15:21:24.674Z</time></trkpt><trkpt lat="45.6362912" lon="10.6059688"><ele>73.0</ele><time>2026-03-28T15:21:25.672Z</time></trkpt><trkpt lat="45.6363378" lon="10.605905"><ele>73.33333333333334</ele><time>2026-03-28T15:21:26.68Z</time></trkpt><trkpt lat="45.6364148" lon="10.605807"><ele>73.66666666666667</ele><time>2026-03-28T15:21:28.665Z</time></trkpt><trkpt lat="45.6364812" lon="10.6057192"><ele>74.0</ele><time>2026-03-28T15:21:30.662Z</time></trkpt><trkpt lat="45.6365368" lon="10.6056424"><ele>74.0</ele><time>2026-03-28T15:21:32.683Z</time></trkpt><trkpt lat="45.6365846" lon="10.6055764"><ele>74.0</ele><time>2026-03-28T15:21:35.679Z</time></trkpt><trkpt lat="45.6366301" lon="10.6055032"><ele>74.0</ele><time>2026-03-28T15:21:42.692Z</time></trkpt><trkpt lat="45.6366718" lon="10.6054182"><ele>74.0</ele><time>2026-03-28T15:21:48.676Z</time></trkpt><trkpt lat="45.6367459" lon="10.6053072"><ele>74.0</ele><time>2026-03-28T15:21:50.683Z</time></trkpt><trkpt lat="45.6368064" lon="10.605213"><ele>74.0</ele><time>2026-03-28T15:21:52.692Z</time></trkpt><trkpt lat="45.6368402" lon="10.6051231"><ele>73.83333333333334</ele><time>2026-03-28T15:21:55.681Z</time></trkpt><trkpt lat="45.6367885" lon="10.6050474"><ele>73.66666666666667</ele><time>2026-03-28T15:22:00.677Z</time></trkpt><trkpt lat="45.6367313" lon="10.6049649"><ele>73.5</ele><time>2026-03-28T15:22:02.69Z</time></trkpt><trkpt lat="45.636679" lon="10.6048686"><ele>73.33333333333333</ele><time>2026-03-28T15:22:05.687Z</time></trkpt><trkpt lat="45.6366337" lon="10.6047738"><ele>73.16666666666666</ele><time>2026-03-28T15:22:08.681Z</time></trkpt><trkpt lat="45.6365827" lon="10.6046746"><ele>73.0</ele><time>2026-03-28T15:22:11.696Z</time></trkpt><trkpt lat="45.6365286" lon="10.6045834"><ele>73.0</ele><time>2026-03-28T15:22:15.685Z</time></trkpt><trkpt lat="45.6364902" lon="10.6045043"><ele>73.0</ele><time>2026-03-28T15:22:17.688Z</time></trkpt><trkpt lat="45.6364469" lon="10.604416"><ele>73.0</ele><time>2026-03-28T15:22:19.693Z</time></trkpt><trkpt lat="45.6364047" lon="10.6043437"><ele>73.0</ele><time>2026-03-28T15:22:21.686Z</time></trkpt><trkpt lat="45.6363644" lon="10.6042728"><ele>73.0</ele><time>2026-03-28T15:22:23.687Z</time></trkpt><trkpt lat="45.6363135" lon="10.6041867"><ele>73.0</ele><time>2026-03-28T15:22:25.69Z</time></trkpt><trkpt lat="45.6362648" lon="10.6040956"><ele>73.0</ele><time>2026-03-28T15:22:27.69Z</time></trkpt><trkpt lat="45.6362173" lon="10.6040041"><ele>72.83333333333333</ele><time>2026-03-28T15:22:29.69Z</time></trkpt><trkpt lat="45.6361471" lon="10.6038854"><ele>72.66666666666666</ele><time>2026-03-28T15:22:31.679Z</time></trkpt><trkpt lat="45.6360764" lon="10.6037658"><ele>72.5</ele><time>2026-03-28T15:22:33.673Z</time></trkpt><trkpt lat="45.6360371" lon="10.6036733"><ele>72.33333333333333</ele><time>2026-03-28T15:22:35.686Z</time></trkpt><trkpt lat="45.6360078" lon="10.6035784"><ele>72.16666666666667</ele><time>2026-03-28T15:22:37.69Z</time></trkpt><trkpt lat="45.6359657" lon="10.6035008"><ele>72.0</ele><time>2026-03-28T15:22:43.664Z</time></trkpt><trkpt lat="45.635926" lon="10.6034304"><ele>71.66666666666667</ele><time>2026-03-28T15:23:14.692Z</time></trkpt><trkpt lat="45.6358777" lon="10.6033365"><ele>71.33333333333333</ele><time>2026-03-28T15:23:15.674Z</time></trkpt><trkpt lat="45.635822" lon="10.6032372"><ele>71.0</ele><time>2026-03-28T15:23:16.673Z</time></trkpt><trkpt lat="45.6357769" lon="10.6031526"><ele>70.66666666666666</ele><time>2026-03-28T15:23:17.671Z</time></trkpt><trkpt lat="45.6357165" lon="10.603038"><ele>70.33333333333333</ele><time>2026-03-28T15:23:18.682Z</time></trkpt><trkpt lat="45.6356717" lon="10.6029527"><ele>70.0</ele><time>2026-03-28T15:23:19.679Z</time></trkpt><trkpt lat="45.6356343" lon="10.6028799"><ele>70.16666666666666</ele><time>2026-03-28T15:23:20.684Z</time></trkpt><trkpt lat="45.6355617" lon="10.6027364"><ele>70.33333333333333</ele><time>2026-03-28T15:23:22.67Z</time></trkpt><trkpt lat="45.6355181" lon="10.6026523"><ele>70.5</ele><time>2026-03-28T15:23:23.694Z</time></trkpt><trkpt lat="45.6354721" lon="10.602561"><ele>70.66666666666667</ele><time>2026-03-28T15:23:24.687Z</time></trkpt><trkpt lat="45.6354259" lon="10.6024709"><ele>70.83333333333334</ele><time>2026-03-28T15:23:25.675Z</time></trkpt><trkpt lat="45.6353866" lon="10.6023922"><ele>71.0</ele><time>2026-03-28T15:23:26.667Z</time></trkpt><trkpt lat="45.6353501" lon="10.6023102"><ele>71.0</ele><time>2026-03-28T15:23:27.662Z</time></trkpt><trkpt lat="45.6353125" lon="10.6022253"><ele>71.0</ele><time>2026-03-28T15:23:28.668Z</time></trkpt><trkpt lat="45.6352699" lon="10.6021399"><ele>71.0</ele><time>2026-03-28T15:23:29.666Z</time></trkpt><trkpt lat="45.6352247" lon="10.6020564"><ele>71.0</ele><time>2026-03-28T15:23:30.669Z</time></trkpt><trkpt lat="45.6351734" lon="10.601962"><ele>71.0</ele><time>2026-03-28T15:23:31.671Z</time></trkpt><trkpt lat="45.6351139" lon="10.6018506"><ele>71.0</ele><time>2026-03-28T15:23:32.666Z</time></trkpt><trkpt lat="45.6350622" lon="10.6017484"><ele>70.83333333333334</ele><time>2026-03-28T15:23:33.678Z</time></trkpt><trkpt lat="45.6350127" lon="10.6016434"><ele>70.66666666666667</ele><time>2026-03-28T15:23:34.664Z</time></trkpt><trkpt lat="45.6349746" lon="10.6015469"><ele>70.5</ele><time>2026-03-28T15:23:35.66Z</time></trkpt><trkpt lat="45.6349476" lon="10.6014618"><ele>70.33333333333333</ele><time>2026-03-28T15:23:36.635Z</time></trkpt><trkpt lat="45.6349207" lon="10.601307"><ele>70.16666666666666</ele><time>2026-03-28T15:23:38.638Z</time></trkpt><trkpt lat="45.6349005" lon="10.6011638"><ele>70.0</ele><time>2026-03-28T15:23:40.66Z</time></trkpt><trkpt lat="45.634894" lon="10.6010424"><ele>70.0</ele><time>2026-03-28T15:23:42.676Z</time></trkpt><trkpt lat="45.634906" lon="10.6009016"><ele>70.0</ele><time>2026-03-28T15:23:44.659Z</time></trkpt><trkpt lat="45.6349214" lon="10.6008055"><ele>70.0</ele><time>2026-03-28T15:23:45.635Z</time></trkpt><trkpt lat="45.6349477" lon="10.6007123"><ele>70.0</ele><time>2026-03-28T15:23:46.637Z</time></trkpt><trkpt lat="45.6350045" lon="10.6005601"><ele>70.0</ele><time>2026-03-28T15:23:48.638Z</time></trkpt><trkpt lat="45.6350319" lon="10.6004767"><ele>70.0</ele><time>2026-03-28T15:23:49.659Z</time></trkpt><trkpt lat="45.6350585" lon="10.6003918"><ele>70.6</ele><time>2026-03-28T15:23:50.654Z</time></trkpt><trkpt lat="45.6351154" lon="10.6002371"><ele>71.2</ele><time>2026-03-28T15:23:52.662Z</time></trkpt><trkpt lat="45.6351593" lon="10.6001084"><ele>71.8</ele><time>2026-03-28T15:23:54.655Z</time></trkpt><trkpt lat="45.6351976" lon="10.6000019"><ele>72.4</ele><time>2026-03-28T15:23:56.646Z</time></trkpt><trkpt lat="45.6352266" lon="10.5999188"><ele>73.0</ele><time>2026-03-28T15:23:58.653Z</time></trkpt><trkpt lat="45.6352709" lon="10.5997995"><ele>72.8</ele><time>2026-03-28T15:24:00.658Z</time></trkpt><trkpt lat="45.6353123" lon="10.5997083"><ele>72.6</ele><time>2026-03-28T15:24:02.664Z</time></trkpt><trkpt lat="45.6353851" lon="10.5995605"><ele>72.4</ele><time>2026-03-28T15:24:04.66Z</time></trkpt><trkpt lat="45.6354636" lon="10.5994231"><ele>72.2</ele><time>2026-03-28T15:24:06.638Z</time></trkpt><trkpt lat="45.6355023" lon="10.5993442"><ele>72.0</ele><time>2026-03-28T15:24:07.642Z</time></trkpt><trkpt lat="45.6355469" lon="10.5992492"><ele>72.0</ele><time>2026-03-28T15:24:08.642Z</time></trkpt><trkpt lat="45.6355888" lon="10.5991473"><ele>72.0</ele><time>2026-03-28T15:24:09.667Z</time></trkpt><trkpt lat="45.6356265" lon="10.5990431"><ele>72.0</ele><time>2026-03-28T15:24:10.652Z</time></trkpt><trkpt lat="45.6356761" lon="10.5989305"><ele>72.0</ele><time>2026-03-28T15:24:11.639Z</time></trkpt><trkpt lat="45.6356988" lon="10.5988305"><ele>72.0</ele><time>2026-03-28T15:24:12.639Z</time></trkpt><trkpt lat="45.6357119" lon="10.5987421"><ele>72.0</ele><time>2026-03-28T15:24:13.641Z</time></trkpt><trkpt lat="45.6357265" lon="10.5986518"><ele>72.33333333333333</ele><time>2026-03-28T15:24:14.64Z</time></trkpt><trkpt lat="45.6357318" lon="10.5985589"><ele>72.66666666666667</ele><time>2026-03-28T15:24:15.655Z</time></trkpt><trkpt lat="45.6357312" lon="10.5984475"><ele>73.0</ele><time>2026-03-28T15:24:16.651Z</time></trkpt><trkpt lat="45.6357298" lon="10.5983215"><ele>73.33333333333334</ele><time>2026-03-28T15:24:17.652Z</time></trkpt><trkpt lat="45.6357262" lon="10.5981761"><ele>73.66666666666667</ele><time>2026-03-28T15:24:18.653Z</time></trkpt><trkpt lat="45.63572" lon="10.5980275"><ele>74.0</ele><time>2026-03-28T15:24:19.655Z</time></trkpt><trkpt lat="45.6357102" lon="10.597878"><ele>75.0</ele><time>2026-03-28T15:24:20.653Z</time></trkpt><trkpt lat="45.6356951" lon="10.5977274"><ele>76.0</ele><time>2026-03-28T15:24:21.657Z</time></trkpt><trkpt lat="45.6356745" lon="10.5975815"><ele>77.0</ele><time>2026-03-28T15:24:22.65Z</time></trkpt><trkpt lat="45.6356474" lon="10.5974416"><ele>78.0</ele><time>2026-03-28T15:24:23.656Z</time></trkpt><trkpt lat="45.6356144" lon="10.5973054"><ele>79.0</ele><time>2026-03-28T15:24:24.653Z</time></trkpt><trkpt lat="45.6355696" lon="10.5971727"><ele>79.0</ele><time>2026-03-28T15:24:25.643Z</time></trkpt><trkpt lat="45.6355176" lon="10.5970323"><ele>79.0</ele><time>2026-03-28T15:24:26.663Z</time></trkpt><trkpt lat="45.6354614" lon="10.5968973"><ele>79.0</ele><time>2026-03-28T15:24:27.622Z</time></trkpt><trkpt lat="45.6354085" lon="10.5967804"><ele>79.0</ele><time>2026-03-28T15:24:28.626Z</time></trkpt><trkpt lat="45.6353598" lon="10.5966825"><ele>79.0</ele><time>2026-03-28T15:24:29.626Z</time></trkpt><trkpt lat="45.6353056" lon="10.5965947"><ele>78.8</ele><time>2026-03-28T15:24:30.629Z</time></trkpt><trkpt lat="45.6352495" lon="10.5964871"><ele>78.60000000000001</ele><time>2026-03-28T15:24:31.641Z</time></trkpt><trkpt lat="45.6351879" lon="10.5963613"><ele>78.4</ele><time>2026-03-28T15:24:32.642Z</time></trkpt><trkpt lat="45.6351294" lon="10.5962318"><ele>78.2</ele><time>2026-03-28T15:24:33.643Z</time></trkpt><trkpt lat="45.6350768" lon="10.5961166"><ele>78.0</ele><time>2026-03-28T15:24:34.647Z</time></trkpt><trkpt lat="45.6350308" lon="10.5960063"><ele>78.0</ele><time>2026-03-28T15:24:35.649Z</time></trkpt><trkpt lat="45.6349814" lon="10.5958888"><ele>78.0</ele><time>2026-03-28T15:24:36.644Z</time></trkpt><trkpt lat="45.634932" lon="10.5957669"><ele>78.0</ele><time>2026-03-28T15:24:37.643Z</time></trkpt><trkpt lat="45.6348813" lon="10.5956349"><ele>78.0</ele><time>2026-03-28T15:24:38.648Z</time></trkpt><trkpt lat="45.6348295" lon="10.5954983"><ele>78.0</ele><time>2026-03-28T15:24:39.655Z</time></trkpt><trkpt lat="45.6347734" lon="10.5953594"><ele>85.25</ele><time>2026-03-28T15:24:40.653Z</time></trkpt><trkpt lat="45.6347128" lon="10.595217"><ele>92.5</ele><time>2026-03-28T15:24:41.64Z</time></trkpt><trkpt lat="45.6346477" lon="10.595075"><ele>99.75</ele><time>2026-03-28T15:24:42.645Z</time></trkpt><trkpt lat="45.6345852" lon="10.5949311"><ele>107.0</ele><time>2026-03-28T15:24:43.639Z</time></trkpt><trkpt lat="45.634523" lon="10.5947897"><ele>99.5</ele><time>2026-03-28T15:24:44.636Z</time></trkpt><trkpt lat="45.6344616" lon="10.5946528"><ele>92.0</ele><time>2026-03-28T15:24:45.64Z</time></trkpt><trkpt lat="45.6344008" lon="10.5945219"><ele>84.5</ele><time>2026-03-28T15:24:46.635Z</time></trkpt><trkpt lat="45.6343362" lon="10.5943901"><ele>77.0</ele><time>2026-03-28T15:24:47.644Z</time></trkpt><trkpt lat="45.6342632" lon="10.5942523"><ele>77.0</ele><time>2026-03-28T15:24:48.644Z</time></trkpt><trkpt lat="45.6341929" lon="10.5941155"><ele>77.0</ele><time>2026-03-28T15:24:49.635Z</time></trkpt><trkpt lat="45.6341303" lon="10.5939933"><ele>77.0</ele><time>2026-03-28T15:24:50.645Z</time></trkpt><trkpt lat="45.6340688" lon="10.5938684"><ele>77.0</ele><time>2026-03-28T15:24:51.645Z</time></trkpt><trkpt lat="45.6340056" lon="10.5937435"><ele>77.0</ele><time>2026-03-28T15:24:52.643Z</time></trkpt><trkpt lat="45.6339419" lon="10.5936208"><ele>81.75</ele><time>2026-03-28T15:24:53.653Z</time></trkpt><trkpt lat="45.6338753" lon="10.5934952"><ele>86.5</ele><time>2026-03-28T15:24:54.653Z</time></trkpt><trkpt lat="45.6338084" lon="10.5933636"><ele>91.25</ele><time>2026-03-28T15:24:55.659Z</time></trkpt><trkpt lat="45.6337377" lon="10.5932227"><ele>96.0</ele><time>2026-03-28T15:24:56.664Z</time></trkpt><trkpt lat="45.6336615" lon="10.5930724"><ele>90.75</ele><time>2026-03-28T15:24:57.653Z</time></trkpt><trkpt lat="45.6335819" lon="10.5929174"><ele>85.5</ele><time>2026-03-28T15:24:58.66Z</time></trkpt><trkpt lat="45.6335011" lon="10.5927592"><ele>80.25</ele><time>2026-03-28T15:24:59.649Z</time></trkpt><trkpt lat="45.6334191" lon="10.5926084"><ele>75.0</ele><time>2026-03-28T15:25:00.643Z</time></trkpt><trkpt lat="45.6333355" lon="10.5924634"><ele>75.0</ele><time>2026-03-28T15:25:01.639Z</time></trkpt><trkpt lat="45.633243" lon="10.5923207"><ele>75.0</ele><time>2026-03-28T15:25:02.637Z</time></trkpt><trkpt lat="45.6331288" lon="10.592162"><ele>75.0</ele><time>2026-03-28T15:25:03.643Z</time></trkpt><trkpt lat="45.6330017" lon="10.5920019"><ele>74.33333333333333</ele><time>2026-03-28T15:25:04.646Z</time></trkpt><trkpt lat="45.6328698" lon="10.591845"><ele>73.66666666666666</ele><time>2026-03-28T15:25:05.644Z</time></trkpt><trkpt lat="45.6327437" lon="10.5917026"><ele>73.0</ele><time>2026-03-28T15:25:06.649Z</time></trkpt><trkpt lat="45.6326329" lon="10.5915686"><ele>73.0</ele><time>2026-03-28T15:25:07.64Z</time></trkpt><trkpt lat="45.6325399" lon="10.5914241"><ele>73.0</ele><time>2026-03-28T15:25:08.644Z</time></trkpt><trkpt lat="45.6324531" lon="10.5912517"><ele>73.0</ele><time>2026-03-28T15:25:09.629Z</time></trkpt><trkpt lat="45.6323704" lon="10.5910663"><ele>73.0</ele><time>2026-03-28T15:25:10.63Z</time></trkpt><trkpt lat="45.632288" lon="10.5908738"><ele>79.0</ele><time>2026-03-28T15:25:11.628Z</time></trkpt><trkpt lat="45.6322033" lon="10.590674"><ele>85.0</ele><time>2026-03-28T15:25:12.624Z</time></trkpt><trkpt lat="45.6321137" lon="10.5904673"><ele>91.0</ele><time>2026-03-28T15:25:13.639Z</time></trkpt><trkpt lat="45.6320184" lon="10.5902646"><ele>86.0</ele><time>2026-03-28T15:25:14.639Z</time></trkpt><trkpt lat="45.6319234" lon="10.5900831"><ele>81.0</ele><time>2026-03-28T15:25:15.635Z</time></trkpt><trkpt lat="45.6318299" lon="10.5899079"><ele>76.0</ele><time>2026-03-28T15:25:16.648Z</time></trkpt><trkpt lat="45.631732" lon="10.5897254"><ele>76.0</ele><time>2026-03-28T15:25:17.643Z</time></trkpt><trkpt lat="45.6316363" lon="10.5895552"><ele>76.0</ele><time>2026-03-28T15:25:18.645Z</time></trkpt><trkpt lat="45.6315422" lon="10.5893956"><ele>76.0</ele><time>2026-03-28T15:25:19.641Z</time></trkpt><trkpt lat="45.631445" lon="10.5892342"><ele>76.0</ele><time>2026-03-28T15:25:20.638Z</time></trkpt><trkpt lat="45.6313575" lon="10.5890806"><ele>76.0</ele><time>2026-03-28T15:25:21.644Z</time></trkpt><trkpt lat="45.6312771" lon="10.5889449"><ele>76.0</ele><time>2026-03-28T15:25:22.641Z</time></trkpt><trkpt lat="45.6311888" lon="10.5888018"><ele>76.0</ele><time>2026-03-28T15:25:23.63Z</time></trkpt><trkpt lat="45.6310798" lon="10.5886386"><ele>76.0</ele><time>2026-03-28T15:25:24.636Z</time></trkpt><trkpt lat="45.6309543" lon="10.5884626"><ele>76.0</ele><time>2026-03-28T15:25:25.642Z</time></trkpt><trkpt lat="45.6308163" lon="10.58827"><ele>76.0</ele><time>2026-03-28T15:25:26.642Z</time></trkpt><trkpt lat="45.630686" lon="10.588083"><ele>76.0</ele><time>2026-03-28T15:25:27.643Z</time></trkpt><trkpt lat="45.6305749" lon="10.5879125"><ele>77.0</ele><time>2026-03-28T15:25:28.65Z</time></trkpt><trkpt lat="45.6304714" lon="10.587751"><ele>78.0</ele><time>2026-03-28T15:25:29.642Z</time></trkpt><trkpt lat="45.6303773" lon="10.5876069"><ele>79.0</ele><time>2026-03-28T15:25:30.636Z</time></trkpt><trkpt lat="45.6302901" lon="10.5874796"><ele>80.0</ele><time>2026-03-28T15:25:31.64Z</time></trkpt><trkpt lat="45.6302001" lon="10.5873527"><ele>80.0</ele><time>2026-03-28T15:25:32.635Z</time></trkpt><trkpt lat="45.6301083" lon="10.5872317"><ele>80.0</ele><time>2026-03-28T15:25:33.645Z</time></trkpt><trkpt lat="45.63002" lon="10.5871208"><ele>80.0</ele><time>2026-03-28T15:25:34.632Z</time></trkpt><trkpt lat="45.6299255" lon="10.5870076"><ele>80.0</ele><time>2026-03-28T15:25:35.628Z</time></trkpt><trkpt lat="45.6298283" lon="10.586903"><ele>79.4</ele><time>2026-03-28T15:25:36.624Z</time></trkpt><trkpt lat="45.6297376" lon="10.5868259"><ele>78.8</ele><time>2026-03-28T15:25:37.624Z</time></trkpt><trkpt lat="45.6296408" lon="10.5867585"><ele>78.2</ele><time>2026-03-28T15:25:38.616Z</time></trkpt><trkpt lat="45.629533" lon="10.5867008"><ele>77.6</ele><time>2026-03-28T15:25:39.618Z</time></trkpt><trkpt lat="45.6294174" lon="10.5866583"><ele>77.0</ele><time>2026-03-28T15:25:40.615Z</time></trkpt><trkpt lat="45.6293026" lon="10.5866345"><ele>77.0</ele><time>2026-03-28T15:25:41.624Z</time></trkpt><trkpt lat="45.6291906" lon="10.5866227"><ele>77.0</ele><time>2026-03-28T15:25:42.641Z</time></trkpt><trkpt lat="45.6290812" lon="10.5866207"><ele>77.0</ele><time>2026-03-28T15:25:43.645Z</time></trkpt><trkpt lat="45.6289725" lon="10.5866241"><ele>77.0</ele><time>2026-03-28T15:25:44.648Z</time></trkpt><trkpt lat="45.6288567" lon="10.5866276"><ele>77.0</ele><time>2026-03-28T15:25:45.65Z</time></trkpt><trkpt lat="45.6287305" lon="10.5866312"><ele>76.5</ele><time>2026-03-28T15:25:46.652Z</time></trkpt><trkpt lat="45.628606" lon="10.586633"><ele>76.0</ele><time>2026-03-28T15:25:47.649Z</time></trkpt><trkpt lat="45.6284852" lon="10.5866345"><ele>75.5</ele><time>2026-03-28T15:25:48.647Z</time></trkpt><trkpt lat="45.6283707" lon="10.5866391"><ele>75.0</ele><time>2026-03-28T15:25:49.641Z</time></trkpt><trkpt lat="45.6282672" lon="10.5866404"><ele>75.0</ele><time>2026-03-28T15:25:50.651Z</time></trkpt><trkpt lat="45.6281793" lon="10.5866413"><ele>75.0</ele><time>2026-03-28T15:25:51.654Z</time></trkpt><trkpt lat="45.6280913" lon="10.5866458"><ele>75.0</ele><time>2026-03-28T15:25:52.654Z</time></trkpt><trkpt lat="45.6279962" lon="10.5866414"><ele>75.0</ele><time>2026-03-28T15:25:53.659Z</time></trkpt><trkpt lat="45.6278992" lon="10.58663"><ele>75.0</ele><time>2026-03-28T15:25:54.644Z</time></trkpt><trkpt lat="45.6278012" lon="10.5866042"><ele>75.2</ele><time>2026-03-28T15:25:55.651Z</time></trkpt><trkpt lat="45.6276978" lon="10.5865597"><ele>75.4</ele><time>2026-03-28T15:25:56.653Z</time></trkpt><trkpt lat="45.6275972" lon="10.5864946"><ele>75.6</ele><time>2026-03-28T15:25:57.643Z</time></trkpt><trkpt lat="45.6274965" lon="10.586416"><ele>75.8</ele><time>2026-03-28T15:25:58.665Z</time></trkpt><trkpt lat="45.6274011" lon="10.5863314"><ele>76.0</ele><time>2026-03-28T15:25:59.65Z</time></trkpt><trkpt lat="45.6273105" lon="10.5862464"><ele>76.5</ele><time>2026-03-28T15:26:00.643Z</time></trkpt><trkpt lat="45.6272173" lon="10.5861557"><ele>77.0</ele><time>2026-03-28T15:26:01.668Z</time></trkpt><trkpt lat="45.6271262" lon="10.5860677"><ele>77.5</ele><time>2026-03-28T15:26:02.664Z</time></trkpt><trkpt lat="45.6270334" lon="10.5859806"><ele>78.0</ele><time>2026-03-28T15:26:03.673Z</time></trkpt><trkpt lat="45.6269351" lon="10.5858896"><ele>78.0</ele><time>2026-03-28T15:26:04.657Z</time></trkpt><trkpt lat="45.6268326" lon="10.5857903"><ele>78.0</ele><time>2026-03-28T15:26:05.672Z</time></trkpt><trkpt lat="45.6267281" lon="10.5856894"><ele>78.0</ele><time>2026-03-28T15:26:06.663Z</time></trkpt><trkpt lat="45.6266256" lon="10.5855918"><ele>78.0</ele><time>2026-03-28T15:26:07.659Z</time></trkpt><trkpt lat="45.6265286" lon="10.5854887"><ele>78.0</ele><time>2026-03-28T15:26:08.667Z</time></trkpt><trkpt lat="45.6264393" lon="10.5853768"><ele>78.0</ele><time>2026-03-28T15:26:09.663Z</time></trkpt><trkpt lat="45.6263566" lon="10.5852476"><ele>78.0</ele><time>2026-03-28T15:26:10.645Z</time></trkpt><trkpt lat="45.6262788" lon="10.5851107"><ele>78.0</ele><time>2026-03-28T15:26:11.647Z</time></trkpt><trkpt lat="45.62621" lon="10.5849765"><ele>78.25</ele><time>2026-03-28T15:26:12.648Z</time></trkpt><trkpt lat="45.6261499" lon="10.5848376"><ele>78.5</ele><time>2026-03-28T15:26:13.643Z</time></trkpt><trkpt lat="45.6261027" lon="10.5846905"><ele>78.75</ele><time>2026-03-28T15:26:14.666Z</time></trkpt><trkpt lat="45.6260679" lon="10.5845312"><ele>79.0</ele><time>2026-03-28T15:26:15.664Z</time></trkpt><trkpt lat="45.6260519" lon="10.5843626"><ele>77.75</ele><time>2026-03-28T15:26:16.644Z</time></trkpt><trkpt lat="45.6260434" lon="10.5841806"><ele>76.5</ele><time>2026-03-28T15:26:17.638Z</time></trkpt><trkpt lat="45.6260583" lon="10.5839919"><ele>75.25</ele><time>2026-03-28T15:26:18.643Z</time></trkpt><trkpt lat="45.6260774" lon="10.5837852"><ele>74.0</ele><time>2026-03-28T15:26:19.641Z</time></trkpt><trkpt lat="45.6261011" lon="10.5835716"><ele>73.5</ele><time>2026-03-28T15:26:20.662Z</time></trkpt><trkpt lat="45.6261271" lon="10.5833706"><ele>73.0</ele><time>2026-03-28T15:26:21.674Z</time></trkpt><trkpt lat="45.6261544" lon="10.5831876"><ele>72.5</ele><time>2026-03-28T15:26:22.671Z</time></trkpt><trkpt lat="45.6261776" lon="10.5830179"><ele>72.0</ele><time>2026-03-28T15:26:23.678Z</time></trkpt><trkpt lat="45.6261968" lon="10.5828348"><ele>75.25</ele><time>2026-03-28T15:26:24.674Z</time></trkpt><trkpt lat="45.6262093" lon="10.5826413"><ele>78.5</ele><time>2026-03-28T15:26:25.669Z</time></trkpt><trkpt lat="45.6262154" lon="10.5824355"><ele>81.75</ele><time>2026-03-28T15:26:26.669Z</time></trkpt><trkpt lat="45.6262171" lon="10.5822447"><ele>85.0</ele><time>2026-03-28T15:26:27.675Z</time></trkpt><trkpt lat="45.6262156" lon="10.5820634"><ele>84.75</ele><time>2026-03-28T15:26:28.672Z</time></trkpt><trkpt lat="45.6262152" lon="10.5818808"><ele>84.5</ele><time>2026-03-28T15:26:29.691Z</time></trkpt><trkpt lat="45.6262125" lon="10.5816902"><ele>84.25</ele><time>2026-03-28T15:26:30.677Z</time></trkpt><trkpt lat="45.6262086" lon="10.5814954"><ele>84.0</ele><time>2026-03-28T15:26:31.672Z</time></trkpt><trkpt lat="45.6262044" lon="10.5813036"><ele>84.25</ele><time>2026-03-28T15:26:32.675Z</time></trkpt><trkpt lat="45.6261992" lon="10.5811073"><ele>84.5</ele><time>2026-03-28T15:26:33.667Z</time></trkpt><trkpt lat="45.6261975" lon="10.5809035"><ele>84.75</ele><time>2026-03-28T15:26:34.673Z</time></trkpt><trkpt lat="45.6261994" lon="10.5807069"><ele>85.0</ele><time>2026-03-28T15:26:35.669Z</time></trkpt><trkpt lat="45.6262002" lon="10.5805132"><ele>86.25</ele><time>2026-03-28T15:26:36.674Z</time></trkpt><trkpt lat="45.6262012" lon="10.5803232"><ele>87.5</ele><time>2026-03-28T15:26:37.667Z</time></trkpt><trkpt lat="45.6262011" lon="10.5801185"><ele>88.75</ele><time>2026-03-28T15:26:38.66Z</time></trkpt><trkpt lat="45.6262012" lon="10.5799161"><ele>90.0</ele><time>2026-03-28T15:26:39.662Z</time></trkpt><trkpt lat="45.6261975" lon="10.5797214"><ele>90.0</ele><time>2026-03-28T15:26:40.655Z</time></trkpt><trkpt lat="45.6261915" lon="10.5795306"><ele>90.0</ele><time>2026-03-28T15:26:41.655Z</time></trkpt><trkpt lat="45.6261845" lon="10.5793456"><ele>90.0</ele><time>2026-03-28T15:26:42.656Z</time></trkpt><trkpt lat="45.6261766" lon="10.5791805"><ele>90.0</ele><time>2026-03-28T15:26:43.659Z</time></trkpt><trkpt lat="45.6261694" lon="10.5790143"><ele>89.5</ele><time>2026-03-28T15:26:44.659Z</time></trkpt><trkpt lat="45.6261598" lon="10.5788393"><ele>89.0</ele><time>2026-03-28T15:26:45.668Z</time></trkpt><trkpt lat="45.6261438" lon="10.5786458"><ele>88.5</ele><time>2026-03-28T15:26:46.66Z</time></trkpt><trkpt lat="45.6261252" lon="10.5784554"><ele>88.0</ele><time>2026-03-28T15:26:47.662Z</time></trkpt><trkpt lat="45.6261059" lon="10.578284"><ele>85.5</ele><time>2026-03-28T15:26:48.668Z</time></trkpt><trkpt lat="45.6260866" lon="10.5781244"><ele>83.0</ele><time>2026-03-28T15:26:49.658Z</time></trkpt><trkpt lat="45.6260641" lon="10.5779538"><ele>80.5</ele><time>2026-03-28T15:26:50.662Z</time></trkpt><trkpt lat="45.6260432" lon="10.5777832"><ele>78.0</ele><time>2026-03-28T15:26:51.656Z</time></trkpt><trkpt lat="45.6260177" lon="10.577611"><ele>78.0</ele><time>2026-03-28T15:26:52.654Z</time></trkpt><trkpt lat="45.625994" lon="10.5774444"><ele>78.0</ele><time>2026-03-28T15:26:53.653Z</time></trkpt><trkpt lat="45.6259711" lon="10.577282"><ele>78.0</ele><time>2026-03-28T15:26:54.655Z</time></trkpt><trkpt lat="45.625938" lon="10.5771148"><ele>78.0</ele><time>2026-03-28T15:26:55.664Z</time></trkpt><trkpt lat="45.6258983" lon="10.576938"><ele>78.75</ele><time>2026-03-28T15:26:56.667Z</time></trkpt><trkpt lat="45.6258532" lon="10.5767531"><ele>79.5</ele><time>2026-03-28T15:26:57.666Z</time></trkpt><trkpt lat="45.6258081" lon="10.5765723"><ele>80.25</ele><time>2026-03-28T15:26:58.676Z</time></trkpt><trkpt lat="45.6257647" lon="10.5763979"><ele>81.0</ele><time>2026-03-28T15:26:59.67Z</time></trkpt><trkpt lat="45.6257216" lon="10.5762185"><ele>82.5</ele><time>2026-03-28T15:27:00.675Z</time></trkpt><trkpt lat="45.6256779" lon="10.5760377"><ele>84.0</ele><time>2026-03-28T15:27:01.665Z</time></trkpt><trkpt lat="45.6256338" lon="10.5758593"><ele>85.5</ele><time>2026-03-28T15:27:02.666Z</time></trkpt><trkpt lat="45.6255921" lon="10.5756816"><ele>87.0</ele><time>2026-03-28T15:27:03.658Z</time></trkpt><trkpt lat="45.6255473" lon="10.5755102"><ele>87.0</ele><time>2026-03-28T15:27:04.655Z</time></trkpt><trkpt lat="45.6254996" lon="10.5753614"><ele>87.0</ele><time>2026-03-28T15:27:05.657Z</time></trkpt><trkpt lat="45.6254519" lon="10.5752269"><ele>87.0</ele><time>2026-03-28T15:27:06.659Z</time></trkpt><trkpt lat="45.6254005" lon="10.575096"><ele>87.0</ele><time>2026-03-28T15:27:07.662Z</time></trkpt><trkpt lat="45.6253487" lon="10.5749685"><ele>87.0</ele><time>2026-03-28T15:27:08.657Z</time></trkpt><trkpt lat="45.6252937" lon="10.5748434"><ele>86.0</ele><time>2026-03-28T15:27:09.671Z</time></trkpt><trkpt lat="45.6252306" lon="10.5747173"><ele>85.0</ele><time>2026-03-28T15:27:10.659Z</time></trkpt><trkpt lat="45.6251617" lon="10.5745932"><ele>84.0</ele><time>2026-03-28T15:27:11.663Z</time></trkpt><trkpt lat="45.6250888" lon="10.5744757"><ele>83.0</ele><time>2026-03-28T15:27:12.662Z</time></trkpt><trkpt lat="45.6250145" lon="10.5743687"><ele>82.0</ele><time>2026-03-28T15:27:13.662Z</time></trkpt><trkpt lat="45.6249375" lon="10.5742673"><ele>82.0</ele><time>2026-03-28T15:27:14.659Z</time></trkpt><trkpt lat="45.6248601" lon="10.5741695"><ele>82.0</ele><time>2026-03-28T15:27:15.663Z</time></trkpt><trkpt lat="45.6247797" lon="10.5740733"><ele>82.0</ele><time>2026-03-28T15:27:16.656Z</time></trkpt><trkpt lat="45.6247033" lon="10.573985"><ele>82.0</ele><time>2026-03-28T15:27:17.67Z</time></trkpt><trkpt lat="45.6246305" lon="10.5738958"><ele>82.0</ele><time>2026-03-28T15:27:18.686Z</time></trkpt><trkpt lat="45.6245496" lon="10.5737984"><ele>81.0</ele><time>2026-03-28T15:27:19.66Z</time></trkpt><trkpt lat="45.6244675" lon="10.573697"><ele>80.0</ele><time>2026-03-28T15:27:20.665Z</time></trkpt><trkpt lat="45.624394" lon="10.5736011"><ele>79.0</ele><time>2026-03-28T15:27:21.662Z</time></trkpt><trkpt lat="45.6243258" lon="10.5735013"><ele>78.0</ele><time>2026-03-28T15:27:22.661Z</time></trkpt><trkpt lat="45.6242653" lon="10.57338"><ele>77.0</ele><time>2026-03-28T15:27:23.643Z</time></trkpt><trkpt lat="45.6242134" lon="10.5732661"><ele>77.0</ele><time>2026-03-28T15:27:24.64Z</time></trkpt><trkpt lat="45.6241706" lon="10.5731489"><ele>77.0</ele><time>2026-03-28T15:27:25.642Z</time></trkpt><trkpt lat="45.6241286" lon="10.5730191"><ele>77.0</ele><time>2026-03-28T15:27:26.65Z</time></trkpt><trkpt lat="45.6240845" lon="10.5728739"><ele>77.0</ele><time>2026-03-28T15:27:27.67Z</time></trkpt><trkpt lat="45.6240404" lon="10.5727258"><ele>77.0</ele><time>2026-03-28T15:27:28.669Z</time></trkpt><trkpt lat="45.6239927" lon="10.5725715"><ele>78.25</ele><time>2026-03-28T15:27:29.673Z</time></trkpt><trkpt lat="45.6239404" lon="10.5724091"><ele>79.5</ele><time>2026-03-28T15:27:30.663Z</time></trkpt><trkpt lat="45.6238866" lon="10.5722459"><ele>80.75</ele><time>2026-03-28T15:27:31.672Z</time></trkpt><trkpt lat="45.6238367" lon="10.5720965"><ele>82.0</ele><time>2026-03-28T15:27:32.655Z</time></trkpt><trkpt lat="45.6237896" lon="10.5719511"><ele>82.8</ele><time>2026-03-28T15:27:33.661Z</time></trkpt><trkpt lat="45.6237454" lon="10.5718174"><ele>83.6</ele><time>2026-03-28T15:27:34.662Z</time></trkpt><trkpt lat="45.6236996" lon="10.5716888"><ele>84.39999999999999</ele><time>2026-03-28T15:27:35.657Z</time></trkpt><trkpt lat="45.6236522" lon="10.5715704"><ele>85.19999999999999</ele><time>2026-03-28T15:27:36.663Z</time></trkpt><trkpt lat="45.6235952" lon="10.5714598"><ele>86.0</ele><time>2026-03-28T15:27:37.662Z</time></trkpt><trkpt lat="45.6235363" lon="10.5713599"><ele>85.0</ele><time>2026-03-28T15:27:38.661Z</time></trkpt><trkpt lat="45.6234773" lon="10.5712676"><ele>84.0</ele><time>2026-03-28T15:27:39.659Z</time></trkpt><trkpt lat="45.6234103" lon="10.5711779"><ele>83.0</ele><time>2026-03-28T15:27:40.661Z</time></trkpt><trkpt lat="45.6233354" lon="10.5710871"><ele>82.0</ele><time>2026-03-28T15:27:41.659Z</time></trkpt><trkpt lat="45.6232587" lon="10.5710004"><ele>81.0</ele><time>2026-03-28T15:27:42.664Z</time></trkpt><trkpt lat="45.6231828" lon="10.5709154"><ele>81.0</ele><time>2026-03-28T15:27:43.659Z</time></trkpt><trkpt lat="45.6231002" lon="10.570829"><ele>81.0</ele><time>2026-03-28T15:27:44.662Z</time></trkpt><trkpt lat="45.6230158" lon="10.5707372"><ele>81.0</ele><time>2026-03-28T15:27:45.657Z</time></trkpt><trkpt lat="45.6229314" lon="10.5706371"><ele>81.0</ele><time>2026-03-28T15:27:46.656Z</time></trkpt><trkpt lat="45.6228511" lon="10.570532"><ele>81.0</ele><time>2026-03-28T15:27:47.666Z</time></trkpt><trkpt lat="45.6227752" lon="10.570419"><ele>79.5</ele><time>2026-03-28T15:27:48.668Z</time></trkpt><trkpt lat="45.6227001" lon="10.5702997"><ele>78.0</ele><time>2026-03-28T15:27:49.642Z</time></trkpt><trkpt lat="45.6226266" lon="10.5701804"><ele>76.5</ele><time>2026-03-28T15:27:50.649Z</time></trkpt><trkpt lat="45.6225567" lon="10.570063"><ele>75.0</ele><time>2026-03-28T15:27:51.644Z</time></trkpt><trkpt lat="45.6224791" lon="10.5699337"><ele>75.0</ele><time>2026-03-28T15:27:52.642Z</time></trkpt><trkpt lat="45.6224092" lon="10.5698065"><ele>75.0</ele><time>2026-03-28T15:27:53.654Z</time></trkpt><trkpt lat="45.6223438" lon="10.5696753"><ele>75.0</ele><time>2026-03-28T15:27:54.655Z</time></trkpt><trkpt lat="45.6222798" lon="10.5695358"><ele>75.0</ele><time>2026-03-28T15:27:55.654Z</time></trkpt><trkpt lat="45.6222173" lon="10.5693939"><ele>73.5</ele><time>2026-03-28T15:27:56.666Z</time></trkpt><trkpt lat="45.6221571" lon="10.5692493"><ele>72.0</ele><time>2026-03-28T15:27:57.658Z</time></trkpt><trkpt lat="45.6220971" lon="10.5690997"><ele>70.5</ele><time>2026-03-28T15:27:58.659Z</time></trkpt><trkpt lat="45.6220355" lon="10.5689507"><ele>69.0</ele><time>2026-03-28T15:27:59.66Z</time></trkpt><trkpt lat="45.6219739" lon="10.5688057"><ele>70.75</ele><time>2026-03-28T15:28:00.659Z</time></trkpt><trkpt lat="45.621911" lon="10.5686658"><ele>72.5</ele><time>2026-03-28T15:28:01.662Z</time></trkpt><trkpt lat="45.6218468" lon="10.5685319"><ele>74.25</ele><time>2026-03-28T15:28:02.663Z</time></trkpt><trkpt lat="45.6217766" lon="10.5684048"><ele>76.0</ele><time>2026-03-28T15:28:03.653Z</time></trkpt><trkpt lat="45.621703" lon="10.5682813"><ele>76.0</ele><time>2026-03-28T15:28:04.663Z</time></trkpt><trkpt lat="45.6216318" lon="10.5681583"><ele>76.0</ele><time>2026-03-28T15:28:05.65Z</time></trkpt><trkpt lat="45.6215577" lon="10.5680387"><ele>76.0</ele><time>2026-03-28T15:28:06.645Z</time></trkpt><trkpt lat="45.6214852" lon="10.5679193"><ele>76.0</ele><time>2026-03-28T15:28:07.654Z</time></trkpt><trkpt lat="45.6214154" lon="10.5678002"><ele>76.0</ele><time>2026-03-28T15:28:08.662Z</time></trkpt><trkpt lat="45.6213479" lon="10.5676858"><ele>77.8</ele><time>2026-03-28T15:28:09.663Z</time></trkpt><trkpt lat="45.6212804" lon="10.5675681"><ele>79.6</ele><time>2026-03-28T15:28:10.658Z</time></trkpt><trkpt lat="45.6212158" lon="10.5674605"><ele>81.4</ele><time>2026-03-28T15:28:11.659Z</time></trkpt><trkpt lat="45.6211528" lon="10.5673566"><ele>83.2</ele><time>2026-03-28T15:28:12.654Z</time></trkpt><trkpt lat="45.621087" lon="10.5672573"><ele>85.0</ele><time>2026-03-28T15:28:13.651Z</time></trkpt><trkpt lat="45.621024" lon="10.5671647"><ele>83.0</ele><time>2026-03-28T15:28:14.656Z</time></trkpt><trkpt lat="45.6209564" lon="10.5670666"><ele>81.0</ele><time>2026-03-28T15:28:15.649Z</time></trkpt><trkpt lat="45.6208851" lon="10.5669632"><ele>79.0</ele><time>2026-03-28T15:28:16.649Z</time></trkpt><trkpt lat="45.6208164" lon="10.5668589"><ele>77.0</ele><time>2026-03-28T15:28:17.653Z</time></trkpt><trkpt lat="45.6207561" lon="10.5667664"><ele>75.0</ele><time>2026-03-28T15:28:18.648Z</time></trkpt><trkpt lat="45.6206912" lon="10.5666713"><ele>75.0</ele><time>2026-03-28T15:28:19.655Z</time></trkpt><trkpt lat="45.6206268" lon="10.5665771"><ele>75.0</ele><time>2026-03-28T15:28:20.657Z</time></trkpt><trkpt lat="45.6205637" lon="10.5664909"><ele>75.0</ele><time>2026-03-28T15:28:21.647Z</time></trkpt><trkpt lat="45.6204967" lon="10.5663991"><ele>75.0</ele><time>2026-03-28T15:28:22.654Z</time></trkpt><trkpt lat="45.6204297" lon="10.5663063"><ele>75.0</ele><time>2026-03-28T15:28:23.647Z</time></trkpt><trkpt lat="45.6203596" lon="10.5662057"><ele>73.8</ele><time>2026-03-28T15:28:24.651Z</time></trkpt><trkpt lat="45.6202958" lon="10.5661153"><ele>72.6</ele><time>2026-03-28T15:28:25.654Z</time></trkpt><trkpt lat="45.6202257" lon="10.5660129"><ele>71.4</ele><time>2026-03-28T15:28:26.654Z</time></trkpt><trkpt lat="45.6201599" lon="10.5659169"><ele>70.2</ele><time>2026-03-28T15:28:27.661Z</time></trkpt><trkpt lat="45.62009" lon="10.5658211"><ele>69.0</ele><time>2026-03-28T15:28:28.655Z</time></trkpt><trkpt lat="45.620023" lon="10.5657251"><ele>69.0</ele><time>2026-03-28T15:28:29.658Z</time></trkpt><trkpt lat="45.6199589" lon="10.5656273"><ele>69.0</ele><time>2026-03-28T15:28:30.659Z</time></trkpt><trkpt lat="45.6198938" lon="10.5655281"><ele>69.0</ele><time>2026-03-28T15:28:31.664Z</time></trkpt><trkpt lat="45.6198257" lon="10.5654346"><ele>69.0</ele><time>2026-03-28T15:28:32.657Z</time></trkpt><trkpt lat="45.6197574" lon="10.5653381"><ele>69.0</ele><time>2026-03-28T15:28:33.67Z</time></trkpt><trkpt lat="45.6196956" lon="10.5652463"><ele>68.8</ele><time>2026-03-28T15:28:34.648Z</time></trkpt><trkpt lat="45.6196329" lon="10.5651565"><ele>68.60000000000001</ele><time>2026-03-28T15:28:35.656Z</time></trkpt><trkpt lat="45.6195677" lon="10.5650644"><ele>68.4</ele><time>2026-03-28T15:28:36.652Z</time></trkpt><trkpt lat="45.6195111" lon="10.5649509"><ele>68.2</ele><time>2026-03-28T15:28:37.654Z</time></trkpt><trkpt lat="45.619458" lon="10.5648435"><ele>68.0</ele><time>2026-03-28T15:28:38.657Z</time></trkpt><trkpt lat="45.6194105" lon="10.5647345"><ele>68.0</ele><time>2026-03-28T15:28:39.641Z</time></trkpt><trkpt lat="45.6193598" lon="10.5646074"><ele>68.0</ele><time>2026-03-28T15:28:40.639Z</time></trkpt><trkpt lat="45.6193152" lon="10.5644805"><ele>68.0</ele><time>2026-03-28T15:28:41.639Z</time></trkpt><trkpt lat="45.6192739" lon="10.564337"><ele>68.0</ele><time>2026-03-28T15:28:42.639Z</time></trkpt><trkpt lat="45.6192352" lon="10.564198"><ele>68.0</ele><time>2026-03-28T15:28:43.656Z</time></trkpt><trkpt lat="45.6191925" lon="10.5640572"><ele>69.0</ele><time>2026-03-28T15:28:44.653Z</time></trkpt><trkpt lat="45.6191518" lon="10.5639212"><ele>70.0</ele><time>2026-03-28T15:28:45.662Z</time></trkpt><trkpt lat="45.6191108" lon="10.5637887"><ele>71.0</ele><time>2026-03-28T15:28:46.653Z</time></trkpt><trkpt lat="45.6190718" lon="10.5636644"><ele>72.0</ele><time>2026-03-28T15:28:47.648Z</time></trkpt><trkpt lat="45.6190334" lon="10.5635394"><ele>73.0</ele><time>2026-03-28T15:28:48.65Z</time></trkpt><trkpt lat="45.6189963" lon="10.5634131"><ele>73.6</ele><time>2026-03-28T15:28:49.653Z</time></trkpt><trkpt lat="45.6189601" lon="10.5632858"><ele>74.19999999999999</ele><time>2026-03-28T15:28:50.649Z</time></trkpt><trkpt lat="45.6189247" lon="10.5631488"><ele>74.8</ele><time>2026-03-28T15:28:51.644Z</time></trkpt><trkpt lat="45.6188919" lon="10.5630143"><ele>75.39999999999999</ele><time>2026-03-28T15:28:52.648Z</time></trkpt><trkpt lat="45.6188593" lon="10.5628802"><ele>76.0</ele><time>2026-03-28T15:28:53.648Z</time></trkpt><trkpt lat="45.6188299" lon="10.5627403"><ele>76.8</ele><time>2026-03-28T15:28:54.64Z</time></trkpt><trkpt lat="45.6188022" lon="10.5626062"><ele>77.6</ele><time>2026-03-28T15:28:55.648Z</time></trkpt><trkpt lat="45.6187751" lon="10.5624723"><ele>78.4</ele><time>2026-03-28T15:28:56.638Z</time></trkpt><trkpt lat="45.6187484" lon="10.5623331"><ele>79.2</ele><time>2026-03-28T15:28:57.636Z</time></trkpt><trkpt lat="45.6187199" lon="10.5621875"><ele>80.0</ele><time>2026-03-28T15:28:58.63Z</time></trkpt><trkpt lat="45.6186917" lon="10.5620547"><ele>80.16666666666667</ele><time>2026-03-28T15:28:59.626Z</time></trkpt><trkpt lat="45.6186659" lon="10.5619252"><ele>80.33333333333334</ele><time>2026-03-28T15:29:00.626Z</time></trkpt><trkpt lat="45.6186414" lon="10.5617916"><ele>80.5</ele><time>2026-03-28T15:29:01.627Z</time></trkpt><trkpt lat="45.6186322" lon="10.5616679"><ele>80.66666666666667</ele><time>2026-03-28T15:29:02.63Z</time></trkpt><trkpt lat="45.6186154" lon="10.5615593"><ele>80.83333333333333</ele><time>2026-03-28T15:29:03.635Z</time></trkpt><trkpt lat="45.6185942" lon="10.5614468"><ele>81.0</ele><time>2026-03-28T15:29:04.66Z</time></trkpt><trkpt lat="45.6185728" lon="10.5613275"><ele>79.66666666666667</ele><time>2026-03-28T15:29:05.643Z</time></trkpt><trkpt lat="45.6185485" lon="10.5612061"><ele>78.33333333333333</ele><time>2026-03-28T15:29:06.64Z</time></trkpt><trkpt lat="45.6185249" lon="10.5610931"><ele>77.0</ele><time>2026-03-28T15:29:07.642Z</time></trkpt><trkpt lat="45.6185062" lon="10.5609944"><ele>75.66666666666666</ele><time>2026-03-28T15:29:08.647Z</time></trkpt><trkpt lat="45.6184881" lon="10.5608982"><ele>74.33333333333333</ele><time>2026-03-28T15:29:09.643Z</time></trkpt><trkpt lat="45.6184673" lon="10.5607964"><ele>73.0</ele><time>2026-03-28T15:29:10.649Z</time></trkpt><trkpt lat="45.6184451" lon="10.5606858"><ele>73.0</ele><time>2026-03-28T15:29:11.651Z</time></trkpt><trkpt lat="45.6184205" lon="10.5605701"><ele>73.0</ele><time>2026-03-28T15:29:12.653Z</time></trkpt><trkpt lat="45.6183766" lon="10.5604434"><ele>73.0</ele><time>2026-03-28T15:29:13.658Z</time></trkpt><trkpt lat="45.6183532" lon="10.5603238"><ele>73.0</ele><time>2026-03-28T15:29:14.654Z</time></trkpt><trkpt lat="45.618332" lon="10.5601995"><ele>73.0</ele><time>2026-03-28T15:29:15.673Z</time></trkpt><trkpt lat="45.6183034" lon="10.5600594"><ele>73.2</ele><time>2026-03-28T15:29:16.662Z</time></trkpt><trkpt lat="45.6182748" lon="10.5599199"><ele>73.4</ele><time>2026-03-28T15:29:17.66Z</time></trkpt><trkpt lat="45.6182497" lon="10.559789"><ele>73.60000000000001</ele><time>2026-03-28T15:29:18.662Z</time></trkpt><trkpt lat="45.6182257" lon="10.5596637"><ele>73.8</ele><time>2026-03-28T15:29:19.664Z</time></trkpt><trkpt lat="45.6182044" lon="10.5595448"><ele>74.0</ele><time>2026-03-28T15:29:20.665Z</time></trkpt><trkpt lat="45.6181831" lon="10.5594318"><ele>74.4</ele><time>2026-03-28T15:29:21.669Z</time></trkpt><trkpt lat="45.6181607" lon="10.5593175"><ele>74.80000000000001</ele><time>2026-03-28T15:29:22.667Z</time></trkpt><trkpt lat="45.6181372" lon="10.5591944"><ele>75.19999999999999</ele><time>2026-03-28T15:29:23.678Z</time></trkpt><trkpt lat="45.6181126" lon="10.5590564"><ele>75.6</ele><time>2026-03-28T15:29:24.657Z</time></trkpt><trkpt lat="45.618089" lon="10.558918"><ele>76.0</ele><time>2026-03-28T15:29:25.656Z</time></trkpt><trkpt lat="45.618066" lon="10.5587834"><ele>77.0</ele><time>2026-03-28T15:29:26.649Z</time></trkpt><trkpt lat="45.6180387" lon="10.5586498"><ele>78.0</ele><time>2026-03-28T15:29:27.653Z</time></trkpt><trkpt lat="45.6180054" lon="10.5585144"><ele>79.0</ele><time>2026-03-28T15:29:28.647Z</time></trkpt><trkpt lat="45.6179627" lon="10.5583825"><ele>80.0</ele><time>2026-03-28T15:29:29.649Z</time></trkpt><trkpt lat="45.6179112" lon="10.5582523"><ele>81.0</ele><time>2026-03-28T15:29:30.631Z</time></trkpt><trkpt lat="45.6178492" lon="10.5581129"><ele>80.5</ele><time>2026-03-28T15:29:31.633Z</time></trkpt><trkpt lat="45.6177787" lon="10.5579786"><ele>80.0</ele><time>2026-03-28T15:29:32.64Z</time></trkpt><trkpt lat="45.617711" lon="10.5578481"><ele>79.5</ele><time>2026-03-28T15:29:33.633Z</time></trkpt><trkpt lat="45.617638" lon="10.557719"><ele>79.0</ele><time>2026-03-28T15:29:34.674Z</time></trkpt><trkpt lat="45.6175622" lon="10.5575898"><ele>79.0</ele><time>2026-03-28T15:29:35.66Z</time></trkpt><trkpt lat="45.6174861" lon="10.5574638"><ele>79.0</ele><time>2026-03-28T15:29:36.656Z</time></trkpt><trkpt lat="45.6174118" lon="10.5573365"><ele>79.0</ele><time>2026-03-28T15:29:37.657Z</time></trkpt><trkpt lat="45.6173373" lon="10.557203"><ele>79.0</ele><time>2026-03-28T15:29:38.651Z</time></trkpt><trkpt lat="45.6172613" lon="10.5570673"><ele>79.25</ele><time>2026-03-28T15:29:39.654Z</time></trkpt><trkpt lat="45.6171836" lon="10.5569254"><ele>79.5</ele><time>2026-03-28T15:29:40.646Z</time></trkpt><trkpt lat="45.6171046" lon="10.5567778"><ele>79.75</ele><time>2026-03-28T15:29:41.652Z</time></trkpt><trkpt lat="45.617031" lon="10.5566395"><ele>80.0</ele><time>2026-03-28T15:29:42.649Z</time></trkpt><trkpt lat="45.6169606" lon="10.5565097"><ele>79.4</ele><time>2026-03-28T15:29:43.655Z</time></trkpt><trkpt lat="45.6168939" lon="10.5563738"><ele>78.8</ele><time>2026-03-28T15:29:44.662Z</time></trkpt><trkpt lat="45.6168328" lon="10.5562548"><ele>78.2</ele><time>2026-03-28T15:29:45.671Z</time></trkpt><trkpt lat="45.6167731" lon="10.5561371"><ele>77.6</ele><time>2026-03-28T15:29:46.67Z</time></trkpt><trkpt lat="45.6167092" lon="10.5560147"><ele>77.0</ele><time>2026-03-28T15:29:47.669Z</time></trkpt><trkpt lat="45.6166428" lon="10.5558894"><ele>77.0</ele><time>2026-03-28T15:29:48.663Z</time></trkpt><trkpt lat="45.6165829" lon="10.5557588"><ele>77.0</ele><time>2026-03-28T15:29:49.669Z</time></trkpt><trkpt lat="45.6165205" lon="10.5556322"><ele>77.0</ele><time>2026-03-28T15:29:50.67Z</time></trkpt><trkpt lat="45.6164569" lon="10.5555073"><ele>77.0</ele><time>2026-03-28T15:29:51.665Z</time></trkpt><trkpt lat="45.6163968" lon="10.5553865"><ele>77.0</ele><time>2026-03-28T15:29:52.667Z</time></trkpt><trkpt lat="45.6163386" lon="10.5552688"><ele>77.0</ele><time>2026-03-28T15:29:53.672Z</time></trkpt><trkpt lat="45.6162809" lon="10.5551472"><ele>77.0</ele><time>2026-03-28T15:29:54.669Z</time></trkpt><trkpt lat="45.6162225" lon="10.555021"><ele>77.0</ele><time>2026-03-28T15:29:55.669Z</time></trkpt><trkpt lat="45.6161661" lon="10.5548983"><ele>77.0</ele><time>2026-03-28T15:29:56.671Z</time></trkpt><trkpt lat="45.6161096" lon="10.5547759"><ele>77.0</ele><time>2026-03-28T15:29:57.668Z</time></trkpt><trkpt lat="45.6160508" lon="10.5546514"><ele>77.8</ele><time>2026-03-28T15:29:58.672Z</time></trkpt><trkpt lat="45.6159954" lon="10.5545348"><ele>78.6</ele><time>2026-03-28T15:29:59.66Z</time></trkpt><trkpt lat="45.6159418" lon="10.5544169"><ele>79.39999999999999</ele><time>2026-03-28T15:30:00.67Z</time></trkpt><trkpt lat="45.6158866" lon="10.5542931"><ele>80.2</ele><time>2026-03-28T15:30:01.667Z</time></trkpt><trkpt lat="45.6158333" lon="10.5541753"><ele>81.0</ele><time>2026-03-28T15:30:02.668Z</time></trkpt><trkpt lat="45.6157824" lon="10.554069"><ele>81.0</ele><time>2026-03-28T15:30:03.674Z</time></trkpt><trkpt lat="45.6157374" lon="10.5539735"><ele>81.0</ele><time>2026-03-28T15:30:04.672Z</time></trkpt><trkpt lat="45.6156913" lon="10.5538725"><ele>81.0</ele><time>2026-03-28T15:30:05.684Z</time></trkpt><trkpt lat="45.6156421" lon="10.5537617"><ele>81.0</ele><time>2026-03-28T15:30:06.671Z</time></trkpt><trkpt lat="45.6155924" lon="10.5536518"><ele>81.0</ele><time>2026-03-28T15:30:07.668Z</time></trkpt><trkpt lat="45.6155466" lon="10.5535559"><ele>81.0</ele><time>2026-03-28T15:30:08.661Z</time></trkpt><trkpt lat="45.6155111" lon="10.5534753"><ele>81.16666666666667</ele><time>2026-03-28T15:30:09.68Z</time></trkpt><trkpt lat="45.6154474" lon="10.5533143"><ele>81.33333333333333</ele><time>2026-03-28T15:30:11.67Z</time></trkpt><trkpt lat="45.615414" lon="10.5532263"><ele>81.5</ele><time>2026-03-28T15:30:12.672Z</time></trkpt><trkpt lat="45.6153724" lon="10.5531373"><ele>81.66666666666666</ele><time>2026-03-28T15:30:13.67Z</time></trkpt><trkpt lat="45.6153332" lon="10.5530411"><ele>81.83333333333333</ele><time>2026-03-28T15:30:14.666Z</time></trkpt><trkpt lat="45.6152838" lon="10.5529265"><ele>82.0</ele><time>2026-03-28T15:30:15.672Z</time></trkpt><trkpt lat="45.6152299" lon="10.5528012"><ele>80.8</ele><time>2026-03-28T15:30:16.665Z</time></trkpt><trkpt lat="45.6151735" lon="10.5526704"><ele>79.6</ele><time>2026-03-28T15:30:17.671Z</time></trkpt><trkpt lat="45.6151206" lon="10.5525385"><ele>78.39999999999999</ele><time>2026-03-28T15:30:18.672Z</time></trkpt><trkpt lat="45.6150736" lon="10.5524211"><ele>77.19999999999999</ele><time>2026-03-28T15:30:19.667Z</time></trkpt><trkpt lat="45.6150304" lon="10.5523124"><ele>76.0</ele><time>2026-03-28T15:30:20.675Z</time></trkpt><trkpt lat="45.6149891" lon="10.5521971"><ele>76.0</ele><time>2026-03-28T15:30:21.668Z</time></trkpt><trkpt lat="45.6149438" lon="10.5520815"><ele>76.0</ele><time>2026-03-28T15:30:22.671Z</time></trkpt><trkpt lat="45.6148992" lon="10.5519663"><ele>76.0</ele><time>2026-03-28T15:30:23.667Z</time></trkpt><trkpt lat="45.6148518" lon="10.5518369"><ele>76.0</ele><time>2026-03-28T15:30:24.67Z</time></trkpt><trkpt lat="45.6148002" lon="10.5517033"><ele>76.0</ele><time>2026-03-28T15:30:25.667Z</time></trkpt><trkpt lat="45.6147449" lon="10.5515676"><ele>76.2</ele><time>2026-03-28T15:30:26.666Z</time></trkpt><trkpt lat="45.6146895" lon="10.5514339"><ele>76.39999999999999</ele><time>2026-03-28T15:30:27.671Z</time></trkpt><trkpt lat="45.6146377" lon="10.5513088"><ele>76.6</ele><time>2026-03-28T15:30:28.662Z</time></trkpt><trkpt lat="45.6145911" lon="10.5511938"><ele>76.8</ele><time>2026-03-28T15:30:29.672Z</time></trkpt><trkpt lat="45.6145466" lon="10.5510798"><ele>77.0</ele><time>2026-03-28T15:30:30.664Z</time></trkpt><trkpt lat="45.6145059" lon="10.5509661"><ele>76.33333333333334</ele><time>2026-03-28T15:30:31.67Z</time></trkpt><trkpt lat="45.6144682" lon="10.5508508"><ele>75.66666666666667</ele><time>2026-03-28T15:30:32.666Z</time></trkpt><trkpt lat="45.6144343" lon="10.550734"><ele>75.0</ele><time>2026-03-28T15:30:33.667Z</time></trkpt><trkpt lat="45.6144018" lon="10.5506083"><ele>74.33333333333333</ele><time>2026-03-28T15:30:34.665Z</time></trkpt><trkpt lat="45.6143753" lon="10.5504877"><ele>73.66666666666666</ele><time>2026-03-28T15:30:35.666Z</time></trkpt><trkpt lat="45.6143521" lon="10.5503718"><ele>73.0</ele><time>2026-03-28T15:30:36.674Z</time></trkpt><trkpt lat="45.6143308" lon="10.5502626"><ele>73.0</ele><time>2026-03-28T15:30:37.661Z</time></trkpt><trkpt lat="45.6143107" lon="10.5501615"><ele>73.0</ele><time>2026-03-28T15:30:38.667Z</time></trkpt><trkpt lat="45.6142937" lon="10.5500721"><ele>73.0</ele><time>2026-03-28T15:30:39.672Z</time></trkpt><trkpt lat="45.6142628" lon="10.5499021"><ele>73.0</ele><time>2026-03-28T15:30:41.668Z</time></trkpt><trkpt lat="45.6142374" lon="10.5497642"><ele>73.0</ele><time>2026-03-28T15:30:43.666Z</time></trkpt><trkpt lat="45.6142157" lon="10.5496357"><ele>73.0</ele><time>2026-03-28T15:30:45.66Z</time></trkpt><trkpt lat="45.6141904" lon="10.5494948"><ele>73.0</ele><time>2026-03-28T15:30:47.662Z</time></trkpt><trkpt lat="45.614169" lon="10.5493647"><ele>73.0</ele><time>2026-03-28T15:30:49.661Z</time></trkpt><trkpt lat="45.6141432" lon="10.5492185"><ele>73.0</ele><time>2026-03-28T15:30:51.659Z</time></trkpt><trkpt lat="45.6141257" lon="10.5491241"><ele>73.0</ele><time>2026-03-28T15:30:52.658Z</time></trkpt><trkpt lat="45.6141072" lon="10.5490104"><ele>73.0</ele><time>2026-03-28T15:30:53.663Z</time></trkpt><trkpt lat="45.6140874" lon="10.548893"><ele>73.0</ele><time>2026-03-28T15:30:54.655Z</time></trkpt><trkpt lat="45.6140691" lon="10.5487885"><ele>73.0</ele><time>2026-03-28T15:30:55.671Z</time></trkpt><trkpt lat="45.6140519" lon="10.5486987"><ele>73.0</ele><time>2026-03-28T15:30:56.662Z</time></trkpt><trkpt lat="45.6140177" lon="10.5485271"><ele>73.0</ele><time>2026-03-28T15:30:58.666Z</time></trkpt><trkpt lat="45.6139997" lon="10.5484292"><ele>73.0</ele><time>2026-03-28T15:30:59.667Z</time></trkpt><trkpt lat="45.6139792" lon="10.5483232"><ele>73.4</ele><time>2026-03-28T15:31:00.664Z</time></trkpt><trkpt lat="45.6139607" lon="10.5482089"><ele>73.8</ele><time>2026-03-28T15:31:01.67Z</time></trkpt><trkpt lat="45.6139436" lon="10.5480844"><ele>74.2</ele><time>2026-03-28T15:31:02.654Z</time></trkpt><trkpt lat="45.6139208" lon="10.5479429"><ele>74.6</ele><time>2026-03-28T15:31:03.66Z</time></trkpt><trkpt lat="45.6138947" lon="10.5477894"><ele>75.0</ele><time>2026-03-28T15:31:04.666Z</time></trkpt><trkpt lat="45.6138682" lon="10.5476488"><ele>75.8</ele><time>2026-03-28T15:31:05.676Z</time></trkpt><trkpt lat="45.613841" lon="10.5475001"><ele>76.6</ele><time>2026-03-28T15:31:06.664Z</time></trkpt><trkpt lat="45.6138161" lon="10.5473638"><ele>77.4</ele><time>2026-03-28T15:31:07.684Z</time></trkpt><trkpt lat="45.6137866" lon="10.5472129"><ele>78.2</ele><time>2026-03-28T15:31:08.664Z</time></trkpt><trkpt lat="45.613759" lon="10.5470649"><ele>79.0</ele><time>2026-03-28T15:31:09.67Z</time></trkpt><trkpt lat="45.6137279" lon="10.5469122"><ele>79.5</ele><time>2026-03-28T15:31:10.659Z</time></trkpt><trkpt lat="45.6136912" lon="10.5467436"><ele>80.0</ele><time>2026-03-28T15:31:11.663Z</time></trkpt><trkpt lat="45.6136539" lon="10.5465754"><ele>80.5</ele><time>2026-03-28T15:31:12.659Z</time></trkpt><trkpt lat="45.613616" lon="10.5464051"><ele>81.0</ele><time>2026-03-28T15:31:13.654Z</time></trkpt><trkpt lat="45.6135779" lon="10.5462373"><ele>79.75</ele><time>2026-03-28T15:31:14.655Z</time></trkpt><trkpt lat="45.6135416" lon="10.5460749"><ele>78.5</ele><time>2026-03-28T15:31:15.651Z</time></trkpt><trkpt lat="45.6135072" lon="10.5459158"><ele>77.25</ele><time>2026-03-28T15:31:16.659Z</time></trkpt><trkpt lat="45.6134728" lon="10.5457587"><ele>76.0</ele><time>2026-03-28T15:31:17.651Z</time></trkpt><trkpt lat="45.613438" lon="10.5456027"><ele>76.0</ele><time>2026-03-28T15:31:18.652Z</time></trkpt><trkpt lat="45.6134013" lon="10.5454477"><ele>76.0</ele><time>2026-03-28T15:31:19.645Z</time></trkpt><trkpt lat="45.6133571" lon="10.5452972"><ele>76.0</ele><time>2026-03-28T15:31:20.647Z</time></trkpt><trkpt lat="45.6133046" lon="10.5451412"><ele>76.0</ele><time>2026-03-28T15:31:21.648Z</time></trkpt><trkpt lat="45.6132489" lon="10.5449886"><ele>78.25</ele><time>2026-03-28T15:31:22.644Z</time></trkpt><trkpt lat="45.6131932" lon="10.5448402"><ele>80.5</ele><time>2026-03-28T15:31:23.65Z</time></trkpt><trkpt lat="45.6131364" lon="10.5446909"><ele>82.75</ele><time>2026-03-28T15:31:24.642Z</time></trkpt><trkpt lat="45.6130804" lon="10.5445435"><ele>85.0</ele><time>2026-03-28T15:31:25.64Z</time></trkpt><trkpt lat="45.6130241" lon="10.5444003"><ele>88.75</ele><time>2026-03-28T15:31:26.647Z</time></trkpt><trkpt lat="45.6129708" lon="10.54426"><ele>92.5</ele><time>2026-03-28T15:31:27.648Z</time></trkpt><trkpt lat="45.6129202" lon="10.5441232"><ele>96.25</ele><time>2026-03-28T15:31:28.663Z</time></trkpt><trkpt lat="45.6128721" lon="10.5439765"><ele>100.0</ele><time>2026-03-28T15:31:29.654Z</time></trkpt><trkpt lat="45.6128281" lon="10.543814"><ele>93.5</ele><time>2026-03-28T15:31:30.657Z</time></trkpt><trkpt lat="45.6127894" lon="10.5436385"><ele>87.0</ele><time>2026-03-28T15:31:31.638Z</time></trkpt><trkpt lat="45.6127589" lon="10.5434741"><ele>80.5</ele><time>2026-03-28T15:31:32.638Z</time></trkpt><trkpt lat="45.612733" lon="10.54331"><ele>74.0</ele><time>2026-03-28T15:31:33.642Z</time></trkpt><trkpt lat="45.6127067" lon="10.5431457"><ele>74.0</ele><time>2026-03-28T15:31:34.639Z</time></trkpt><trkpt lat="45.6126804" lon="10.5429835"><ele>74.0</ele><time>2026-03-28T15:31:35.658Z</time></trkpt><trkpt lat="45.6126491" lon="10.5428169"><ele>74.0</ele><time>2026-03-28T15:31:36.662Z</time></trkpt><trkpt lat="45.6126109" lon="10.542647"><ele>74.0</ele><time>2026-03-28T15:31:37.658Z</time></trkpt><trkpt lat="45.6125666" lon="10.5424747"><ele>75.25</ele><time>2026-03-28T15:31:38.683Z</time></trkpt><trkpt lat="45.6125159" lon="10.5423043"><ele>76.5</ele><time>2026-03-28T15:31:39.669Z</time></trkpt><trkpt lat="45.6124644" lon="10.5421441"><ele>77.75</ele><time>2026-03-28T15:31:40.666Z</time></trkpt><trkpt lat="45.6124127" lon="10.5419905"><ele>79.0</ele><time>2026-03-28T15:31:41.662Z</time></trkpt><trkpt lat="45.6123606" lon="10.5418443"><ele>80.2</ele><time>2026-03-28T15:31:42.665Z</time></trkpt><trkpt lat="45.6123084" lon="10.541703"><ele>81.4</ele><time>2026-03-28T15:31:43.664Z</time></trkpt><trkpt lat="45.6122563" lon="10.5415649"><ele>82.6</ele><time>2026-03-28T15:31:44.668Z</time></trkpt><trkpt lat="45.6122033" lon="10.5414255"><ele>83.8</ele><time>2026-03-28T15:31:45.66Z</time></trkpt><trkpt lat="45.6121503" lon="10.5412857"><ele>85.0</ele><time>2026-03-28T15:31:46.657Z</time></trkpt><trkpt lat="45.6120973" lon="10.5411488"><ele>83.0</ele><time>2026-03-28T15:31:47.659Z</time></trkpt><trkpt lat="45.6120428" lon="10.5410158"><ele>81.0</ele><time>2026-03-28T15:31:48.665Z</time></trkpt><trkpt lat="45.6119883" lon="10.540877"><ele>79.0</ele><time>2026-03-28T15:31:49.657Z</time></trkpt><trkpt lat="45.6119337" lon="10.540729"><ele>77.0</ele><time>2026-03-28T15:31:50.663Z</time></trkpt><trkpt lat="45.6118789" lon="10.5405798"><ele>77.0</ele><time>2026-03-28T15:31:51.661Z</time></trkpt><trkpt lat="45.6118235" lon="10.5404278"><ele>77.0</ele><time>2026-03-28T15:31:52.661Z</time></trkpt><trkpt lat="45.6117705" lon="10.540277"><ele>77.0</ele><time>2026-03-28T15:31:53.662Z</time></trkpt><trkpt lat="45.6117157" lon="10.5401228"><ele>77.0</ele><time>2026-03-28T15:31:54.665Z</time></trkpt><trkpt lat="45.6116623" lon="10.5399711"><ele>79.25</ele><time>2026-03-28T15:31:55.663Z</time></trkpt><trkpt lat="45.611611" lon="10.5398214"><ele>81.5</ele><time>2026-03-28T15:31:56.667Z</time></trkpt><trkpt lat="45.61156" lon="10.5396724"><ele>83.75</ele><time>2026-03-28T15:31:57.67Z</time></trkpt><trkpt lat="45.6115083" lon="10.5395204"><ele>86.0</ele><time>2026-03-28T15:31:58.666Z</time></trkpt><trkpt lat="45.611455" lon="10.5393665"><ele>87.75</ele><time>2026-03-28T15:31:59.661Z</time></trkpt><trkpt lat="45.6114" lon="10.5392086"><ele>89.5</ele><time>2026-03-28T15:32:00.672Z</time></trkpt><trkpt lat="45.611341" lon="10.5390481"><ele>91.25</ele><time>2026-03-28T15:32:01.665Z</time></trkpt><trkpt lat="45.6112801" lon="10.5388876"><ele>93.0</ele><time>2026-03-28T15:32:02.667Z</time></trkpt><trkpt lat="45.6112172" lon="10.5387244"><ele>90.75</ele><time>2026-03-28T15:32:03.668Z</time></trkpt><trkpt lat="45.6111536" lon="10.5385604"><ele>88.5</ele><time>2026-03-28T15:32:04.668Z</time></trkpt><trkpt lat="45.6110911" lon="10.5384002"><ele>86.25</ele><time>2026-03-28T15:32:05.666Z</time></trkpt><trkpt lat="45.611031" lon="10.5382452"><ele>84.0</ele><time>2026-03-28T15:32:06.66Z</time></trkpt><trkpt lat="45.610975" lon="10.5380956"><ele>84.0</ele><time>2026-03-28T15:32:07.661Z</time></trkpt><trkpt lat="45.6109233" lon="10.5379447"><ele>84.0</ele><time>2026-03-28T15:32:08.652Z</time></trkpt><trkpt lat="45.6108819" lon="10.5377881"><ele>84.0</ele><time>2026-03-28T15:32:09.667Z</time></trkpt><trkpt lat="45.6108387" lon="10.5376306"><ele>84.0</ele><time>2026-03-28T15:32:10.654Z</time></trkpt><trkpt lat="45.610807" lon="10.5374692"><ele>85.80000000000001</ele><time>2026-03-28T15:32:11.656Z</time></trkpt><trkpt lat="45.6107744" lon="10.5373207"><ele>87.60000000000001</ele><time>2026-03-28T15:32:12.646Z</time></trkpt><trkpt lat="45.6107649" lon="10.5371704"><ele>89.4</ele><time>2026-03-28T15:32:13.645Z</time></trkpt><trkpt lat="45.6107687" lon="10.5370232"><ele>91.2</ele><time>2026-03-28T15:32:14.63Z</time></trkpt><trkpt lat="45.6107772" lon="10.5368707"><ele>93.0</ele><time>2026-03-28T15:32:15.622Z</time></trkpt><trkpt lat="45.6107758" lon="10.536723"><ele>95.25</ele><time>2026-03-28T15:32:16.626Z</time></trkpt><trkpt lat="45.6107542" lon="10.536579"><ele>97.5</ele><time>2026-03-28T15:32:17.629Z</time></trkpt><trkpt lat="45.6107047" lon="10.5364233"><ele>99.75</ele><time>2026-03-28T15:32:18.645Z</time></trkpt><trkpt lat="45.610634" lon="10.5362644"><ele>102.0</ele><time>2026-03-28T15:32:19.654Z</time></trkpt><trkpt lat="45.6105546" lon="10.536098"><ele>105.75</ele><time>2026-03-28T15:32:20.637Z</time></trkpt><trkpt lat="45.6104808" lon="10.5359561"><ele>109.5</ele><time>2026-03-28T15:32:21.635Z</time></trkpt><trkpt lat="45.6104119" lon="10.5358195"><ele>113.25</ele><time>2026-03-28T15:32:22.639Z</time></trkpt><trkpt lat="45.6103415" lon="10.5356775"><ele>117.0</ele><time>2026-03-28T15:32:23.634Z</time></trkpt><trkpt lat="45.6102814" lon="10.535528"><ele>112.25</ele><time>2026-03-28T15:32:24.65Z</time></trkpt><trkpt lat="45.6102301" lon="10.5353771"><ele>107.5</ele><time>2026-03-28T15:32:25.655Z</time></trkpt><trkpt lat="45.610183" lon="10.5352227"><ele>102.75</ele><time>2026-03-28T15:32:26.629Z</time></trkpt><trkpt lat="45.6101292" lon="10.5350653"><ele>98.0</ele><time>2026-03-28T15:32:27.63Z</time></trkpt><trkpt lat="45.6100724" lon="10.5349148"><ele>98.0</ele><time>2026-03-28T15:32:28.639Z</time></trkpt><trkpt lat="45.610001" lon="10.5347786"><ele>98.0</ele><time>2026-03-28T15:32:29.632Z</time></trkpt><trkpt lat="45.6099218" lon="10.5346535"><ele>98.0</ele><time>2026-03-28T15:32:30.659Z</time></trkpt><trkpt lat="45.6098412" lon="10.5345353"><ele>98.0</ele><time>2026-03-28T15:32:31.658Z</time></trkpt><trkpt lat="45.6097628" lon="10.534419"><ele>101.60000000000001</ele><time>2026-03-28T15:32:32.647Z</time></trkpt><trkpt lat="45.609691" lon="10.5343013"><ele>105.2</ele><time>2026-03-28T15:32:33.646Z</time></trkpt><trkpt lat="45.6096287" lon="10.5341756"><ele>108.8</ele><time>2026-03-28T15:32:34.644Z</time></trkpt><trkpt lat="45.6095786" lon="10.5340391"><ele>112.4</ele><time>2026-03-28T15:32:35.622Z</time></trkpt><trkpt lat="45.6095355" lon="10.5338763"><ele>116.0</ele><time>2026-03-28T15:32:36.622Z</time></trkpt><trkpt lat="45.6095047" lon="10.5337024"><ele>111.5</ele><time>2026-03-28T15:32:37.628Z</time></trkpt><trkpt lat="45.6094796" lon="10.5335143"><ele>107.0</ele><time>2026-03-28T15:32:38.633Z</time></trkpt><trkpt lat="45.6094625" lon="10.5333366"><ele>102.5</ele><time>2026-03-28T15:32:39.658Z</time></trkpt><trkpt lat="45.6094585" lon="10.5331654"><ele>98.0</ele><time>2026-03-28T15:32:40.663Z</time></trkpt><trkpt lat="45.6094715" lon="10.5329896"><ele>104.0</ele><time>2026-03-28T15:32:41.654Z</time></trkpt><trkpt lat="45.6095051" lon="10.5328178"><ele>110.0</ele><time>2026-03-28T15:32:42.638Z</time></trkpt><trkpt lat="45.6095569" lon="10.532651"><ele>116.0</ele><time>2026-03-28T15:32:43.638Z</time></trkpt><trkpt lat="45.6096178" lon="10.5324989"><ele>122.0</ele><time>2026-03-28T15:32:44.634Z</time></trkpt><trkpt lat="45.6096679" lon="10.5323706"><ele>122.0</ele><time>2026-03-28T15:32:45.636Z</time></trkpt><trkpt lat="45.609725" lon="10.5322269"><ele>121.99999999999999</ele><time>2026-03-28T15:32:46.65Z</time></trkpt><trkpt lat="45.6097697" lon="10.5320799"><ele>121.99999999999999</ele><time>2026-03-28T15:32:47.638Z</time></trkpt><trkpt lat="45.6097961" lon="10.5319306"><ele>122.0</ele><time>2026-03-28T15:32:48.639Z</time></trkpt><trkpt lat="45.6098012" lon="10.5317827"><ele>122.0</ele><time>2026-03-28T15:32:49.633Z</time></trkpt><trkpt lat="45.6097799" lon="10.5316322"><ele>121.25</ele><time>2026-03-28T15:32:50.627Z</time></trkpt><trkpt lat="45.6097269" lon="10.5314742"><ele>120.5</ele><time>2026-03-28T15:32:51.634Z</time></trkpt><trkpt lat="45.6096453" lon="10.531316"><ele>119.75</ele><time>2026-03-28T15:32:52.648Z</time></trkpt><trkpt lat="45.6095566" lon="10.5311337"><ele>119.0</ele><time>2026-03-28T15:32:53.649Z</time></trkpt><trkpt lat="45.6094704" lon="10.5309586"><ele>118.0</ele><time>2026-03-28T15:32:54.646Z</time></trkpt><trkpt lat="45.6093961" lon="10.5307925"><ele>117.0</ele><time>2026-03-28T15:32:55.646Z</time></trkpt><trkpt lat="45.6093266" lon="10.5306325"><ele>116.0</ele><time>2026-03-28T15:32:56.657Z</time></trkpt><trkpt lat="45.6092602" lon="10.5304786"><ele>115.0</ele><time>2026-03-28T15:32:57.654Z</time></trkpt><trkpt lat="45.6092028" lon="10.5303351"><ele>115.0</ele><time>2026-03-28T15:32:58.651Z</time></trkpt><trkpt lat="45.6091489" lon="10.5302016"><ele>115.0</ele><time>2026-03-28T15:32:59.658Z</time></trkpt><trkpt lat="45.6090961" lon="10.5300616"><ele>115.0</ele><time>2026-03-28T15:33:00.654Z</time></trkpt><trkpt lat="45.6090388" lon="10.5299002"><ele>115.0</ele><time>2026-03-28T15:33:01.658Z</time></trkpt><trkpt lat="45.608993" lon="10.529742"><ele>115.0</ele><time>2026-03-28T15:33:02.65Z</time></trkpt><trkpt lat="45.6089569" lon="10.5295939"><ele>115.0</ele><time>2026-03-28T15:33:03.653Z</time></trkpt><trkpt lat="45.6089243" lon="10.5294522"><ele>115.0</ele><time>2026-03-28T15:33:04.651Z</time></trkpt><trkpt lat="45.6088986" lon="10.5293048"><ele>115.0</ele><time>2026-03-28T15:33:05.658Z</time></trkpt><trkpt lat="45.6088751" lon="10.5291468"><ele>115.0</ele><time>2026-03-28T15:33:06.669Z</time></trkpt><trkpt lat="45.6088561" lon="10.5289826"><ele>117.75</ele><time>2026-03-28T15:33:07.656Z</time></trkpt><trkpt lat="45.6088386" lon="10.5288161"><ele>120.5</ele><time>2026-03-28T15:33:08.665Z</time></trkpt><trkpt lat="45.6088219" lon="10.5286489"><ele>123.25</ele><time>2026-03-28T15:33:09.676Z</time></trkpt><trkpt lat="45.6088075" lon="10.5284815"><ele>126.0</ele><time>2026-03-28T15:33:10.663Z</time></trkpt><trkpt lat="45.6087922" lon="10.5283107"><ele>127.25</ele><time>2026-03-28T15:33:11.677Z</time></trkpt><trkpt lat="45.6087764" lon="10.5281414"><ele>128.5</ele><time>2026-03-28T15:33:12.666Z</time></trkpt><trkpt lat="45.6087599" lon="10.5279663"><ele>129.75</ele><time>2026-03-28T15:33:13.663Z</time></trkpt><trkpt lat="45.6087422" lon="10.5277858"><ele>131.0</ele><time>2026-03-28T15:33:14.658Z</time></trkpt><trkpt lat="45.6087242" lon="10.5276048"><ele>131.5</ele><time>2026-03-28T15:33:15.664Z</time></trkpt><trkpt lat="45.6087076" lon="10.5274284"><ele>132.0</ele><time>2026-03-28T15:33:16.674Z</time></trkpt><trkpt lat="45.608692" lon="10.5272461"><ele>132.5</ele><time>2026-03-28T15:33:17.661Z</time></trkpt><trkpt lat="45.6086766" lon="10.5270691"><ele>133.0</ele><time>2026-03-28T15:33:18.667Z</time></trkpt><trkpt lat="45.6086659" lon="10.5268963"><ele>125.5</ele><time>2026-03-28T15:33:19.657Z</time></trkpt><trkpt lat="45.608658" lon="10.5267232"><ele>118.0</ele><time>2026-03-28T15:33:20.658Z</time></trkpt><trkpt lat="45.6086518" lon="10.5265388"><ele>110.5</ele><time>2026-03-28T15:33:21.658Z</time></trkpt><trkpt lat="45.6086478" lon="10.5263643"><ele>103.0</ele><time>2026-03-28T15:33:22.664Z</time></trkpt><trkpt lat="45.6086457" lon="10.5261985"><ele>102.5</ele><time>2026-03-28T15:33:23.658Z</time></trkpt><trkpt lat="45.6086467" lon="10.5260269"><ele>102.0</ele><time>2026-03-28T15:33:24.663Z</time></trkpt><trkpt lat="45.6086492" lon="10.5258536"><ele>101.5</ele><time>2026-03-28T15:33:25.664Z</time></trkpt><trkpt lat="45.6086541" lon="10.5256758"><ele>101.0</ele><time>2026-03-28T15:33:26.67Z</time></trkpt><trkpt lat="45.6086618" lon="10.5254921"><ele>109.5</ele><time>2026-03-28T15:33:27.661Z</time></trkpt><trkpt lat="45.6086726" lon="10.5252975"><ele>118.0</ele><time>2026-03-28T15:33:28.672Z</time></trkpt><trkpt lat="45.6086844" lon="10.5250947"><ele>126.5</ele><time>2026-03-28T15:33:29.661Z</time></trkpt><trkpt lat="45.6086954" lon="10.5248907"><ele>135.0</ele><time>2026-03-28T15:33:30.659Z</time></trkpt><trkpt lat="45.6087088" lon="10.5246955"><ele>134.5</ele><time>2026-03-28T15:33:31.661Z</time></trkpt><trkpt lat="45.6087229" lon="10.5245035"><ele>134.0</ele><time>2026-03-28T15:33:32.655Z</time></trkpt><trkpt lat="45.6087345" lon="10.5243196"><ele>133.5</ele><time>2026-03-28T15:33:33.655Z</time></trkpt><trkpt lat="45.608745" lon="10.5241443"><ele>133.0</ele><time>2026-03-28T15:33:34.648Z</time></trkpt><trkpt lat="45.6087551" lon="10.5239633"><ele>133.0</ele><time>2026-03-28T15:33:35.637Z</time></trkpt><trkpt lat="45.6087626" lon="10.5237837"><ele>133.0</ele><time>2026-03-28T15:33:36.648Z</time></trkpt><trkpt lat="45.6087637" lon="10.5236087"><ele>133.0</ele><time>2026-03-28T15:33:37.632Z</time></trkpt><trkpt lat="45.6087544" lon="10.5234349"><ele>133.0</ele><time>2026-03-28T15:33:38.635Z</time></trkpt><trkpt lat="45.608732" lon="10.5232519"><ele>132.25</ele><time>2026-03-28T15:33:39.637Z</time></trkpt><trkpt lat="45.6086994" lon="10.5230768"><ele>131.5</ele><time>2026-03-28T15:33:40.641Z</time></trkpt><trkpt lat="45.6086617" lon="10.5229118"><ele>130.75</ele><time>2026-03-28T15:33:41.641Z</time></trkpt><trkpt lat="45.608621" lon="10.5227501"><ele>130.0</ele><time>2026-03-28T15:33:42.655Z</time></trkpt><trkpt lat="45.6085869" lon="10.5225988"><ele>124.6</ele><time>2026-03-28T15:33:43.664Z</time></trkpt><trkpt lat="45.6085616" lon="10.5224496"><ele>119.2</ele><time>2026-03-28T15:33:44.655Z</time></trkpt><trkpt lat="45.6085535" lon="10.5223021"><ele>113.80000000000001</ele><time>2026-03-28T15:33:45.648Z</time></trkpt><trkpt lat="45.608561" lon="10.5221572"><ele>108.4</ele><time>2026-03-28T15:33:46.657Z</time></trkpt><trkpt lat="45.6085811" lon="10.5220106"><ele>103.0</ele><time>2026-03-28T15:33:47.646Z</time></trkpt><trkpt lat="45.6086187" lon="10.5218664"><ele>105.5</ele><time>2026-03-28T15:33:48.645Z</time></trkpt><trkpt lat="45.6086735" lon="10.5217331"><ele>108.0</ele><time>2026-03-28T15:33:49.662Z</time></trkpt><trkpt lat="45.6087391" lon="10.5216044"><ele>110.5</ele><time>2026-03-28T15:33:50.663Z</time></trkpt><trkpt lat="45.6088134" lon="10.521478"><ele>113.0</ele><time>2026-03-28T15:33:51.632Z</time></trkpt><trkpt lat="45.6089018" lon="10.5213414"><ele>111.25</ele><time>2026-03-28T15:33:52.643Z</time></trkpt><trkpt lat="45.6089939" lon="10.5212059"><ele>109.5</ele><time>2026-03-28T15:33:53.642Z</time></trkpt><trkpt lat="45.609086" lon="10.5210696"><ele>107.75</ele><time>2026-03-28T15:33:54.645Z</time></trkpt><trkpt lat="45.6091787" lon="10.5209328"><ele>106.0</ele><time>2026-03-28T15:33:55.655Z</time></trkpt><trkpt lat="45.6092734" lon="10.5207991"><ele>106.0</ele><time>2026-03-28T15:33:56.669Z</time></trkpt><trkpt lat="45.6093673" lon="10.520668"><ele>106.0</ele><time>2026-03-28T15:33:57.659Z</time></trkpt><trkpt lat="45.6094629" lon="10.5205327"><ele>106.0</ele><time>2026-03-28T15:33:58.669Z</time></trkpt><trkpt lat="45.6095601" lon="10.5203925"><ele>106.0</ele><time>2026-03-28T15:33:59.656Z</time></trkpt><trkpt lat="45.6096559" lon="10.5202475"><ele>107.25</ele><time>2026-03-28T15:34:00.656Z</time></trkpt><trkpt lat="45.6097487" lon="10.5200965"><ele>108.5</ele><time>2026-03-28T15:34:01.66Z</time></trkpt><trkpt lat="45.6098408" lon="10.5199312"><ele>109.75</ele><time>2026-03-28T15:34:02.667Z</time></trkpt><trkpt lat="45.6099315" lon="10.519757"><ele>111.0</ele><time>2026-03-28T15:34:03.666Z</time></trkpt><trkpt lat="45.6100154" lon="10.5195795"><ele>110.0</ele><time>2026-03-28T15:34:04.675Z</time></trkpt><trkpt lat="45.6100938" lon="10.5193958"><ele>109.0</ele><time>2026-03-28T15:34:05.664Z</time></trkpt><trkpt lat="45.6101637" lon="10.5192019"><ele>108.0</ele><time>2026-03-28T15:34:06.673Z</time></trkpt><trkpt lat="45.6102262" lon="10.5189939"><ele>108.0</ele><time>2026-03-28T15:34:07.665Z</time></trkpt><trkpt lat="45.6102827" lon="10.51877"><ele>108.0</ele><time>2026-03-28T15:34:08.667Z</time></trkpt><trkpt lat="45.6103339" lon="10.5185534"><ele>108.0</ele><time>2026-03-28T15:34:09.663Z</time></trkpt><trkpt lat="45.6103785" lon="10.5183408"><ele>110.5</ele><time>2026-03-28T15:34:10.663Z</time></trkpt><trkpt lat="45.6104172" lon="10.5181412"><ele>113.0</ele><time>2026-03-28T15:34:11.661Z</time></trkpt><trkpt lat="45.6104563" lon="10.5179506"><ele>115.5</ele><time>2026-03-28T15:34:12.67Z</time></trkpt><trkpt lat="45.610501" lon="10.5177586"><ele>118.0</ele><time>2026-03-28T15:34:13.674Z</time></trkpt><trkpt lat="45.6105455" lon="10.5175597"><ele>118.5</ele><time>2026-03-28T15:34:14.663Z</time></trkpt><trkpt lat="45.6105876" lon="10.5173631"><ele>119.0</ele><time>2026-03-28T15:34:15.668Z</time></trkpt><trkpt lat="45.6106293" lon="10.5171617"><ele>119.5</ele><time>2026-03-28T15:34:16.676Z</time></trkpt><trkpt lat="45.6106699" lon="10.5169681"><ele>120.0</ele><time>2026-03-28T15:34:17.666Z</time></trkpt><trkpt lat="45.6107113" lon="10.5167719"><ele>118.66666666666666</ele><time>2026-03-28T15:34:18.678Z</time></trkpt><trkpt lat="45.6107541" lon="10.5165683"><ele>117.33333333333333</ele><time>2026-03-28T15:34:19.66Z</time></trkpt><trkpt lat="45.6107975" lon="10.5163615"><ele>116.0</ele><time>2026-03-28T15:34:20.664Z</time></trkpt><trkpt lat="45.6108414" lon="10.5161533"><ele>115.0</ele><time>2026-03-28T15:34:21.659Z</time></trkpt><trkpt lat="45.6108845" lon="10.5159589"><ele>114.0</ele><time>2026-03-28T15:34:22.664Z</time></trkpt><trkpt lat="45.6109274" lon="10.5157778"><ele>113.0</ele><time>2026-03-28T15:34:23.658Z</time></trkpt><trkpt lat="45.6109653" lon="10.5156187"><ele>112.0</ele><time>2026-03-28T15:34:24.659Z</time></trkpt><trkpt lat="45.6109963" lon="10.5154758"><ele>111.39999999999999</ele><time>2026-03-28T15:34:25.66Z</time></trkpt><trkpt lat="45.6110271" lon="10.5153439"><ele>110.79999999999998</ele><time>2026-03-28T15:34:26.667Z</time></trkpt><trkpt lat="45.611053" lon="10.5152364"><ele>110.2</ele><time>2026-03-28T15:34:27.652Z</time></trkpt><trkpt lat="45.6110858" lon="10.5151065"><ele>109.6</ele><time>2026-03-28T15:34:28.659Z</time></trkpt><trkpt lat="45.6111193" lon="10.5149587"><ele>109.0</ele><time>2026-03-28T15:34:29.65Z</time></trkpt><trkpt lat="45.611156" lon="10.5147898"><ele>112.33333333333334</ele><time>2026-03-28T15:34:30.656Z</time></trkpt><trkpt lat="45.6112016" lon="10.5145886"><ele>115.66666666666666</ele><time>2026-03-28T15:34:31.669Z</time></trkpt><trkpt lat="45.611251" lon="10.5143596"><ele>119.0</ele><time>2026-03-28T15:34:32.666Z</time></trkpt><trkpt lat="45.6112987" lon="10.5141471"><ele>119.0</ele><time>2026-03-28T15:34:33.673Z</time></trkpt><trkpt lat="45.6113503" lon="10.5139287"><ele>119.0</ele><time>2026-03-28T15:34:34.671Z</time></trkpt><trkpt lat="45.6114023" lon="10.5137047"><ele>119.0</ele><time>2026-03-28T15:34:35.668Z</time></trkpt><trkpt lat="45.6114484" lon="10.5134866"><ele>118.0</ele><time>2026-03-28T15:34:36.675Z</time></trkpt><trkpt lat="45.6114946" lon="10.5132631"><ele>117.0</ele><time>2026-03-28T15:34:37.666Z</time></trkpt><trkpt lat="45.6115423" lon="10.5130529"><ele>116.0</ele><time>2026-03-28T15:34:38.671Z</time></trkpt><trkpt lat="45.6115897" lon="10.5128477"><ele>115.75</ele><time>2026-03-28T15:34:39.668Z</time></trkpt><trkpt lat="45.6116351" lon="10.5126404"><ele>115.5</ele><time>2026-03-28T15:34:40.66Z</time></trkpt><trkpt lat="45.6116773" lon="10.5124383"><ele>115.25</ele><time>2026-03-28T15:34:41.663Z</time></trkpt><trkpt lat="45.611718" lon="10.5122407"><ele>115.0</ele><time>2026-03-28T15:34:42.656Z</time></trkpt><trkpt lat="45.6117547" lon="10.5120625"><ele>114.25</ele><time>2026-03-28T15:34:43.671Z</time></trkpt><trkpt lat="45.6117929" lon="10.5118848"><ele>113.5</ele><time>2026-03-28T15:34:44.679Z</time></trkpt><trkpt lat="45.611831" lon="10.5117148"><ele>112.75</ele><time>2026-03-28T15:34:45.669Z</time></trkpt><trkpt lat="45.6118634" lon="10.5115581"><ele>112.0</ele><time>2026-03-28T15:34:46.679Z</time></trkpt><trkpt lat="45.6118894" lon="10.511407"><ele>112.00000000000001</ele><time>2026-03-28T15:34:47.666Z</time></trkpt><trkpt lat="45.6119091" lon="10.5112713"><ele>112.0</ele><time>2026-03-28T15:34:48.677Z</time></trkpt><trkpt lat="45.6119211" lon="10.5111482"><ele>112.0</ele><time>2026-03-28T15:34:49.667Z</time></trkpt><trkpt lat="45.6119341" lon="10.511028"><ele>112.0</ele><time>2026-03-28T15:34:50.664Z</time></trkpt><trkpt lat="45.6119443" lon="10.5109224"><ele>112.00000000000001</ele><time>2026-03-28T15:34:51.665Z</time></trkpt><trkpt lat="45.6119547" lon="10.5108181"><ele>112.0</ele><time>2026-03-28T15:34:52.666Z</time></trkpt><trkpt lat="45.6119726" lon="10.5107075"><ele>112.00000000000001</ele><time>2026-03-28T15:34:54.663Z</time></trkpt><trkpt lat="45.611994" lon="10.5106095"><ele>112.0</ele><time>2026-03-28T15:34:59.669Z</time></trkpt><trkpt lat="45.6120214" lon="10.5104831"><ele>112.0</ele><time>2026-03-28T15:35:02.657Z</time></trkpt><trkpt lat="45.6120473" lon="10.5103297"><ele>112.0</ele><time>2026-03-28T15:35:04.645Z</time></trkpt><trkpt lat="45.6120388" lon="10.5102252"><ele>112.00000000000001</ele><time>2026-03-28T15:35:05.64Z</time></trkpt><trkpt lat="45.6120158" lon="10.5101332"><ele>112.0</ele><time>2026-03-28T15:35:06.647Z</time></trkpt><trkpt lat="45.6119829" lon="10.5100389"><ele>112.00000000000001</ele><time>2026-03-28T15:35:07.662Z</time></trkpt><trkpt lat="45.6119339" lon="10.5099559"><ele>112.0</ele><time>2026-03-28T15:35:08.662Z</time></trkpt><trkpt lat="45.6118858" lon="10.5098661"><ele>112.0</ele><time>2026-03-28T15:35:09.663Z</time></trkpt><trkpt lat="45.6118374" lon="10.5097588"><ele>112.0</ele><time>2026-03-28T15:35:10.659Z</time></trkpt><trkpt lat="45.6117903" lon="10.5096418"><ele>112.00000000000001</ele><time>2026-03-28T15:35:11.642Z</time></trkpt><trkpt lat="45.6117492" lon="10.5095236"><ele>112.0</ele><time>2026-03-28T15:35:12.645Z</time></trkpt><trkpt lat="45.6117035" lon="10.509385"><ele>113.25</ele><time>2026-03-28T15:35:13.632Z</time></trkpt><trkpt lat="45.6116493" lon="10.509234"><ele>114.5</ele><time>2026-03-28T15:35:14.643Z</time></trkpt><trkpt lat="45.6115871" lon="10.5090768"><ele>115.75</ele><time>2026-03-28T15:35:15.668Z</time></trkpt><trkpt lat="45.6115246" lon="10.5089295"><ele>117.0</ele><time>2026-03-28T15:35:16.669Z</time></trkpt><trkpt lat="45.6114668" lon="10.5087946"><ele>118.19999999999999</ele><time>2026-03-28T15:35:17.659Z</time></trkpt><trkpt lat="45.611412" lon="10.508663"><ele>119.39999999999999</ele><time>2026-03-28T15:35:18.665Z</time></trkpt><trkpt lat="45.611362" lon="10.5085407"><ele>120.60000000000001</ele><time>2026-03-28T15:35:19.663Z</time></trkpt><trkpt lat="45.611319" lon="10.5084333"><ele>121.80000000000001</ele><time>2026-03-28T15:35:20.659Z</time></trkpt><trkpt lat="45.6112787" lon="10.508334"><ele>123.0</ele><time>2026-03-28T15:35:21.664Z</time></trkpt><trkpt lat="45.6112386" lon="10.5082386"><ele>123.0</ele><time>2026-03-28T15:35:22.67Z</time></trkpt><trkpt lat="45.6111969" lon="10.5081413"><ele>123.0</ele><time>2026-03-28T15:35:23.666Z</time></trkpt><trkpt lat="45.6111537" lon="10.5080367"><ele>123.0</ele><time>2026-03-28T15:35:24.674Z</time></trkpt><trkpt lat="45.6111109" lon="10.5079274"><ele>123.0</ele><time>2026-03-28T15:35:25.663Z</time></trkpt><trkpt lat="45.6110629" lon="10.5078113"><ele>123.0</ele><time>2026-03-28T15:35:26.674Z</time></trkpt><trkpt lat="45.6110135" lon="10.5076942"><ele>123.0</ele><time>2026-03-28T15:35:27.664Z</time></trkpt><trkpt lat="45.6109604" lon="10.5075704"><ele>124.0</ele><time>2026-03-28T15:35:28.671Z</time></trkpt><trkpt lat="45.6109044" lon="10.5074369"><ele>125.0</ele><time>2026-03-28T15:35:29.664Z</time></trkpt><trkpt lat="45.6108459" lon="10.5072928"><ele>126.0</ele><time>2026-03-28T15:35:30.661Z</time></trkpt><trkpt lat="45.6107862" lon="10.5071451"><ele>127.0</ele><time>2026-03-28T15:35:31.665Z</time></trkpt><trkpt lat="45.610729" lon="10.507001"><ele>127.0</ele><time>2026-03-28T15:35:32.654Z</time></trkpt><trkpt lat="45.610676" lon="10.5068615"><ele>126.99999999999999</ele><time>2026-03-28T15:35:33.653Z</time></trkpt><trkpt lat="45.6106243" lon="10.5067187"><ele>126.99999999999999</ele><time>2026-03-28T15:35:34.657Z</time></trkpt><trkpt lat="45.6105779" lon="10.5065743"><ele>127.0</ele><time>2026-03-28T15:35:35.652Z</time></trkpt><trkpt lat="45.6105363" lon="10.5064255"><ele>127.0</ele><time>2026-03-28T15:35:36.669Z</time></trkpt><trkpt lat="45.6105019" lon="10.5062717"><ele>130.0</ele><time>2026-03-28T15:35:37.649Z</time></trkpt><trkpt lat="45.6104748" lon="10.5061173"><ele>133.0</ele><time>2026-03-28T15:35:38.646Z</time></trkpt><trkpt lat="45.6104541" lon="10.5059618"><ele>136.0</ele><time>2026-03-28T15:35:39.634Z</time></trkpt><trkpt lat="45.6104377" lon="10.5057986"><ele>139.0</ele><time>2026-03-28T15:35:40.637Z</time></trkpt><trkpt lat="45.6104268" lon="10.5056329"><ele>139.0</ele><time>2026-03-28T15:35:41.634Z</time></trkpt><trkpt lat="45.610425" lon="10.50546"><ele>139.0</ele><time>2026-03-28T15:35:42.644Z</time></trkpt><trkpt lat="45.6104348" lon="10.5052743"><ele>139.0</ele><time>2026-03-28T15:35:43.663Z</time></trkpt><trkpt lat="45.6104521" lon="10.5050835"><ele>139.0</ele><time>2026-03-28T15:35:44.663Z</time></trkpt><trkpt lat="45.6104738" lon="10.5048916"><ele>139.5</ele><time>2026-03-28T15:35:45.666Z</time></trkpt><trkpt lat="45.6104973" lon="10.504698"><ele>140.0</ele><time>2026-03-28T15:35:46.688Z</time></trkpt><trkpt lat="45.6105238" lon="10.504502"><ele>140.5</ele><time>2026-03-28T15:35:47.67Z</time></trkpt><trkpt lat="45.6105517" lon="10.5043045"><ele>141.0</ele><time>2026-03-28T15:35:48.668Z</time></trkpt><trkpt lat="45.6105768" lon="10.5041121"><ele>137.75</ele><time>2026-03-28T15:35:49.675Z</time></trkpt><trkpt lat="45.6105998" lon="10.5039276"><ele>134.5</ele><time>2026-03-28T15:35:50.672Z</time></trkpt><trkpt lat="45.610623" lon="10.5037507"><ele>131.25</ele><time>2026-03-28T15:35:51.688Z</time></trkpt><trkpt lat="45.6106453" lon="10.503571"><ele>128.0</ele><time>2026-03-28T15:35:52.68Z</time></trkpt><trkpt lat="45.6106696" lon="10.503384"><ele>127.25</ele><time>2026-03-28T15:35:53.681Z</time></trkpt><trkpt lat="45.6106987" lon="10.5031825"><ele>126.5</ele><time>2026-03-28T15:35:54.677Z</time></trkpt><trkpt lat="45.6107266" lon="10.5029845"><ele>125.75</ele><time>2026-03-28T15:35:55.68Z</time></trkpt><trkpt lat="45.6107557" lon="10.5027829"><ele>125.0</ele><time>2026-03-28T15:35:56.687Z</time></trkpt><trkpt lat="45.6107838" lon="10.5025802"><ele>125.0</ele><time>2026-03-28T15:35:57.674Z</time></trkpt><trkpt lat="45.6108049" lon="10.5023824"><ele>125.0</ele><time>2026-03-28T15:35:58.671Z</time></trkpt><trkpt lat="45.6108152" lon="10.502196"><ele>125.0</ele><time>2026-03-28T15:35:59.664Z</time></trkpt><trkpt lat="45.6108084" lon="10.5020328"><ele>125.0</ele><time>2026-03-28T15:36:00.653Z</time></trkpt><trkpt lat="45.6107956" lon="10.5018717"><ele>126.83333333333333</ele><time>2026-03-28T15:36:01.656Z</time></trkpt><trkpt lat="45.6107824" lon="10.5017194"><ele>128.66666666666666</ele><time>2026-03-28T15:36:02.651Z</time></trkpt><trkpt lat="45.6107699" lon="10.5015859"><ele>130.5</ele><time>2026-03-28T15:36:03.646Z</time></trkpt><trkpt lat="45.6107618" lon="10.501478"><ele>132.33333333333334</ele><time>2026-03-28T15:36:04.671Z</time></trkpt><trkpt lat="45.6107593" lon="10.5013776"><ele>134.16666666666669</ele><time>2026-03-28T15:36:05.668Z</time></trkpt><trkpt lat="45.6107615" lon="10.5012676"><ele>136.0</ele><time>2026-03-28T15:36:06.679Z</time></trkpt><trkpt lat="45.6107654" lon="10.5011437"><ele>136.57142857142856</ele><time>2026-03-28T15:36:08.646Z</time></trkpt><trkpt lat="45.6107774" lon="10.5010166"><ele>137.14285714285714</ele><time>2026-03-28T15:36:11.664Z</time></trkpt><trkpt lat="45.6107897" lon="10.5009061"><ele>137.71428571428572</ele><time>2026-03-28T15:36:13.662Z</time></trkpt><trkpt lat="45.6107838" lon="10.5008164"><ele>138.28571428571428</ele><time>2026-03-28T15:36:14.66Z</time></trkpt><trkpt lat="45.6107631" lon="10.5007189"><ele>138.85714285714286</ele><time>2026-03-28T15:36:15.642Z</time></trkpt><trkpt lat="45.6107285" lon="10.5006222"><ele>139.42857142857142</ele><time>2026-03-28T15:36:16.655Z</time></trkpt><trkpt lat="45.6106773" lon="10.5005531"><ele>140.0</ele><time>2026-03-28T15:36:17.653Z</time></trkpt><trkpt lat="45.6106174" lon="10.5005024"><ele>140.0</ele><time>2026-03-28T15:36:18.638Z</time></trkpt><trkpt lat="45.6105514" lon="10.5004966"><ele>140.0</ele><time>2026-03-28T15:36:19.656Z</time></trkpt><trkpt lat="45.6104885" lon="10.5005301"><ele>140.0</ele><time>2026-03-28T15:36:20.662Z</time></trkpt><trkpt lat="45.610429" lon="10.5005969"><ele>140.0</ele><time>2026-03-28T15:36:21.642Z</time></trkpt><trkpt lat="45.6103657" lon="10.5006802"><ele>140.0</ele><time>2026-03-28T15:36:22.65Z</time></trkpt><trkpt lat="45.6103031" lon="10.5007509"><ele>140.0</ele><time>2026-03-28T15:36:23.645Z</time></trkpt><trkpt lat="45.610244" lon="10.5008042"><ele>140.0</ele><time>2026-03-28T15:36:24.642Z</time></trkpt><trkpt lat="45.6101843" lon="10.5008435"><ele>138.25</ele><time>2026-03-28T15:36:25.659Z</time></trkpt><trkpt lat="45.6100627" lon="10.5008735"><ele>136.5</ele><time>2026-03-28T15:36:27.647Z</time></trkpt><trkpt lat="45.6099183" lon="10.500848"><ele>134.75</ele><time>2026-03-28T15:36:29.647Z</time></trkpt><trkpt lat="45.6098273" lon="10.5008223"><ele>133.0</ele><time>2026-03-28T15:36:30.655Z</time></trkpt><trkpt lat="45.6097312" lon="10.5007876"><ele>133.0</ele><time>2026-03-28T15:36:31.672Z</time></trkpt><trkpt lat="45.609634" lon="10.5007472"><ele>133.0</ele><time>2026-03-28T15:36:32.675Z</time></trkpt><trkpt lat="45.6095322" lon="10.500701"><ele>133.0</ele><time>2026-03-28T15:36:33.677Z</time></trkpt><trkpt lat="45.6094266" lon="10.5006505"><ele>133.0</ele><time>2026-03-28T15:36:34.673Z</time></trkpt><trkpt lat="45.6093147" lon="10.5005994"><ele>133.0</ele><time>2026-03-28T15:36:35.683Z</time></trkpt><trkpt lat="45.6091974" lon="10.5005533"><ele>128.75</ele><time>2026-03-28T15:36:36.687Z</time></trkpt><trkpt lat="45.6090759" lon="10.5005061"><ele>124.5</ele><time>2026-03-28T15:36:37.669Z</time></trkpt><trkpt lat="45.6089509" lon="10.500468"><ele>120.25</ele><time>2026-03-28T15:36:38.668Z</time></trkpt><trkpt lat="45.6088143" lon="10.5004442"><ele>116.0</ele><time>2026-03-28T15:36:39.669Z</time></trkpt><trkpt lat="45.6086661" lon="10.5004348"><ele>119.33333333333333</ele><time>2026-03-28T15:36:40.652Z</time></trkpt><trkpt lat="45.6085063" lon="10.5004403"><ele>122.66666666666666</ele><time>2026-03-28T15:36:41.654Z</time></trkpt><trkpt lat="45.6083408" lon="10.5004629"><ele>126.0</ele><time>2026-03-28T15:36:42.654Z</time></trkpt><trkpt lat="45.6081726" lon="10.500506"><ele>126.0</ele><time>2026-03-28T15:36:43.652Z</time></trkpt><trkpt lat="45.6079967" lon="10.5005666"><ele>126.0</ele><time>2026-03-28T15:36:44.643Z</time></trkpt><trkpt lat="45.607824" lon="10.5006386"><ele>126.0</ele><time>2026-03-28T15:36:45.631Z</time></trkpt><trkpt lat="45.607655" lon="10.5007302"><ele>129.33333333333334</ele><time>2026-03-28T15:36:46.599Z</time></trkpt><trkpt lat="45.6074896" lon="10.5008372"><ele>132.66666666666669</ele><time>2026-03-28T15:36:47.578Z</time></trkpt><trkpt lat="45.6073294" lon="10.5009587"><ele>136.0</ele><time>2026-03-28T15:36:48.578Z</time></trkpt><trkpt lat="45.6071796" lon="10.5010929"><ele>136.0</ele><time>2026-03-28T15:36:49.539Z</time></trkpt><trkpt lat="45.6070346" lon="10.501236"><ele>136.0</ele><time>2026-03-28T15:36:50.525Z</time></trkpt><trkpt lat="45.6068998" lon="10.5013894"><ele>136.0</ele><time>2026-03-28T15:36:51.516Z</time></trkpt><trkpt lat="45.6067831" lon="10.5015582"><ele>133.0</ele><time>2026-03-28T15:36:52.516Z</time></trkpt><trkpt lat="45.6066744" lon="10.5017514"><ele>130.0</ele><time>2026-03-28T15:36:53.516Z</time></trkpt><trkpt lat="45.6065782" lon="10.5019614"><ele>127.0</ele><time>2026-03-28T15:36:54.515Z</time></trkpt><trkpt lat="45.6064942" lon="10.502184"><ele>124.66666666666667</ele><time>2026-03-28T15:36:55.515Z</time></trkpt><trkpt lat="45.6064246" lon="10.5024118"><ele>122.33333333333334</ele><time>2026-03-28T15:36:56.518Z</time></trkpt><trkpt lat="45.6063766" lon="10.5026325"><ele>120.0</ele><time>2026-03-28T15:36:57.564Z</time></trkpt><trkpt lat="45.6063477" lon="10.50285"><ele>118.0</ele><time>2026-03-28T15:36:58.589Z</time></trkpt><trkpt lat="45.6063433" lon="10.5030524"><ele>116.0</ele><time>2026-03-28T15:36:59.588Z</time></trkpt><trkpt lat="45.6063659" lon="10.5032211"><ele>114.0</ele><time>2026-03-28T15:37:00.604Z</time></trkpt><trkpt lat="45.6063968" lon="10.5033801"><ele>112.0</ele><time>2026-03-28T15:37:01.639Z</time></trkpt><trkpt lat="45.6064313" lon="10.503526"><ele>112.0</ele><time>2026-03-28T15:37:02.648Z</time></trkpt><trkpt lat="45.6064673" lon="10.5036408"><ele>111.99999999999999</ele><time>2026-03-28T15:37:03.645Z</time></trkpt><trkpt lat="45.6064837" lon="10.5038575"><ele>111.99999999999999</ele><time>2026-03-28T15:37:04.643Z</time></trkpt><trkpt lat="45.6065143" lon="10.5039713"><ele>112.0</ele><time>2026-03-28T15:37:05.638Z</time></trkpt><trkpt lat="45.6064546" lon="10.5040195"><ele>112.0</ele><time>2026-03-28T15:37:06.66Z</time></trkpt><trkpt lat="45.6064613" lon="10.5041978"><ele>111.00000000000001</ele><time>2026-03-28T15:37:08.663Z</time></trkpt><trkpt lat="45.606453" lon="10.5042985"><ele>110.0</ele><time>2026-03-28T15:37:09.655Z</time></trkpt><trkpt lat="45.6064219" lon="10.5044011"><ele>109.0</ele><time>2026-03-28T15:37:10.646Z</time></trkpt><trkpt lat="45.6063722" lon="10.504505"><ele>108.0</ele><time>2026-03-28T15:37:11.653Z</time></trkpt><trkpt lat="45.6063203" lon="10.5046161"><ele>107.00000000000001</ele><time>2026-03-28T15:37:12.65Z</time></trkpt><trkpt lat="45.606241" lon="10.5047261"><ele>106.0</ele><time>2026-03-28T15:37:13.668Z</time></trkpt><trkpt lat="45.6061458" lon="10.5048313"><ele>105.5</ele><time>2026-03-28T15:37:14.675Z</time></trkpt><trkpt lat="45.6060448" lon="10.5049222"><ele>105.0</ele><time>2026-03-28T15:37:15.655Z</time></trkpt><trkpt lat="45.6059361" lon="10.5049993"><ele>104.5</ele><time>2026-03-28T15:37:16.676Z</time></trkpt><trkpt lat="45.605829" lon="10.5050725"><ele>104.0</ele><time>2026-03-28T15:37:17.656Z</time></trkpt><trkpt lat="45.6057298" lon="10.5051412"><ele>104.0</ele><time>2026-03-28T15:37:18.655Z</time></trkpt><trkpt lat="45.6056327" lon="10.5052035"><ele>104.0</ele><time>2026-03-28T15:37:19.685Z</time></trkpt><trkpt lat="45.6055331" lon="10.5052645"><ele>104.0</ele><time>2026-03-28T15:37:20.672Z</time></trkpt><trkpt lat="45.6054296" lon="10.505328"><ele>104.0</ele><time>2026-03-28T15:37:21.671Z</time></trkpt><trkpt lat="45.6053234" lon="10.5053899"><ele>104.0</ele><time>2026-03-28T15:37:22.676Z</time></trkpt><trkpt lat="45.6052207" lon="10.5054492"><ele>105.0</ele><time>2026-03-28T15:37:23.689Z</time></trkpt><trkpt lat="45.6051158" lon="10.5055107"><ele>106.0</ele><time>2026-03-28T15:37:24.679Z</time></trkpt><trkpt lat="45.6050164" lon="10.5055718"><ele>107.0</ele><time>2026-03-28T15:37:25.676Z</time></trkpt><trkpt lat="45.6049178" lon="10.5056325"><ele>108.0</ele><time>2026-03-28T15:37:26.685Z</time></trkpt><trkpt lat="45.6048206" lon="10.5056897"><ele>109.0</ele><time>2026-03-28T15:37:27.671Z</time></trkpt><trkpt lat="45.6047259" lon="10.5057465"><ele>109.0</ele><time>2026-03-28T15:37:28.688Z</time></trkpt><trkpt lat="45.6046336" lon="10.5058059"><ele>109.0</ele><time>2026-03-28T15:37:29.67Z</time></trkpt><trkpt lat="45.6045439" lon="10.5058619"><ele>109.0</ele><time>2026-03-28T15:37:30.675Z</time></trkpt><trkpt lat="45.6044454" lon="10.5059203"><ele>109.0</ele><time>2026-03-28T15:37:31.682Z</time></trkpt><trkpt lat="45.6043439" lon="10.5059863"><ele>109.0</ele><time>2026-03-28T15:37:32.673Z</time></trkpt><trkpt lat="45.6042312" lon="10.5060556"><ele>108.5</ele><time>2026-03-28T15:37:33.675Z</time></trkpt><trkpt lat="45.6041114" lon="10.5061335"><ele>108.0</ele><time>2026-03-28T15:37:34.674Z</time></trkpt><trkpt lat="45.6039925" lon="10.5062089"><ele>107.5</ele><time>2026-03-28T15:37:35.675Z</time></trkpt><trkpt lat="45.6038766" lon="10.5062805"><ele>107.0</ele><time>2026-03-28T15:37:36.685Z</time></trkpt><trkpt lat="45.6037673" lon="10.5063505"><ele>107.49999999999999</ele><time>2026-03-28T15:37:37.678Z</time></trkpt><trkpt lat="45.6036628" lon="10.5064134"><ele>108.0</ele><time>2026-03-28T15:37:38.677Z</time></trkpt><trkpt lat="45.6035691" lon="10.5064707"><ele>108.5</ele><time>2026-03-28T15:37:39.684Z</time></trkpt><trkpt lat="45.6034927" lon="10.50652"><ele>109.0</ele><time>2026-03-28T15:37:40.677Z</time></trkpt><trkpt lat="45.6034337" lon="10.5065552"><ele>109.49999999999999</ele><time>2026-03-28T15:37:41.679Z</time></trkpt><trkpt lat="45.6033669" lon="10.5065988"><ele>110.0</ele><time>2026-03-28T15:37:42.673Z</time></trkpt><trkpt lat="45.6033018" lon="10.5066359"><ele>110.0</ele><time>2026-03-28T15:37:43.672Z</time></trkpt><trkpt lat="45.603206" lon="10.5066935"><ele>110.0</ele><time>2026-03-28T15:37:45.676Z</time></trkpt><trkpt lat="45.6030892" lon="10.5067591"><ele>110.0</ele><time>2026-03-28T15:37:47.687Z</time></trkpt><trkpt lat="45.6030193" lon="10.5068004"><ele>110.0</ele><time>2026-03-28T15:37:48.679Z</time></trkpt><trkpt lat="45.6029451" lon="10.5068442"><ele>110.0</ele><time>2026-03-28T15:37:49.672Z</time></trkpt><trkpt lat="45.6028711" lon="10.5068912"><ele>110.66666666666666</ele><time>2026-03-28T15:37:50.697Z</time></trkpt><trkpt lat="45.6028011" lon="10.5069375"><ele>111.33333333333333</ele><time>2026-03-28T15:37:51.683Z</time></trkpt><trkpt lat="45.6027237" lon="10.5069943"><ele>112.0</ele><time>2026-03-28T15:37:52.68Z</time></trkpt><trkpt lat="45.6026546" lon="10.5070426"><ele>112.66666666666666</ele><time>2026-03-28T15:37:53.685Z</time></trkpt><trkpt lat="45.6025849" lon="10.5070902"><ele>113.33333333333333</ele><time>2026-03-28T15:37:54.687Z</time></trkpt><trkpt lat="45.6025146" lon="10.5071397"><ele>114.0</ele><time>2026-03-28T15:37:55.675Z</time></trkpt><trkpt lat="45.6024325" lon="10.507197"><ele>114.0</ele><time>2026-03-28T15:37:56.687Z</time></trkpt><trkpt lat="45.6023417" lon="10.5072643"><ele>114.0</ele><time>2026-03-28T15:37:57.682Z</time></trkpt><trkpt lat="45.6022398" lon="10.5073416"><ele>114.0</ele><time>2026-03-28T15:37:58.689Z</time></trkpt><trkpt lat="45.6021326" lon="10.5074236"><ele>114.0</ele><time>2026-03-28T15:37:59.685Z</time></trkpt><trkpt lat="45.6020149" lon="10.5075107"><ele>115.5</ele><time>2026-03-28T15:38:00.686Z</time></trkpt><trkpt lat="45.6018923" lon="10.5075999"><ele>117.0</ele><time>2026-03-28T15:38:01.676Z</time></trkpt><trkpt lat="45.6017721" lon="10.5076885"><ele>118.5</ele><time>2026-03-28T15:38:02.676Z</time></trkpt><trkpt lat="45.6016632" lon="10.507767"><ele>120.0</ele><time>2026-03-28T15:38:03.674Z</time></trkpt><trkpt lat="45.6015545" lon="10.5078421"><ele>118.25</ele><time>2026-03-28T15:38:04.674Z</time></trkpt><trkpt lat="45.6014435" lon="10.5079144"><ele>116.5</ele><time>2026-03-28T15:38:05.672Z</time></trkpt><trkpt lat="45.6013274" lon="10.5079799"><ele>114.75</ele><time>2026-03-28T15:38:06.684Z</time></trkpt><trkpt lat="45.6012073" lon="10.5080361"><ele>113.0</ele><time>2026-03-28T15:38:07.674Z</time></trkpt><trkpt lat="45.601081" lon="10.5080747"><ele>113.0</ele><time>2026-03-28T15:38:08.654Z</time></trkpt><trkpt lat="45.6009532" lon="10.508096"><ele>113.0</ele><time>2026-03-28T15:38:09.659Z</time></trkpt><trkpt lat="45.6008242" lon="10.5080973"><ele>113.0</ele><time>2026-03-28T15:38:10.659Z</time></trkpt><trkpt lat="45.6006955" lon="10.5080782"><ele>113.0</ele><time>2026-03-28T15:38:11.651Z</time></trkpt><trkpt lat="45.6005691" lon="10.5080404"><ele>113.0</ele><time>2026-03-28T15:38:12.677Z</time></trkpt><trkpt lat="45.6004407" lon="10.5079851"><ele>113.0</ele><time>2026-03-28T15:38:13.672Z</time></trkpt><trkpt lat="45.6003139" lon="10.507918"><ele>113.0</ele><time>2026-03-28T15:38:14.663Z</time></trkpt><trkpt lat="45.600196" lon="10.5078463"><ele>113.0</ele><time>2026-03-28T15:38:15.655Z</time></trkpt><trkpt lat="45.6000827" lon="10.5077744"><ele>115.5</ele><time>2026-03-28T15:38:16.661Z</time></trkpt><trkpt lat="45.5999737" lon="10.5077098"><ele>118.0</ele><time>2026-03-28T15:38:17.655Z</time></trkpt><trkpt lat="45.5998593" lon="10.507652"><ele>120.5</ele><time>2026-03-28T15:38:18.672Z</time></trkpt><trkpt lat="45.5997392" lon="10.5075974"><ele>123.0</ele><time>2026-03-28T15:38:19.667Z</time></trkpt><trkpt lat="45.5996115" lon="10.5075623"><ele>124.25</ele><time>2026-03-28T15:38:20.654Z</time></trkpt><trkpt lat="45.5994787" lon="10.5075515"><ele>125.5</ele><time>2026-03-28T15:38:21.661Z</time></trkpt><trkpt lat="45.5993472" lon="10.5075694"><ele>126.75</ele><time>2026-03-28T15:38:22.65Z</time></trkpt><trkpt lat="45.5992083" lon="10.5076095"><ele>128.0</ele><time>2026-03-28T15:38:23.655Z</time></trkpt><trkpt lat="45.5990691" lon="10.5076584"><ele>128.0</ele><time>2026-03-28T15:38:24.671Z</time></trkpt><trkpt lat="45.598941" lon="10.5077086"><ele>128.0</ele><time>2026-03-28T15:38:25.668Z</time></trkpt><trkpt lat="45.5988187" lon="10.5077577"><ele>128.0</ele><time>2026-03-28T15:38:26.685Z</time></trkpt><trkpt lat="45.598695" lon="10.507803"><ele>128.0</ele><time>2026-03-28T15:38:27.672Z</time></trkpt><trkpt lat="45.5985653" lon="10.5078485"><ele>128.75</ele><time>2026-03-28T15:38:28.679Z</time></trkpt><trkpt lat="45.5984363" lon="10.5078952"><ele>129.5</ele><time>2026-03-28T15:38:29.679Z</time></trkpt><trkpt lat="45.598306" lon="10.5079433"><ele>130.25</ele><time>2026-03-28T15:38:30.674Z</time></trkpt><trkpt lat="45.598178" lon="10.5079901"><ele>131.0</ele><time>2026-03-28T15:38:31.685Z</time></trkpt><trkpt lat="45.5980546" lon="10.5080373"><ele>129.25</ele><time>2026-03-28T15:38:32.676Z</time></trkpt><trkpt lat="45.597935" lon="10.5080803"><ele>127.5</ele><time>2026-03-28T15:38:33.666Z</time></trkpt><trkpt lat="45.5978176" lon="10.5081193"><ele>125.75</ele><time>2026-03-28T15:38:34.661Z</time></trkpt><trkpt lat="45.5976971" lon="10.5081604"><ele>124.0</ele><time>2026-03-28T15:38:35.663Z</time></trkpt><trkpt lat="45.5975748" lon="10.5082024"><ele>124.0</ele><time>2026-03-28T15:38:36.681Z</time></trkpt><trkpt lat="45.5974502" lon="10.5082415"><ele>124.0</ele><time>2026-03-28T15:38:37.672Z</time></trkpt><trkpt lat="45.5973221" lon="10.5082784"><ele>124.0</ele><time>2026-03-28T15:38:38.677Z</time></trkpt><trkpt lat="45.597193" lon="10.5083138"><ele>124.0</ele><time>2026-03-28T15:38:39.683Z</time></trkpt><trkpt lat="45.597062" lon="10.5083497"><ele>124.25</ele><time>2026-03-28T15:38:40.671Z</time></trkpt><trkpt lat="45.5969318" lon="10.5083883"><ele>124.5</ele><time>2026-03-28T15:38:41.678Z</time></trkpt><trkpt lat="45.5968008" lon="10.5084293"><ele>124.75</ele><time>2026-03-28T15:38:42.678Z</time></trkpt><trkpt lat="45.5966686" lon="10.508471"><ele>125.0</ele><time>2026-03-28T15:38:43.675Z</time></trkpt><trkpt lat="45.5965342" lon="10.5085151"><ele>125.0</ele><time>2026-03-28T15:38:44.679Z</time></trkpt><trkpt lat="45.5964032" lon="10.5085649"><ele>125.0</ele><time>2026-03-28T15:38:45.672Z</time></trkpt><trkpt lat="45.5962812" lon="10.508621"><ele>125.0</ele><time>2026-03-28T15:38:46.686Z</time></trkpt><trkpt lat="45.5961586" lon="10.5087001"><ele>125.0</ele><time>2026-03-28T15:38:47.671Z</time></trkpt><trkpt lat="45.5960359" lon="10.5088002"><ele>126.5</ele><time>2026-03-28T15:38:48.651Z</time></trkpt><trkpt lat="45.5959313" lon="10.5089118"><ele>128.0</ele><time>2026-03-28T15:38:49.646Z</time></trkpt><trkpt lat="45.5958395" lon="10.509036"><ele>129.5</ele><time>2026-03-28T15:38:50.649Z</time></trkpt><trkpt lat="45.5957615" lon="10.5091733"><ele>131.0</ele><time>2026-03-28T15:38:51.65Z</time></trkpt><trkpt lat="45.5956911" lon="10.5093272"><ele>131.0</ele><time>2026-03-28T15:38:52.705Z</time></trkpt><trkpt lat="45.5956213" lon="10.5094914"><ele>131.0</ele><time>2026-03-28T15:38:53.677Z</time></trkpt><trkpt lat="45.5955505" lon="10.5096627"><ele>131.0</ele><time>2026-03-28T15:38:54.679Z</time></trkpt><trkpt lat="45.5954777" lon="10.5098438"><ele>131.0</ele><time>2026-03-28T15:38:55.673Z</time></trkpt><trkpt lat="45.5954062" lon="10.510026"><ele>131.5</ele><time>2026-03-28T15:38:56.687Z</time></trkpt><trkpt lat="45.5953316" lon="10.5102076"><ele>132.0</ele><time>2026-03-28T15:38:57.68Z</time></trkpt><trkpt lat="45.595252" lon="10.5103867"><ele>132.5</ele><time>2026-03-28T15:38:58.671Z</time></trkpt><trkpt lat="45.5951674" lon="10.5105521"><ele>133.0</ele><time>2026-03-28T15:38:59.668Z</time></trkpt><trkpt lat="45.5950751" lon="10.5107049"><ele>133.0</ele><time>2026-03-28T15:39:00.675Z</time></trkpt><trkpt lat="45.5949753" lon="10.5108466"><ele>133.0</ele><time>2026-03-28T15:39:01.647Z</time></trkpt><trkpt lat="45.5948671" lon="10.5109695"><ele>133.0</ele><time>2026-03-28T15:39:02.644Z</time></trkpt><trkpt lat="45.594746" lon="10.5110789"><ele>133.0</ele><time>2026-03-28T15:39:03.645Z</time></trkpt><trkpt lat="45.5946168" lon="10.5111751"><ele>133.25</ele><time>2026-03-28T15:39:04.643Z</time></trkpt><trkpt lat="45.5944812" lon="10.5112612"><ele>133.5</ele><time>2026-03-28T15:39:05.674Z</time></trkpt><trkpt lat="45.5943439" lon="10.5113392"><ele>133.75</ele><time>2026-03-28T15:39:06.671Z</time></trkpt><trkpt lat="45.5942053" lon="10.5114146"><ele>134.0</ele><time>2026-03-28T15:39:07.668Z</time></trkpt><trkpt lat="45.5940643" lon="10.5114884"><ele>134.0</ele><time>2026-03-28T15:39:08.671Z</time></trkpt><trkpt lat="45.5939242" lon="10.5115626"><ele>134.0</ele><time>2026-03-28T15:39:09.681Z</time></trkpt><trkpt lat="45.5937864" lon="10.511636"><ele>134.0</ele><time>2026-03-28T15:39:10.666Z</time></trkpt><trkpt lat="45.5936558" lon="10.5117154"><ele>134.0</ele><time>2026-03-28T15:39:11.671Z</time></trkpt><trkpt lat="45.5935341" lon="10.5118079"><ele>134.25</ele><time>2026-03-28T15:39:12.665Z</time></trkpt><trkpt lat="45.593421" lon="10.5119165"><ele>134.5</ele><time>2026-03-28T15:39:13.644Z</time></trkpt><trkpt lat="45.5933229" lon="10.5120481"><ele>134.75</ele><time>2026-03-28T15:39:14.649Z</time></trkpt><trkpt lat="45.5932409" lon="10.5122019"><ele>135.0</ele><time>2026-03-28T15:39:15.641Z</time></trkpt><trkpt lat="45.5931772" lon="10.5123733"><ele>135.0</ele><time>2026-03-28T15:39:16.645Z</time></trkpt><trkpt lat="45.5931365" lon="10.5125576"><ele>135.0</ele><time>2026-03-28T15:39:17.655Z</time></trkpt><trkpt lat="45.593112" lon="10.5127632"><ele>135.0</ele><time>2026-03-28T15:39:18.649Z</time></trkpt><trkpt lat="45.593108" lon="10.5129778"><ele>135.0</ele><time>2026-03-28T15:39:19.639Z</time></trkpt><trkpt lat="45.5931283" lon="10.5131936"><ele>135.5</ele><time>2026-03-28T15:39:20.638Z</time></trkpt><trkpt lat="45.5931684" lon="10.5134049"><ele>136.0</ele><time>2026-03-28T15:39:21.64Z</time></trkpt><trkpt lat="45.5932147" lon="10.5135978"><ele>136.5</ele><time>2026-03-28T15:39:22.654Z</time></trkpt><trkpt lat="45.5932597" lon="10.5137943"><ele>137.0</ele><time>2026-03-28T15:39:23.655Z</time></trkpt><trkpt lat="45.5933035" lon="10.5139988"><ele>138.75</ele><time>2026-03-28T15:39:24.656Z</time></trkpt><trkpt lat="45.5933482" lon="10.5142066"><ele>140.5</ele><time>2026-03-28T15:39:25.654Z</time></trkpt><trkpt lat="45.5933918" lon="10.5144033"><ele>142.25</ele><time>2026-03-28T15:39:26.661Z</time></trkpt><trkpt lat="45.5934361" lon="10.5146017"><ele>144.0</ele><time>2026-03-28T15:39:27.657Z</time></trkpt><trkpt lat="45.5934779" lon="10.5147951"><ele>145.5</ele><time>2026-03-28T15:39:28.66Z</time></trkpt><trkpt lat="45.5935169" lon="10.5149741"><ele>147.0</ele><time>2026-03-28T15:39:29.658Z</time></trkpt><trkpt lat="45.5935506" lon="10.5151355"><ele>148.5</ele><time>2026-03-28T15:39:30.655Z</time></trkpt><trkpt lat="45.5935813" lon="10.5153005"><ele>150.0</ele><time>2026-03-28T15:39:31.653Z</time></trkpt><trkpt lat="45.5936035" lon="10.5154674"><ele>150.8</ele><time>2026-03-28T15:39:32.655Z</time></trkpt><trkpt lat="45.5936189" lon="10.5156059"><ele>151.6</ele><time>2026-03-28T15:39:33.646Z</time></trkpt><trkpt lat="45.5936299" lon="10.5156997"><ele>152.4</ele><time>2026-03-28T15:39:35.633Z</time></trkpt><trkpt lat="45.5936289" lon="10.5159099"><ele>153.2</ele><time>2026-03-28T15:39:44.659Z</time></trkpt><trkpt lat="45.5936285" lon="10.5160206"><ele>154.0</ele><time>2026-03-28T15:39:45.642Z</time></trkpt><trkpt lat="45.5936154" lon="10.516138"><ele>153.2</ele><time>2026-03-28T15:39:46.644Z</time></trkpt><trkpt lat="45.5935948" lon="10.5162798"><ele>152.4</ele><time>2026-03-28T15:39:47.651Z</time></trkpt><trkpt lat="45.5935714" lon="10.5164204"><ele>151.6</ele><time>2026-03-28T15:39:48.649Z</time></trkpt><trkpt lat="45.5935485" lon="10.5165588"><ele>150.8</ele><time>2026-03-28T15:39:49.67Z</time></trkpt><trkpt lat="45.5935166" lon="10.5167143"><ele>150.0</ele><time>2026-03-28T15:39:50.672Z</time></trkpt><trkpt lat="45.5934809" lon="10.516879"><ele>150.0</ele><time>2026-03-28T15:39:51.668Z</time></trkpt><trkpt lat="45.5934468" lon="10.5170521"><ele>150.0</ele><time>2026-03-28T15:39:52.678Z</time></trkpt><trkpt lat="45.5934132" lon="10.5172298"><ele>150.0</ele><time>2026-03-28T15:39:53.684Z</time></trkpt><trkpt lat="45.5933792" lon="10.5174098"><ele>150.0</ele><time>2026-03-28T15:39:54.67Z</time></trkpt><trkpt lat="45.5933441" lon="10.5175944"><ele>148.75</ele><time>2026-03-28T15:39:55.68Z</time></trkpt><trkpt lat="45.5933076" lon="10.517785"><ele>147.5</ele><time>2026-03-28T15:39:56.668Z</time></trkpt><trkpt lat="45.593273" lon="10.5179651"><ele>146.25</ele><time>2026-03-28T15:39:57.67Z</time></trkpt><trkpt lat="45.5932376" lon="10.5181455"><ele>145.0</ele><time>2026-03-28T15:39:58.67Z</time></trkpt><trkpt lat="45.5932025" lon="10.5183303"><ele>144.75</ele><time>2026-03-28T15:39:59.67Z</time></trkpt><trkpt lat="45.593168" lon="10.518518"><ele>144.5</ele><time>2026-03-28T15:40:00.668Z</time></trkpt><trkpt lat="45.5931319" lon="10.5187133"><ele>144.25</ele><time>2026-03-28T15:40:01.669Z</time></trkpt><trkpt lat="45.5930952" lon="10.5189122"><ele>144.0</ele><time>2026-03-28T15:40:02.667Z</time></trkpt><trkpt lat="45.5930598" lon="10.5191136"><ele>144.5</ele><time>2026-03-28T15:40:03.667Z</time></trkpt><trkpt lat="45.5930244" lon="10.5193061"><ele>145.0</ele><time>2026-03-28T15:40:04.667Z</time></trkpt><trkpt lat="45.592987" lon="10.5194916"><ele>145.5</ele><time>2026-03-28T15:40:05.664Z</time></trkpt><trkpt lat="45.5929466" lon="10.5196758"><ele>146.0</ele><time>2026-03-28T15:40:06.662Z</time></trkpt><trkpt lat="45.5928997" lon="10.5198586"><ele>146.75</ele><time>2026-03-28T15:40:07.665Z</time></trkpt><trkpt lat="45.5928432" lon="10.5200458"><ele>147.5</ele><time>2026-03-28T15:40:08.666Z</time></trkpt><trkpt lat="45.5927769" lon="10.5202395"><ele>148.25</ele><time>2026-03-28T15:40:09.673Z</time></trkpt><trkpt lat="45.5927036" lon="10.5204283"><ele>149.0</ele><time>2026-03-28T15:40:10.664Z</time></trkpt><trkpt lat="45.592623" lon="10.5206155"><ele>152.33333333333331</ele><time>2026-03-28T15:40:11.667Z</time></trkpt><trkpt lat="45.5925369" lon="10.5207901"><ele>155.66666666666666</ele><time>2026-03-28T15:40:12.67Z</time></trkpt><trkpt lat="45.5924431" lon="10.5209667"><ele>159.0</ele><time>2026-03-28T15:40:13.643Z</time></trkpt><trkpt lat="45.5923547" lon="10.5211404"><ele>157.0</ele><time>2026-03-28T15:40:14.643Z</time></trkpt><trkpt lat="45.5922699" lon="10.5213144"><ele>155.0</ele><time>2026-03-28T15:40:15.641Z</time></trkpt><trkpt lat="45.5921804" lon="10.5214953"><ele>153.0</ele><time>2026-03-28T15:40:16.644Z</time></trkpt><trkpt lat="45.5920868" lon="10.521678"><ele>154.25</ele><time>2026-03-28T15:40:17.66Z</time></trkpt><trkpt lat="45.5919991" lon="10.5218456"><ele>155.5</ele><time>2026-03-28T15:40:18.658Z</time></trkpt><trkpt lat="45.5919203" lon="10.5219921"><ele>156.75</ele><time>2026-03-28T15:40:19.661Z</time></trkpt><trkpt lat="45.5918489" lon="10.522125"><ele>158.0</ele><time>2026-03-28T15:40:20.666Z</time></trkpt><trkpt lat="45.5917706" lon="10.5222556"><ele>158.0</ele><time>2026-03-28T15:40:21.665Z</time></trkpt><trkpt lat="45.5916957" lon="10.5223703"><ele>158.0</ele><time>2026-03-28T15:40:22.653Z</time></trkpt><trkpt lat="45.5916301" lon="10.5224572"><ele>158.0</ele><time>2026-03-28T15:40:23.662Z</time></trkpt><trkpt lat="45.5915691" lon="10.522528"><ele>158.0</ele><time>2026-03-28T15:40:24.682Z</time></trkpt><trkpt lat="45.5915106" lon="10.5225899"><ele>158.0</ele><time>2026-03-28T15:40:25.64Z</time></trkpt><trkpt lat="45.5914519" lon="10.5226418"><ele>158.0</ele><time>2026-03-28T15:40:26.642Z</time></trkpt><trkpt lat="45.5913742" lon="10.5226872"><ele>158.0</ele><time>2026-03-28T15:40:28.646Z</time></trkpt><trkpt lat="45.591278" lon="10.522691"><ele>158.0</ele><time>2026-03-28T15:40:30.665Z</time></trkpt><trkpt lat="45.5912121" lon="10.5227028"><ele>158.0</ele><time>2026-03-28T15:40:31.665Z</time></trkpt><trkpt lat="45.5910995" lon="10.5227737"><ele>158.0</ele><time>2026-03-28T15:40:33.644Z</time></trkpt><trkpt lat="45.5910481" lon="10.5228355"><ele>158.0</ele><time>2026-03-28T15:40:34.65Z</time></trkpt><trkpt lat="45.5909581" lon="10.5229486"><ele>157.83333333333331</ele><time>2026-03-28T15:40:36.641Z</time></trkpt><trkpt lat="45.5908977" lon="10.5229898"><ele>157.66666666666666</ele><time>2026-03-28T15:40:37.657Z</time></trkpt><trkpt lat="45.5908265" lon="10.5230073"><ele>157.5</ele><time>2026-03-28T15:40:38.662Z</time></trkpt><trkpt lat="45.5907556" lon="10.5229939"><ele>157.33333333333334</ele><time>2026-03-28T15:40:39.65Z</time></trkpt><trkpt lat="45.5906792" lon="10.5229713"><ele>157.16666666666669</ele><time>2026-03-28T15:40:40.646Z</time></trkpt><trkpt lat="45.590604" lon="10.5229292"><ele>157.0</ele><time>2026-03-28T15:40:41.649Z</time></trkpt><trkpt lat="45.5905196" lon="10.5228752"><ele>157.0</ele><time>2026-03-28T15:40:42.648Z</time></trkpt><trkpt lat="45.5904279" lon="10.5228144"><ele>157.0</ele><time>2026-03-28T15:40:43.671Z</time></trkpt><trkpt lat="45.5903274" lon="10.5227417"><ele>157.0</ele><time>2026-03-28T15:40:44.678Z</time></trkpt><trkpt lat="45.5902194" lon="10.5226605"><ele>157.0</ele><time>2026-03-28T15:40:45.676Z</time></trkpt><trkpt lat="45.5901053" lon="10.5225729"><ele>157.25</ele><time>2026-03-28T15:40:46.681Z</time></trkpt><trkpt lat="45.5899843" lon="10.5224782"><ele>157.5</ele><time>2026-03-28T15:40:47.68Z</time></trkpt><trkpt lat="45.5898635" lon="10.5223843"><ele>157.75</ele><time>2026-03-28T15:40:48.679Z</time></trkpt><trkpt lat="45.5897467" lon="10.5222975"><ele>158.0</ele><time>2026-03-28T15:40:49.679Z</time></trkpt><trkpt lat="45.5896274" lon="10.5222096"><ele>157.75</ele><time>2026-03-28T15:40:50.679Z</time></trkpt><trkpt lat="45.5895072" lon="10.5221198"><ele>157.5</ele><time>2026-03-28T15:40:51.673Z</time></trkpt><trkpt lat="45.5893839" lon="10.5220243"><ele>157.25</ele><time>2026-03-28T15:40:52.693Z</time></trkpt><trkpt lat="45.5892525" lon="10.5219206"><ele>157.0</ele><time>2026-03-28T15:40:53.677Z</time></trkpt><trkpt lat="45.5891167" lon="10.5218139"><ele>156.0</ele><time>2026-03-28T15:40:54.676Z</time></trkpt><trkpt lat="45.5889888" lon="10.5217148"><ele>155.0</ele><time>2026-03-28T15:40:55.686Z</time></trkpt><trkpt lat="45.5888727" lon="10.5216274"><ele>154.0</ele><time>2026-03-28T15:40:56.673Z</time></trkpt><trkpt lat="45.5887568" lon="10.5215419"><ele>153.0</ele><time>2026-03-28T15:40:57.677Z</time></trkpt><trkpt lat="45.5886393" lon="10.5214555"><ele>153.0</ele><time>2026-03-28T15:40:58.679Z</time></trkpt><trkpt lat="45.5885219" lon="10.5213648"><ele>153.0</ele><time>2026-03-28T15:40:59.68Z</time></trkpt><trkpt lat="45.5884025" lon="10.5212707"><ele>153.0</ele><time>2026-03-28T15:41:00.672Z</time></trkpt><trkpt lat="45.5882799" lon="10.5211744"><ele>153.0</ele><time>2026-03-28T15:41:01.674Z</time></trkpt><trkpt lat="45.5881618" lon="10.5210763"><ele>153.0</ele><time>2026-03-28T15:41:02.663Z</time></trkpt><trkpt lat="45.5880465" lon="10.5209704"><ele>153.0</ele><time>2026-03-28T15:41:03.666Z</time></trkpt><trkpt lat="45.5879408" lon="10.5208527"><ele>153.0</ele><time>2026-03-28T15:41:04.662Z</time></trkpt><trkpt lat="45.5878385" lon="10.520723"><ele>153.0</ele><time>2026-03-28T15:41:05.646Z</time></trkpt><trkpt lat="45.5877454" lon="10.5205822"><ele>152.75</ele><time>2026-03-28T15:41:06.658Z</time></trkpt><trkpt lat="45.5876652" lon="10.52043"><ele>152.5</ele><time>2026-03-28T15:41:07.652Z</time></trkpt><trkpt lat="45.5875945" lon="10.5202623"><ele>152.25</ele><time>2026-03-28T15:41:08.65Z</time></trkpt><trkpt lat="45.5875326" lon="10.52008"><ele>152.0</ele><time>2026-03-28T15:41:09.675Z</time></trkpt><trkpt lat="45.5874815" lon="10.5199092"><ele>151.79999999999998</ele><time>2026-03-28T15:41:10.663Z</time></trkpt><trkpt lat="45.5874361" lon="10.5197564"><ele>151.6</ele><time>2026-03-28T15:41:11.674Z</time></trkpt><trkpt lat="45.5873959" lon="10.5196258"><ele>151.39999999999998</ele><time>2026-03-28T15:41:12.68Z</time></trkpt><trkpt lat="45.5873499" lon="10.5194744"><ele>151.2</ele><time>2026-03-28T15:41:13.676Z</time></trkpt><trkpt lat="45.5873028" lon="10.5193265"><ele>151.0</ele><time>2026-03-28T15:41:14.672Z</time></trkpt><trkpt lat="45.5872613" lon="10.5191959"><ele>151.0</ele><time>2026-03-28T15:41:15.678Z</time></trkpt><trkpt lat="45.5872224" lon="10.5190784"><ele>151.0</ele><time>2026-03-28T15:41:16.676Z</time></trkpt><trkpt lat="45.5871842" lon="10.5189551"><ele>151.0</ele><time>2026-03-28T15:41:17.682Z</time></trkpt><trkpt lat="45.5871528" lon="10.518843"><ele>151.0</ele><time>2026-03-28T15:41:18.678Z</time></trkpt><trkpt lat="45.5871224" lon="10.5187335"><ele>151.0</ele><time>2026-03-28T15:41:19.683Z</time></trkpt><trkpt lat="45.5870933" lon="10.5186394"><ele>151.0</ele><time>2026-03-28T15:41:20.682Z</time></trkpt><trkpt lat="45.5870672" lon="10.5185509"><ele>151.4</ele><time>2026-03-28T15:41:21.677Z</time></trkpt><trkpt lat="45.5870202" lon="10.5184024"><ele>151.8</ele><time>2026-03-28T15:41:23.69Z</time></trkpt><trkpt lat="45.5869782" lon="10.5182466"><ele>152.20000000000002</ele><time>2026-03-28T15:41:25.685Z</time></trkpt><trkpt lat="45.5869487" lon="10.5181019"><ele>152.6</ele><time>2026-03-28T15:41:27.683Z</time></trkpt><trkpt lat="45.586922" lon="10.5179737"><ele>153.0</ele><time>2026-03-28T15:41:29.684Z</time></trkpt><trkpt lat="45.5869171" lon="10.5178584"><ele>153.66666666666666</ele><time>2026-03-28T15:41:31.694Z</time></trkpt><trkpt lat="45.5869336" lon="10.5177329"><ele>154.33333333333334</ele><time>2026-03-28T15:41:33.695Z</time></trkpt><trkpt lat="45.5869728" lon="10.5175915"><ele>155.0</ele><time>2026-03-28T15:41:35.658Z</time></trkpt><trkpt lat="45.5869735" lon="10.5174205"><ele>155.66666666666669</ele><time>2026-03-28T15:41:37.652Z</time></trkpt><trkpt lat="45.5869485" lon="10.5173355"><ele>156.33333333333334</ele><time>2026-03-28T15:41:38.669Z</time></trkpt><trkpt lat="45.5869023" lon="10.5172718"><ele>157.0</ele><time>2026-03-28T15:41:39.685Z</time></trkpt><trkpt lat="45.5868444" lon="10.5172308"><ele>157.0</ele><time>2026-03-28T15:41:40.649Z</time></trkpt><trkpt lat="45.5867375" lon="10.5172424"><ele>157.0</ele><time>2026-03-28T15:41:42.651Z</time></trkpt><trkpt lat="45.5866528" lon="10.5173493"><ele>157.0</ele><time>2026-03-28T15:41:44.672Z</time></trkpt><trkpt lat="45.586602" lon="10.517405"><ele>157.0</ele><time>2026-03-28T15:41:45.669Z</time></trkpt><trkpt lat="45.5865099" lon="10.5174831"><ele>157.0</ele><time>2026-03-28T15:41:47.65Z</time></trkpt><trkpt lat="45.5864325" lon="10.5174769"><ele>157.0</ele><time>2026-03-28T15:41:49.647Z</time></trkpt><trkpt lat="45.5862264" lon="10.517526"><ele>157.0</ele><time>2026-03-28T15:41:51.569Z</time></trkpt><trkpt lat="45.5861622" lon="10.5175597"><ele>157.0</ele><time>2026-03-28T15:41:52.572Z</time></trkpt><trkpt lat="45.5860997" lon="10.517594"><ele>157.0</ele><time>2026-03-28T15:41:54.586Z</time></trkpt><trkpt lat="45.5860496" lon="10.5176553"><ele>157.0</ele><time>2026-03-28T15:41:57.598Z</time></trkpt><trkpt lat="45.5860644" lon="10.5177638"><ele>157.0</ele><time>2026-03-28T15:42:00.594Z</time></trkpt><trkpt lat="45.5861223" lon="10.5178054"><ele>157.0</ele><time>2026-03-28T15:42:26.587Z</time></trkpt><trkpt lat="45.5862447" lon="10.5177521"><ele>157.0</ele><time>2026-03-28T15:42:28.595Z</time></trkpt><trkpt lat="45.5863334" lon="10.5176819"><ele>157.0</ele><time>2026-03-28T15:42:29.588Z</time></trkpt><trkpt lat="45.5864168" lon="10.5176116"><ele>157.0</ele><time>2026-03-28T15:42:30.592Z</time></trkpt><trkpt lat="45.5864875" lon="10.5175641"><ele>157.0</ele><time>2026-03-28T15:42:31.588Z</time></trkpt><trkpt lat="45.5865472" lon="10.5175127"><ele>157.0</ele><time>2026-03-28T15:42:32.588Z</time></trkpt><trkpt lat="45.5866351" lon="10.5174636"><ele>157.0</ele><time>2026-03-28T15:42:34.581Z</time></trkpt><trkpt lat="45.586696" lon="10.5175002"><ele>157.0</ele><time>2026-03-28T15:42:37.591Z</time></trkpt><trkpt lat="45.586779" lon="10.5175612"><ele>157.0</ele><time>2026-03-28T15:42:39.582Z</time></trkpt><trkpt lat="45.5868932" lon="10.5175615"><ele>157.0</ele><time>2026-03-28T15:42:41.574Z</time></trkpt><trkpt lat="45.5869514" lon="10.5175214"><ele>157.0</ele><time>2026-03-28T15:42:42.566Z</time></trkpt><trkpt lat="45.5870062" lon="10.5173953"><ele>157.0</ele><time>2026-03-28T15:42:44.566Z</time></trkpt><trkpt lat="45.5869676" lon="10.5172599"><ele>157.0</ele><time>2026-03-28T15:42:46.575Z</time></trkpt><trkpt lat="45.5868967" lon="10.5172144"><ele>157.0</ele><time>2026-03-28T15:42:47.563Z</time></trkpt><trkpt lat="45.5868083" lon="10.5171891"><ele>157.0</ele><time>2026-03-28T15:42:48.568Z</time></trkpt><trkpt lat="45.5867262" lon="10.5171672"><ele>157.0</ele><time>2026-03-28T15:42:49.563Z</time></trkpt><trkpt lat="45.5866578" lon="10.5171096"><ele>157.0</ele><time>2026-03-28T15:42:50.568Z</time></trkpt><trkpt lat="45.586606" lon="10.5170058"><ele>157.0</ele><time>2026-03-28T15:42:51.559Z</time></trkpt><trkpt lat="45.5865636" lon="10.5168811"><ele>157.0</ele><time>2026-03-28T15:42:52.565Z</time></trkpt><trkpt lat="45.5865175" lon="10.5167393"><ele>157.0</ele><time>2026-03-28T15:42:53.571Z</time></trkpt><trkpt lat="45.5864707" lon="10.5165994"><ele>157.25</ele><time>2026-03-28T15:42:54.576Z</time></trkpt><trkpt lat="45.5864223" lon="10.5164524"><ele>157.5</ele><time>2026-03-28T15:42:55.578Z</time></trkpt><trkpt lat="45.586366" lon="10.5163052"><ele>157.75</ele><time>2026-03-28T15:42:56.58Z</time></trkpt><trkpt lat="45.5862912" lon="10.5161583"><ele>158.0</ele><time>2026-03-28T15:42:57.574Z</time></trkpt><trkpt lat="45.5862068" lon="10.5160266"><ele>159.0</ele><time>2026-03-28T15:42:58.581Z</time></trkpt><trkpt lat="45.586099" lon="10.5159196"><ele>160.0</ele><time>2026-03-28T15:42:59.586Z</time></trkpt><trkpt lat="45.5859956" lon="10.5158458"><ele>161.0</ele><time>2026-03-28T15:43:00.577Z</time></trkpt><trkpt lat="45.5858969" lon="10.5157793"><ele>162.0</ele><time>2026-03-28T15:43:01.592Z</time></trkpt><trkpt lat="45.5857939" lon="10.5157185"><ele>162.0</ele><time>2026-03-28T15:43:02.581Z</time></trkpt><trkpt lat="45.5857098" lon="10.515661"><ele>162.0</ele><time>2026-03-28T15:43:03.587Z</time></trkpt><trkpt lat="45.5856269" lon="10.5156015"><ele>162.0</ele><time>2026-03-28T15:43:04.582Z</time></trkpt><trkpt lat="45.5855518" lon="10.5155286"><ele>162.0</ele><time>2026-03-28T15:43:05.579Z</time></trkpt><trkpt lat="45.5854864" lon="10.5154488"><ele>162.0</ele><time>2026-03-28T15:43:06.583Z</time></trkpt><trkpt lat="45.5854375" lon="10.5153875"><ele>162.0</ele><time>2026-03-28T15:43:07.583Z</time></trkpt><trkpt lat="45.5853507" lon="10.5153025"><ele>162.8</ele><time>2026-03-28T15:43:09.58Z</time></trkpt><trkpt lat="45.5852785" lon="10.5152938"><ele>163.6</ele><time>2026-03-28T15:43:10.601Z</time></trkpt><trkpt lat="45.5851927" lon="10.5153313"><ele>164.4</ele><time>2026-03-28T15:43:11.587Z</time></trkpt><trkpt lat="45.5850893" lon="10.5154134"><ele>165.20000000000002</ele><time>2026-03-28T15:43:12.582Z</time></trkpt><trkpt lat="45.5849623" lon="10.5154913"><ele>166.0</ele><time>2026-03-28T15:43:13.574Z</time></trkpt><trkpt lat="45.5848307" lon="10.5155434"><ele>166.66666666666669</ele><time>2026-03-28T15:43:14.568Z</time></trkpt><trkpt lat="45.5846803" lon="10.5155631"><ele>167.33333333333334</ele><time>2026-03-28T15:43:15.57Z</time></trkpt><trkpt lat="45.5845192" lon="10.5155906"><ele>168.0</ele><time>2026-03-28T15:43:16.581Z</time></trkpt><trkpt lat="45.5843449" lon="10.5156248"><ele>170.5</ele><time>2026-03-28T15:43:17.58Z</time></trkpt><trkpt lat="45.5841913" lon="10.5156513"><ele>173.0</ele><time>2026-03-28T15:43:18.581Z</time></trkpt><trkpt lat="45.5840517" lon="10.5156617"><ele>175.5</ele><time>2026-03-28T15:43:19.566Z</time></trkpt><trkpt lat="45.5839049" lon="10.515668"><ele>178.0</ele><time>2026-03-28T15:43:20.572Z</time></trkpt><trkpt lat="45.5837427" lon="10.5156475"><ele>178.33333333333334</ele><time>2026-03-28T15:43:21.579Z</time></trkpt><trkpt lat="45.5835883" lon="10.5156322"><ele>178.66666666666666</ele><time>2026-03-28T15:43:22.577Z</time></trkpt><trkpt lat="45.5834327" lon="10.5156196"><ele>179.0</ele><time>2026-03-28T15:43:23.579Z</time></trkpt><trkpt lat="45.5832791" lon="10.5156011"><ele>179.0</ele><time>2026-03-28T15:43:24.586Z</time></trkpt><trkpt lat="45.5831198" lon="10.5155905"><ele>179.0</ele><time>2026-03-28T15:43:25.583Z</time></trkpt><trkpt lat="45.5829588" lon="10.5155802"><ele>179.0</ele><time>2026-03-28T15:43:26.59Z</time></trkpt><trkpt lat="45.5827887" lon="10.5155877"><ele>178.66666666666666</ele><time>2026-03-28T15:43:27.584Z</time></trkpt><trkpt lat="45.5826294" lon="10.5155948"><ele>178.33333333333334</ele><time>2026-03-28T15:43:28.592Z</time></trkpt><trkpt lat="45.5824726" lon="10.5155938"><ele>178.0</ele><time>2026-03-28T15:43:29.587Z</time></trkpt><trkpt lat="45.5823044" lon="10.5155853"><ele>178.0</ele><time>2026-03-28T15:43:30.617Z</time></trkpt><trkpt lat="45.5821375" lon="10.5156003"><ele>178.0</ele><time>2026-03-28T15:43:31.591Z</time></trkpt><trkpt lat="45.5819625" lon="10.5156268"><ele>178.0</ele><time>2026-03-28T15:43:32.588Z</time></trkpt><trkpt lat="45.5818187" lon="10.5156705"><ele>178.25</ele><time>2026-03-28T15:43:33.583Z</time></trkpt><trkpt lat="45.5816705" lon="10.5156864"><ele>178.5</ele><time>2026-03-28T15:43:34.584Z</time></trkpt><trkpt lat="45.5815351" lon="10.5157161"><ele>178.75</ele><time>2026-03-28T15:43:35.584Z</time></trkpt><trkpt lat="45.5813872" lon="10.5157467"><ele>179.0</ele><time>2026-03-28T15:43:36.584Z</time></trkpt><trkpt lat="45.5812598" lon="10.515758"><ele>178.75</ele><time>2026-03-28T15:43:37.584Z</time></trkpt><trkpt lat="45.581129" lon="10.515752"><ele>178.5</ele><time>2026-03-28T15:43:38.583Z</time></trkpt><trkpt lat="45.5809853" lon="10.515746"><ele>178.25</ele><time>2026-03-28T15:43:39.584Z</time></trkpt><trkpt lat="45.5808371" lon="10.515705"><ele>178.0</ele><time>2026-03-28T15:43:40.576Z</time></trkpt><trkpt lat="45.5806843" lon="10.5156617"><ele>178.0</ele><time>2026-03-28T15:43:41.58Z</time></trkpt><trkpt lat="45.5805268" lon="10.5156049"><ele>178.0</ele><time>2026-03-28T15:43:42.577Z</time></trkpt><trkpt lat="45.5803653" lon="10.5155346"><ele>178.0</ele><time>2026-03-28T15:43:43.584Z</time></trkpt><trkpt lat="45.5801962" lon="10.5154888"><ele>179.0</ele><time>2026-03-28T15:43:44.588Z</time></trkpt><trkpt lat="45.5800291" lon="10.5154565"><ele>180.0</ele><time>2026-03-28T15:43:45.588Z</time></trkpt><trkpt lat="45.5798588" lon="10.5154346"><ele>181.0</ele><time>2026-03-28T15:43:46.593Z</time></trkpt><trkpt lat="45.5797005" lon="10.5153916"><ele>183.33333333333334</ele><time>2026-03-28T15:43:47.59Z</time></trkpt><trkpt lat="45.5795506" lon="10.5153528"><ele>185.66666666666666</ele><time>2026-03-28T15:43:48.581Z</time></trkpt><trkpt lat="45.5794031" lon="10.5153367"><ele>188.0</ele><time>2026-03-28T15:43:49.579Z</time></trkpt><trkpt lat="45.5792456" lon="10.5153286"><ele>188.0</ele><time>2026-03-28T15:43:50.586Z</time></trkpt><trkpt lat="45.5790781" lon="10.5153197"><ele>188.0</ele><time>2026-03-28T15:43:51.578Z</time></trkpt><trkpt lat="45.5789362" lon="10.5152961"><ele>188.0</ele><time>2026-03-28T15:43:52.579Z</time></trkpt><trkpt lat="45.5788076" lon="10.515275"><ele>188.0</ele><time>2026-03-28T15:43:53.582Z</time></trkpt><trkpt lat="45.5786832" lon="10.5152583"><ele>187.5</ele><time>2026-03-28T15:43:54.58Z</time></trkpt><trkpt lat="45.5785623" lon="10.5152541"><ele>187.0</ele><time>2026-03-28T15:43:55.587Z</time></trkpt><trkpt lat="45.5784185" lon="10.5152533"><ele>186.5</ele><time>2026-03-28T15:43:56.586Z</time></trkpt><trkpt lat="45.5782734" lon="10.5152556"><ele>186.0</ele><time>2026-03-28T15:43:57.588Z</time></trkpt><trkpt lat="45.5781486" lon="10.5152417"><ele>186.0</ele><time>2026-03-28T15:43:58.587Z</time></trkpt><trkpt lat="45.578003" lon="10.5152341"><ele>186.0</ele><time>2026-03-28T15:43:59.588Z</time></trkpt><trkpt lat="45.5778504" lon="10.5152346"><ele>186.0</ele><time>2026-03-28T15:44:00.597Z</time></trkpt><trkpt lat="45.5777025" lon="10.5152245"><ele>186.0</ele><time>2026-03-28T15:44:01.582Z</time></trkpt><trkpt lat="45.5775497" lon="10.5152149"><ele>186.33333333333334</ele><time>2026-03-28T15:44:02.58Z</time></trkpt><trkpt lat="45.5773939" lon="10.5151832"><ele>186.66666666666669</ele><time>2026-03-28T15:44:03.587Z</time></trkpt><trkpt lat="45.5772405" lon="10.51516"><ele>187.0</ele><time>2026-03-28T15:44:04.582Z</time></trkpt><trkpt lat="45.5770968" lon="10.5151157"><ele>187.0</ele><time>2026-03-28T15:44:05.584Z</time></trkpt><trkpt lat="45.5769457" lon="10.5150585"><ele>187.0</ele><time>2026-03-28T15:44:06.585Z</time></trkpt><trkpt lat="45.5768138" lon="10.5150336"><ele>187.0</ele><time>2026-03-28T15:44:07.587Z</time></trkpt><trkpt lat="45.5766838" lon="10.5149981"><ele>187.0</ele><time>2026-03-28T15:44:08.579Z</time></trkpt><trkpt lat="45.576549" lon="10.5149624"><ele>187.0</ele><time>2026-03-28T15:44:09.589Z</time></trkpt><trkpt lat="45.5764195" lon="10.5149293"><ele>187.0</ele><time>2026-03-28T15:44:10.583Z</time></trkpt><trkpt lat="45.5762814" lon="10.5148965"><ele>187.0</ele><time>2026-03-28T15:44:11.581Z</time></trkpt><trkpt lat="45.5761435" lon="10.5148662"><ele>187.0</ele><time>2026-03-28T15:44:12.583Z</time></trkpt><trkpt lat="45.5760024" lon="10.5148323"><ele>186.5</ele><time>2026-03-28T15:44:13.584Z</time></trkpt><trkpt lat="45.5758562" lon="10.5148011"><ele>186.0</ele><time>2026-03-28T15:44:14.585Z</time></trkpt><trkpt lat="45.5757098" lon="10.5147763"><ele>185.5</ele><time>2026-03-28T15:44:15.583Z</time></trkpt><trkpt lat="45.5755659" lon="10.5147361"><ele>185.0</ele><time>2026-03-28T15:44:16.589Z</time></trkpt><trkpt lat="45.5754257" lon="10.5146847"><ele>185.5</ele><time>2026-03-28T15:44:17.597Z</time></trkpt><trkpt lat="45.5752727" lon="10.5146577"><ele>186.0</ele><time>2026-03-28T15:44:18.589Z</time></trkpt><trkpt lat="45.5751316" lon="10.5146312"><ele>186.5</ele><time>2026-03-28T15:44:19.594Z</time></trkpt><trkpt lat="45.5749961" lon="10.5145876"><ele>187.0</ele><time>2026-03-28T15:44:20.591Z</time></trkpt><trkpt lat="45.5748599" lon="10.5145578"><ele>187.75</ele><time>2026-03-28T15:44:21.589Z</time></trkpt><trkpt lat="45.5747243" lon="10.5145314"><ele>188.5</ele><time>2026-03-28T15:44:22.596Z</time></trkpt><trkpt lat="45.5745965" lon="10.5145035"><ele>189.25</ele><time>2026-03-28T15:44:23.588Z</time></trkpt><trkpt lat="45.5744645" lon="10.5144747"><ele>190.0</ele><time>2026-03-28T15:44:24.594Z</time></trkpt><trkpt lat="45.5743338" lon="10.5144282"><ele>190.6</ele><time>2026-03-28T15:44:25.59Z</time></trkpt><trkpt lat="45.5742202" lon="10.5143939"><ele>191.2</ele><time>2026-03-28T15:44:26.593Z</time></trkpt><trkpt lat="45.5741081" lon="10.5143654"><ele>191.8</ele><time>2026-03-28T15:44:27.589Z</time></trkpt><trkpt lat="45.5740065" lon="10.5143554"><ele>192.4</ele><time>2026-03-28T15:44:28.586Z</time></trkpt><trkpt lat="45.5739015" lon="10.51436"><ele>193.0</ele><time>2026-03-28T15:44:29.591Z</time></trkpt><trkpt lat="45.5737992" lon="10.5144024"><ele>193.0</ele><time>2026-03-28T15:44:30.586Z</time></trkpt><trkpt lat="45.5737059" lon="10.5144824"><ele>193.0</ele><time>2026-03-28T15:44:31.608Z</time></trkpt><trkpt lat="45.573619" lon="10.5146068"><ele>193.0</ele><time>2026-03-28T15:44:32.574Z</time></trkpt><trkpt lat="45.5735489" lon="10.5147538"><ele>193.0</ele><time>2026-03-28T15:44:33.575Z</time></trkpt><trkpt lat="45.5735031" lon="10.5149288"><ele>195.0</ele><time>2026-03-28T15:44:34.572Z</time></trkpt><trkpt lat="45.5734831" lon="10.5151105"><ele>197.0</ele><time>2026-03-28T15:44:35.575Z</time></trkpt><trkpt lat="45.5734607" lon="10.5153058"><ele>199.0</ele><time>2026-03-28T15:44:36.577Z</time></trkpt><trkpt lat="45.5734319" lon="10.5154747"><ele>201.0</ele><time>2026-03-28T15:44:37.58Z</time></trkpt><trkpt lat="45.5733975" lon="10.5156429"><ele>201.0</ele><time>2026-03-28T15:44:38.582Z</time></trkpt><trkpt lat="45.5733518" lon="10.5157939"><ele>201.0</ele><time>2026-03-28T15:44:39.58Z</time></trkpt><trkpt lat="45.573285" lon="10.5159438"><ele>201.0</ele><time>2026-03-28T15:44:40.576Z</time></trkpt><trkpt lat="45.5731973" lon="10.5160532"><ele>201.0</ele><time>2026-03-28T15:44:41.564Z</time></trkpt><trkpt lat="45.5730932" lon="10.5161598"><ele>200.25</ele><time>2026-03-28T15:44:42.567Z</time></trkpt><trkpt lat="45.5729817" lon="10.5162619"><ele>199.5</ele><time>2026-03-28T15:44:43.573Z</time></trkpt><trkpt lat="45.5728732" lon="10.5163668"><ele>198.75</ele><time>2026-03-28T15:44:44.573Z</time></trkpt><trkpt lat="45.5727571" lon="10.5164512"><ele>198.0</ele><time>2026-03-28T15:44:45.58Z</time></trkpt><trkpt lat="45.5726235" lon="10.5165172"><ele>198.0</ele><time>2026-03-28T15:44:46.58Z</time></trkpt><trkpt lat="45.5724792" lon="10.5165555"><ele>198.0</ele><time>2026-03-28T15:44:47.587Z</time></trkpt><trkpt lat="45.5723356" lon="10.5165796"><ele>198.0</ele><time>2026-03-28T15:44:48.58Z</time></trkpt><trkpt lat="45.5722191" lon="10.5166111"><ele>198.0</ele><time>2026-03-28T15:44:49.586Z</time></trkpt><trkpt lat="45.5721017" lon="10.516624"><ele>197.0</ele><time>2026-03-28T15:44:50.574Z</time></trkpt><trkpt lat="45.5719798" lon="10.5166012"><ele>196.0</ele><time>2026-03-28T15:44:51.574Z</time></trkpt><trkpt lat="45.571869" lon="10.5165455"><ele>195.0</ele><time>2026-03-28T15:44:52.577Z</time></trkpt><trkpt lat="45.5717552" lon="10.5164717"><ele>194.0</ele><time>2026-03-28T15:44:53.57Z</time></trkpt><trkpt lat="45.5716506" lon="10.5163532"><ele>200.33333333333334</ele><time>2026-03-28T15:44:54.574Z</time></trkpt><trkpt lat="45.5715483" lon="10.5162112"><ele>206.66666666666669</ele><time>2026-03-28T15:44:55.593Z</time></trkpt><trkpt lat="45.5714381" lon="10.5160656"><ele>213.0</ele><time>2026-03-28T15:44:57.66Z</time></trkpt><trkpt lat="45.5713178" lon="10.5159148"><ele>213.0</ele><time>2026-03-28T15:44:58.642Z</time></trkpt><trkpt lat="45.5711917" lon="10.5157656"><ele>213.0</ele><time>2026-03-28T15:44:59.652Z</time></trkpt><trkpt lat="45.5710765" lon="10.5156284"><ele>213.0</ele><time>2026-03-28T15:45:00.656Z</time></trkpt><trkpt lat="45.5709697" lon="10.5154927"><ele>211.75</ele><time>2026-03-28T15:45:01.643Z</time></trkpt><trkpt lat="45.5708661" lon="10.5153594"><ele>210.5</ele><time>2026-03-28T15:45:02.657Z</time></trkpt><trkpt lat="45.5707789" lon="10.5152261"><ele>209.25</ele><time>2026-03-28T15:45:03.632Z</time></trkpt><trkpt lat="45.5707005" lon="10.5150985"><ele>208.0</ele><time>2026-03-28T15:45:04.631Z</time></trkpt><trkpt lat="45.5706407" lon="10.5149628"><ele>208.0</ele><time>2026-03-28T15:45:05.617Z</time></trkpt><trkpt lat="45.5705962" lon="10.5148073"><ele>208.0</ele><time>2026-03-28T15:45:06.62Z</time></trkpt><trkpt lat="45.5705659" lon="10.5146395"><ele>208.0</ele><time>2026-03-28T15:45:07.62Z</time></trkpt><trkpt lat="45.5705502" lon="10.5144414"><ele>208.0</ele><time>2026-03-28T15:45:08.619Z</time></trkpt><trkpt lat="45.5705327" lon="10.5142444"><ele>209.25</ele><time>2026-03-28T15:45:09.638Z</time></trkpt><trkpt lat="45.570508" lon="10.5140484"><ele>210.5</ele><time>2026-03-28T15:45:10.631Z</time></trkpt><trkpt lat="45.5704711" lon="10.513861"><ele>211.75</ele><time>2026-03-28T15:45:11.627Z</time></trkpt><trkpt lat="45.5704182" lon="10.5136974"><ele>213.0</ele><time>2026-03-28T15:45:12.617Z</time></trkpt><trkpt lat="45.5703502" lon="10.5135575"><ele>210.0</ele><time>2026-03-28T15:45:13.614Z</time></trkpt><trkpt lat="45.5702655" lon="10.5134449"><ele>207.0</ele><time>2026-03-28T15:45:14.619Z</time></trkpt><trkpt lat="45.5701606" lon="10.5133463"><ele>204.0</ele><time>2026-03-28T15:45:15.624Z</time></trkpt><trkpt lat="45.5700492" lon="10.5132473"><ele>201.0</ele><time>2026-03-28T15:45:16.634Z</time></trkpt><trkpt lat="45.5699474" lon="10.5131516"><ele>201.0</ele><time>2026-03-28T15:45:17.639Z</time></trkpt><trkpt lat="45.5698642" lon="10.5130441"><ele>201.0</ele><time>2026-03-28T15:45:18.635Z</time></trkpt><trkpt lat="45.5697968" lon="10.5129376"><ele>201.0</ele><time>2026-03-28T15:45:19.619Z</time></trkpt><trkpt lat="45.5697463" lon="10.512819"><ele>201.0</ele><time>2026-03-28T15:45:20.612Z</time></trkpt><trkpt lat="45.5697116" lon="10.512689"><ele>201.0</ele><time>2026-03-28T15:45:21.623Z</time></trkpt><trkpt lat="45.5696974" lon="10.5125454"><ele>203.0</ele><time>2026-03-28T15:45:22.627Z</time></trkpt><trkpt lat="45.5697077" lon="10.5123916"><ele>205.0</ele><time>2026-03-28T15:45:23.636Z</time></trkpt><trkpt lat="45.56974" lon="10.5122297"><ele>207.0</ele><time>2026-03-28T15:45:24.635Z</time></trkpt><trkpt lat="45.5697872" lon="10.5120685"><ele>209.0</ele><time>2026-03-28T15:45:25.615Z</time></trkpt><trkpt lat="45.5698564" lon="10.5118964"><ele>209.33333333333334</ele><time>2026-03-28T15:45:26.612Z</time></trkpt><trkpt lat="45.569939" lon="10.5117104"><ele>209.66666666666669</ele><time>2026-03-28T15:45:27.616Z</time></trkpt><trkpt lat="45.570033" lon="10.5115146"><ele>210.0</ele><time>2026-03-28T15:45:28.624Z</time></trkpt><trkpt lat="45.5701152" lon="10.5113111"><ele>208.25</ele><time>2026-03-28T15:45:29.645Z</time></trkpt><trkpt lat="45.5701809" lon="10.5111187"><ele>206.5</ele><time>2026-03-28T15:45:30.653Z</time></trkpt><trkpt lat="45.5702407" lon="10.5109195"><ele>204.75</ele><time>2026-03-28T15:45:31.643Z</time></trkpt><trkpt lat="45.5702795" lon="10.5107264"><ele>203.0</ele><time>2026-03-28T15:45:32.639Z</time></trkpt><trkpt lat="45.570327" lon="10.510553"><ele>204.75</ele><time>2026-03-28T15:45:33.651Z</time></trkpt><trkpt lat="45.5703665" lon="10.510398"><ele>206.5</ele><time>2026-03-28T15:45:34.639Z</time></trkpt><trkpt lat="45.5704021" lon="10.5102427"><ele>208.25</ele><time>2026-03-28T15:45:35.656Z</time></trkpt><trkpt lat="45.5704393" lon="10.5100886"><ele>210.0</ele><time>2026-03-28T15:45:36.658Z</time></trkpt><trkpt lat="45.5704709" lon="10.5099351"><ele>210.0</ele><time>2026-03-28T15:45:37.659Z</time></trkpt><trkpt lat="45.5705009" lon="10.5097742"><ele>210.0</ele><time>2026-03-28T15:45:38.655Z</time></trkpt><trkpt lat="45.5705256" lon="10.5096334"><ele>210.0</ele><time>2026-03-28T15:45:39.662Z</time></trkpt><trkpt lat="45.5705493" lon="10.5094913"><ele>210.0</ele><time>2026-03-28T15:45:40.658Z</time></trkpt><trkpt lat="45.5705686" lon="10.5093652"><ele>210.0</ele><time>2026-03-28T15:45:41.651Z</time></trkpt><trkpt lat="45.57058" lon="10.5092517"><ele>210.0</ele><time>2026-03-28T15:45:42.653Z</time></trkpt><trkpt lat="45.5705768" lon="10.5091419"><ele>210.0</ele><time>2026-03-28T15:45:43.648Z</time></trkpt><trkpt lat="45.570546" lon="10.5090409"><ele>210.0</ele><time>2026-03-28T15:45:44.637Z</time></trkpt><trkpt lat="45.570489" lon="10.5089385"><ele>210.0</ele><time>2026-03-28T15:45:45.634Z</time></trkpt><trkpt lat="45.5704212" lon="10.5088783"><ele>210.0</ele><time>2026-03-28T15:45:46.629Z</time></trkpt><trkpt lat="45.5703379" lon="10.5088444"><ele>210.0</ele><time>2026-03-28T15:45:47.628Z</time></trkpt><trkpt lat="45.5702386" lon="10.5088429"><ele>211.0</ele><time>2026-03-28T15:45:48.637Z</time></trkpt><trkpt lat="45.570138" lon="10.5088827"><ele>212.0</ele><time>2026-03-28T15:45:49.638Z</time></trkpt><trkpt lat="45.5698118" lon="10.5090655"><ele>212.0</ele><time>2026-03-28T15:45:51.542Z</time></trkpt><trkpt lat="45.5697095" lon="10.5090945"><ele>212.0</ele><time>2026-03-28T15:45:52.539Z</time></trkpt><trkpt lat="45.5696025" lon="10.509139"><ele>212.0</ele><time>2026-03-28T15:45:53.528Z</time></trkpt><trkpt lat="45.5694848" lon="10.5092042"><ele>212.0</ele><time>2026-03-28T15:45:54.549Z</time></trkpt><trkpt lat="45.569368" lon="10.5092663"><ele>213.75</ele><time>2026-03-28T15:45:55.553Z</time></trkpt><trkpt lat="45.569257" lon="10.50932"><ele>215.5</ele><time>2026-03-28T15:45:56.559Z</time></trkpt><trkpt lat="45.5691515" lon="10.5093754"><ele>217.25</ele><time>2026-03-28T15:45:57.562Z</time></trkpt><trkpt lat="45.5690579" lon="10.5094469"><ele>219.0</ele><time>2026-03-28T15:45:58.569Z</time></trkpt><trkpt lat="45.5689793" lon="10.5095657"><ele>217.2</ele><time>2026-03-28T15:45:59.555Z</time></trkpt><trkpt lat="45.5689124" lon="10.5097021"><ele>215.39999999999998</ele><time>2026-03-28T15:46:00.578Z</time></trkpt><trkpt lat="45.5688724" lon="10.5098416"><ele>213.6</ele><time>2026-03-28T15:46:01.568Z</time></trkpt><trkpt lat="45.568836" lon="10.5099705"><ele>211.8</ele><time>2026-03-28T15:46:02.573Z</time></trkpt><trkpt lat="45.5687956" lon="10.5100714"><ele>210.0</ele><time>2026-03-28T15:46:03.559Z</time></trkpt><trkpt lat="45.5687665" lon="10.5101584"><ele>210.0</ele><time>2026-03-28T15:46:04.574Z</time></trkpt><trkpt lat="45.5686954" lon="10.5102632"><ele>210.0</ele><time>2026-03-28T15:46:06.56Z</time></trkpt><trkpt lat="45.5686309" lon="10.5103245"><ele>210.0</ele><time>2026-03-28T15:46:16.572Z</time></trkpt><trkpt lat="45.5685028" lon="10.5103514"><ele>210.0</ele><time>2026-03-28T15:46:18.555Z</time></trkpt><trkpt lat="45.5683841" lon="10.5103094"><ele>210.0</ele><time>2026-03-28T15:46:19.548Z</time></trkpt><trkpt lat="45.5682435" lon="10.510262"><ele>212.0</ele><time>2026-03-28T15:46:20.556Z</time></trkpt><trkpt lat="45.5680924" lon="10.5101902"><ele>214.0</ele><time>2026-03-28T15:46:21.564Z</time></trkpt><trkpt lat="45.5679339" lon="10.5101355"><ele>216.0</ele><time>2026-03-28T15:46:22.561Z</time></trkpt><trkpt lat="45.5677592" lon="10.5100842"><ele>216.0</ele><time>2026-03-28T15:46:23.56Z</time></trkpt><trkpt lat="45.567628" lon="10.5100703"><ele>216.0</ele><time>2026-03-28T15:46:24.561Z</time></trkpt><trkpt lat="45.567506" lon="10.5100524"><ele>216.0</ele><time>2026-03-28T15:46:25.557Z</time></trkpt><trkpt lat="45.5673902" lon="10.5100489"><ele>216.0</ele><time>2026-03-28T15:46:26.558Z</time></trkpt><trkpt lat="45.5672671" lon="10.5100399"><ele>216.0</ele><time>2026-03-28T15:46:27.549Z</time></trkpt><trkpt lat="45.5671424" lon="10.5100605"><ele>216.0</ele><time>2026-03-28T15:46:28.556Z</time></trkpt><trkpt lat="45.5669996" lon="10.5100654"><ele>216.0</ele><time>2026-03-28T15:46:29.551Z</time></trkpt><trkpt lat="45.5668644" lon="10.5100759"><ele>216.0</ele><time>2026-03-28T15:46:30.549Z</time></trkpt><trkpt lat="45.5667492" lon="10.5100988"><ele>216.20000000000002</ele><time>2026-03-28T15:46:31.554Z</time></trkpt><trkpt lat="45.5666456" lon="10.5101213"><ele>216.40000000000003</ele><time>2026-03-28T15:46:32.549Z</time></trkpt><trkpt lat="45.5665469" lon="10.5101479"><ele>216.6</ele><time>2026-03-28T15:46:33.554Z</time></trkpt><trkpt lat="45.5664339" lon="10.5101604"><ele>216.8</ele><time>2026-03-28T15:46:34.546Z</time></trkpt><trkpt lat="45.5663048" lon="10.5101602"><ele>217.0</ele><time>2026-03-28T15:46:35.561Z</time></trkpt><trkpt lat="45.5661684" lon="10.5101322"><ele>216.0</ele><time>2026-03-28T15:46:36.548Z</time></trkpt><trkpt lat="45.5660307" lon="10.5100806"><ele>215.0</ele><time>2026-03-28T15:46:37.547Z</time></trkpt><trkpt lat="45.5658931" lon="10.5100225"><ele>214.0</ele><time>2026-03-28T15:46:38.542Z</time></trkpt><trkpt lat="45.5657799" lon="10.5099882"><ele>213.0</ele><time>2026-03-28T15:46:39.546Z</time></trkpt><trkpt lat="45.5656735" lon="10.5099643"><ele>213.0</ele><time>2026-03-28T15:46:40.542Z</time></trkpt><trkpt lat="45.5655564" lon="10.5099175"><ele>213.0</ele><time>2026-03-28T15:46:41.544Z</time></trkpt><trkpt lat="45.5654323" lon="10.5098328"><ele>213.0</ele><time>2026-03-28T15:46:42.546Z</time></trkpt><trkpt lat="45.5653019" lon="10.5097357"><ele>213.0</ele><time>2026-03-28T15:46:43.556Z</time></trkpt><trkpt lat="45.5651909" lon="10.5096289"><ele>214.60000000000002</ele><time>2026-03-28T15:46:44.55Z</time></trkpt><trkpt lat="45.5650937" lon="10.5095335"><ele>216.20000000000002</ele><time>2026-03-28T15:46:45.564Z</time></trkpt><trkpt lat="45.5650073" lon="10.5094493"><ele>217.8</ele><time>2026-03-28T15:46:46.561Z</time></trkpt><trkpt lat="45.564933" lon="10.5093879"><ele>219.4</ele><time>2026-03-28T15:46:47.567Z</time></trkpt><trkpt lat="45.5648712" lon="10.5093344"><ele>221.0</ele><time>2026-03-28T15:46:48.564Z</time></trkpt><trkpt lat="45.5647796" lon="10.5092295"><ele>221.00000000000003</ele><time>2026-03-28T15:46:50.565Z</time></trkpt><trkpt lat="45.5647842" lon="10.5090678"><ele>221.0</ele><time>2026-03-28T15:46:52.563Z</time></trkpt><trkpt lat="45.5648288" lon="10.5089998"><ele>221.0</ele><time>2026-03-28T15:46:53.569Z</time></trkpt><trkpt lat="45.5648986" lon="10.5089686"><ele>221.0</ele><time>2026-03-28T15:46:54.56Z</time></trkpt><trkpt lat="45.5649862" lon="10.5089837"><ele>221.00000000000003</ele><time>2026-03-28T15:46:55.555Z</time></trkpt><trkpt lat="45.5650737" lon="10.5090436"><ele>221.0</ele><time>2026-03-28T15:46:56.556Z</time></trkpt><trkpt lat="45.565176" lon="10.5091156"><ele>221.0</ele><time>2026-03-28T15:46:57.542Z</time></trkpt><trkpt lat="45.5652848" lon="10.5092119"><ele>221.0</ele><time>2026-03-28T15:46:58.557Z</time></trkpt><trkpt lat="45.5654075" lon="10.5093243"><ele>221.0</ele><time>2026-03-28T15:46:59.56Z</time></trkpt><trkpt lat="45.565526" lon="10.5094322"><ele>221.0</ele><time>2026-03-28T15:47:00.556Z</time></trkpt><trkpt lat="45.5656201" lon="10.5095072"><ele>219.66666666666669</ele><time>2026-03-28T15:47:01.566Z</time></trkpt><trkpt lat="45.5657008" lon="10.5095684"><ele>218.33333333333334</ele><time>2026-03-28T15:47:02.561Z</time></trkpt><trkpt lat="45.5657728" lon="10.509607"><ele>217.0</ele><time>2026-03-28T15:47:03.564Z</time></trkpt><trkpt lat="45.5658866" lon="10.5095554"><ele>215.66666666666669</ele><time>2026-03-28T15:47:05.557Z</time></trkpt><trkpt lat="45.5659223" lon="10.5094697"><ele>214.33333333333334</ele><time>2026-03-28T15:47:06.564Z</time></trkpt><trkpt lat="45.5659354" lon="10.5093648"><ele>213.0</ele><time>2026-03-28T15:47:07.551Z</time></trkpt><trkpt lat="45.565919" lon="10.5092495"><ele>217.5</ele><time>2026-03-28T15:47:08.562Z</time></trkpt><trkpt lat="45.5658592" lon="10.5091673"><ele>222.0</ele><time>2026-03-28T15:47:09.547Z</time></trkpt><trkpt lat="45.5657612" lon="10.5091019"><ele>226.5</ele><time>2026-03-28T15:47:10.561Z</time></trkpt><trkpt lat="45.565645" lon="10.5090019"><ele>231.0</ele><time>2026-03-28T15:47:11.542Z</time></trkpt><trkpt lat="45.5655267" lon="10.5088928"><ele>231.0</ele><time>2026-03-28T15:47:12.546Z</time></trkpt><trkpt lat="45.565419" lon="10.5087789"><ele>231.0</ele><time>2026-03-28T15:47:13.55Z</time></trkpt><trkpt lat="45.5653259" lon="10.5086538"><ele>231.0</ele><time>2026-03-28T15:47:14.548Z</time></trkpt><trkpt lat="45.5652522" lon="10.5084949"><ele>231.0</ele><time>2026-03-28T15:47:15.558Z</time></trkpt><trkpt lat="45.5652003" lon="10.5083122"><ele>232.0</ele><time>2026-03-28T15:47:16.566Z</time></trkpt><trkpt lat="45.5651583" lon="10.5081131"><ele>233.0</ele><time>2026-03-28T15:47:17.564Z</time></trkpt><trkpt lat="45.5651183" lon="10.5078953"><ele>234.0</ele><time>2026-03-28T15:47:18.573Z</time></trkpt><trkpt lat="45.5650686" lon="10.5076943"><ele>234.0</ele><time>2026-03-28T15:47:19.574Z</time></trkpt><trkpt lat="45.5650225" lon="10.5074924"><ele>234.0</ele><time>2026-03-28T15:47:20.577Z</time></trkpt><trkpt lat="45.5649797" lon="10.5072962"><ele>234.0</ele><time>2026-03-28T15:47:21.573Z</time></trkpt><trkpt lat="45.5649403" lon="10.5070988"><ele>234.0</ele><time>2026-03-28T15:47:22.581Z</time></trkpt><trkpt lat="45.5648914" lon="10.5068996"><ele>234.0</ele><time>2026-03-28T15:47:23.569Z</time></trkpt><trkpt lat="45.5648406" lon="10.5067164"><ele>234.0</ele><time>2026-03-28T15:47:24.574Z</time></trkpt><trkpt lat="45.5647925" lon="10.5065276"><ele>234.0</ele><time>2026-03-28T15:47:25.575Z</time></trkpt><trkpt lat="45.5647387" lon="10.5063278"><ele>234.0</ele><time>2026-03-28T15:47:26.575Z</time></trkpt><trkpt lat="45.564682" lon="10.5061231"><ele>234.0</ele><time>2026-03-28T15:47:27.575Z</time></trkpt><trkpt lat="45.5646165" lon="10.5059139"><ele>234.0</ele><time>2026-03-28T15:47:28.584Z</time></trkpt><trkpt lat="45.564546" lon="10.505734"><ele>234.0</ele><time>2026-03-28T15:47:29.581Z</time></trkpt><trkpt lat="45.5644609" lon="10.5055654"><ele>234.0</ele><time>2026-03-28T15:47:30.577Z</time></trkpt><trkpt lat="45.5643433" lon="10.5054153"><ele>234.0</ele><time>2026-03-28T15:47:31.579Z</time></trkpt><trkpt lat="45.5642204" lon="10.5052859"><ele>234.0</ele><time>2026-03-28T15:47:32.569Z</time></trkpt><trkpt lat="45.5640965" lon="10.5051547"><ele>234.0</ele><time>2026-03-28T15:47:33.583Z</time></trkpt><trkpt lat="45.5639676" lon="10.5050105"><ele>234.0</ele><time>2026-03-28T15:47:34.573Z</time></trkpt><trkpt lat="45.5638305" lon="10.5048511"><ele>234.0</ele><time>2026-03-28T15:47:35.573Z</time></trkpt><trkpt lat="45.5636963" lon="10.5046814"><ele>235.66666666666669</ele><time>2026-03-28T15:47:36.573Z</time></trkpt><trkpt lat="45.5635614" lon="10.5044882"><ele>237.33333333333334</ele><time>2026-03-28T15:47:37.584Z</time></trkpt><trkpt lat="45.5634347" lon="10.5043041"><ele>239.0</ele><time>2026-03-28T15:47:38.57Z</time></trkpt><trkpt lat="45.5633157" lon="10.5041368"><ele>239.0</ele><time>2026-03-28T15:47:39.57Z</time></trkpt><trkpt lat="45.5631948" lon="10.5039794"><ele>239.0</ele><time>2026-03-28T15:47:40.568Z</time></trkpt><trkpt lat="45.5630641" lon="10.5038221"><ele>239.0</ele><time>2026-03-28T15:47:41.575Z</time></trkpt><trkpt lat="45.5629332" lon="10.5036624"><ele>239.33333333333334</ele><time>2026-03-28T15:47:42.575Z</time></trkpt><trkpt lat="45.5627973" lon="10.5035267"><ele>239.66666666666669</ele><time>2026-03-28T15:47:43.568Z</time></trkpt><trkpt lat="45.5626648" lon="10.503394"><ele>240.0</ele><time>2026-03-28T15:47:44.576Z</time></trkpt><trkpt lat="45.5625314" lon="10.5032664"><ele>240.0</ele><time>2026-03-28T15:47:45.575Z</time></trkpt><trkpt lat="45.5623957" lon="10.503134"><ele>240.0</ele><time>2026-03-28T15:47:46.575Z</time></trkpt><trkpt lat="45.5622721" lon="10.5030209"><ele>240.0</ele><time>2026-03-28T15:47:47.577Z</time></trkpt><trkpt lat="45.56215" lon="10.502931"><ele>240.0</ele><time>2026-03-28T15:47:48.567Z</time></trkpt><trkpt lat="45.5620432" lon="10.5028489"><ele>239.75</ele><time>2026-03-28T15:47:49.585Z</time></trkpt><trkpt lat="45.5619324" lon="10.502764"><ele>239.5</ele><time>2026-03-28T15:47:50.575Z</time></trkpt><trkpt lat="45.5618237" lon="10.502687"><ele>239.25</ele><time>2026-03-28T15:47:51.597Z</time></trkpt><trkpt lat="45.5617216" lon="10.5026285"><ele>239.0</ele><time>2026-03-28T15:47:53.661Z</time></trkpt><trkpt lat="45.5616229" lon="10.5025774"><ele>239.0</ele><time>2026-03-28T15:47:54.653Z</time></trkpt><trkpt lat="45.5615196" lon="10.5025481"><ele>238.99999999999997</ele><time>2026-03-28T15:47:55.648Z</time></trkpt><trkpt lat="45.5614115" lon="10.5025475"><ele>238.99999999999997</ele><time>2026-03-28T15:47:56.644Z</time></trkpt><trkpt lat="45.5612978" lon="10.502565"><ele>239.0</ele><time>2026-03-28T15:47:57.638Z</time></trkpt><trkpt lat="45.56119" lon="10.5026169"><ele>239.0</ele><time>2026-03-28T15:47:58.638Z</time></trkpt><trkpt lat="45.561077" lon="10.5026984"><ele>237.75</ele><time>2026-03-28T15:47:59.643Z</time></trkpt><trkpt lat="45.5609704" lon="10.5028013"><ele>236.5</ele><time>2026-03-28T15:48:00.661Z</time></trkpt><trkpt lat="45.5608739" lon="10.5029386"><ele>235.25</ele><time>2026-03-28T15:48:01.645Z</time></trkpt><trkpt lat="45.5607807" lon="10.5030624"><ele>234.0</ele><time>2026-03-28T15:48:02.649Z</time></trkpt><trkpt lat="45.5606863" lon="10.5031638"><ele>234.0</ele><time>2026-03-28T15:48:03.653Z</time></trkpt><trkpt lat="45.5606123" lon="10.5033073"><ele>234.0</ele><time>2026-03-28T15:48:04.633Z</time></trkpt><trkpt lat="45.5605046" lon="10.5033608"><ele>234.0</ele><time>2026-03-28T15:48:05.638Z</time></trkpt><trkpt lat="45.5603877" lon="10.503385"><ele>234.0</ele><time>2026-03-28T15:48:06.636Z</time></trkpt><trkpt lat="45.5602587" lon="10.5033991"><ele>234.0</ele><time>2026-03-28T15:48:07.638Z</time></trkpt><trkpt lat="45.5601137" lon="10.503387"><ele>234.0</ele><time>2026-03-28T15:48:08.675Z</time></trkpt><trkpt lat="45.5599748" lon="10.503369"><ele>234.0</ele><time>2026-03-28T15:48:09.653Z</time></trkpt><trkpt lat="45.5598443" lon="10.503346"><ele>234.0</ele><time>2026-03-28T15:48:10.653Z</time></trkpt><trkpt lat="45.559721" lon="10.503321"><ele>234.0</ele><time>2026-03-28T15:48:11.644Z</time></trkpt><trkpt lat="45.5596026" lon="10.50326"><ele>234.0</ele><time>2026-03-28T15:48:12.644Z</time></trkpt><trkpt lat="45.5594909" lon="10.503168"><ele>234.0</ele><time>2026-03-28T15:48:13.629Z</time></trkpt><trkpt lat="45.5593846" lon="10.5030474"><ele>234.0</ele><time>2026-03-28T15:48:14.633Z</time></trkpt><trkpt lat="45.5592789" lon="10.502902"><ele>233.66666666666669</ele><time>2026-03-28T15:48:15.631Z</time></trkpt><trkpt lat="45.5591726" lon="10.5027333"><ele>233.33333333333334</ele><time>2026-03-28T15:48:16.634Z</time></trkpt><trkpt lat="45.5590592" lon="10.502551"><ele>233.0</ele><time>2026-03-28T15:48:17.649Z</time></trkpt><trkpt lat="45.558951" lon="10.5023609"><ele>233.0</ele><time>2026-03-28T15:48:18.648Z</time></trkpt><trkpt lat="45.5588451" lon="10.5021755"><ele>233.0</ele><time>2026-03-28T15:48:19.642Z</time></trkpt><trkpt lat="45.5587505" lon="10.5020109"><ele>233.0</ele><time>2026-03-28T15:48:20.637Z</time></trkpt><trkpt lat="45.5586638" lon="10.5018631"><ele>232.8</ele><time>2026-03-28T15:48:21.631Z</time></trkpt><trkpt lat="45.5585961" lon="10.501765"><ele>232.60000000000002</ele><time>2026-03-28T15:48:22.635Z</time></trkpt><trkpt lat="45.5585464" lon="10.5016987"><ele>232.39999999999998</ele><time>2026-03-28T15:48:23.635Z</time></trkpt><trkpt lat="45.5584986" lon="10.5016022"><ele>232.2</ele><time>2026-03-28T15:48:25.632Z</time></trkpt><trkpt lat="45.5585132" lon="10.5014784"><ele>232.0</ele><time>2026-03-28T15:48:27.643Z</time></trkpt><trkpt lat="45.5585788" lon="10.5012956"><ele>234.0</ele><time>2026-03-28T15:48:29.618Z</time></trkpt><trkpt lat="45.5586421" lon="10.5011981"><ele>236.0</ele><time>2026-03-28T15:48:30.623Z</time></trkpt><trkpt lat="45.5587061" lon="10.5011257"><ele>238.0</ele><time>2026-03-28T15:48:31.615Z</time></trkpt><trkpt lat="45.5587912" lon="10.5010281"><ele>240.0</ele><time>2026-03-28T15:48:32.616Z</time></trkpt><trkpt lat="45.5588685" lon="10.5009284"><ele>242.0</ele><time>2026-03-28T15:48:33.623Z</time></trkpt><trkpt lat="45.5589423" lon="10.5008195"><ele>242.2</ele><time>2026-03-28T15:48:34.613Z</time></trkpt><trkpt lat="45.5589928" lon="10.5007035"><ele>242.39999999999998</ele><time>2026-03-28T15:48:35.616Z</time></trkpt><trkpt lat="45.5590576" lon="10.5005585"><ele>242.60000000000002</ele><time>2026-03-28T15:48:36.615Z</time></trkpt><trkpt lat="45.5590978" lon="10.5004619"><ele>242.8</ele><time>2026-03-28T15:48:37.615Z</time></trkpt><trkpt lat="45.5591336" lon="10.5003855"><ele>243.0</ele><time>2026-03-28T15:48:38.638Z</time></trkpt><trkpt lat="45.5592471" lon="10.5001831"><ele>242.4</ele><time>2026-03-28T15:48:39.631Z</time></trkpt><trkpt lat="45.5592999" lon="10.5000491"><ele>241.8</ele><time>2026-03-28T15:48:40.633Z</time></trkpt><trkpt lat="45.5593323" lon="10.4999096"><ele>241.2</ele><time>2026-03-28T15:48:41.622Z</time></trkpt><trkpt lat="45.5593675" lon="10.499787"><ele>240.6</ele><time>2026-03-28T15:48:42.617Z</time></trkpt><trkpt lat="45.5593812" lon="10.4996838"><ele>240.0</ele><time>2026-03-28T15:48:43.623Z</time></trkpt><trkpt lat="45.5593861" lon="10.4995211"><ele>240.0</ele><time>2026-03-28T15:48:45.637Z</time></trkpt><trkpt lat="45.5593467" lon="10.4993715"><ele>240.0</ele><time>2026-03-28T15:48:47.623Z</time></trkpt><trkpt lat="45.5593105" lon="10.4992065"><ele>240.0</ele><time>2026-03-28T15:48:49.623Z</time></trkpt><trkpt lat="45.5592517" lon="10.4991157"><ele>240.0</ele><time>2026-03-28T15:48:50.619Z</time></trkpt><trkpt lat="45.559197" lon="10.4990194"><ele>240.0</ele><time>2026-03-28T15:48:51.635Z</time></trkpt><trkpt lat="45.5591472" lon="10.4989069"><ele>240.0</ele><time>2026-03-28T15:48:52.642Z</time></trkpt><trkpt lat="45.5590954" lon="10.4987968"><ele>240.0</ele><time>2026-03-28T15:48:53.633Z</time></trkpt><trkpt lat="45.5590318" lon="10.4986819"><ele>240.0</ele><time>2026-03-28T15:48:54.643Z</time></trkpt><trkpt lat="45.5589633" lon="10.4985645"><ele>240.0</ele><time>2026-03-28T15:48:55.625Z</time></trkpt><trkpt lat="45.5588918" lon="10.498455"><ele>240.0</ele><time>2026-03-28T15:48:56.618Z</time></trkpt><trkpt lat="45.5588297" lon="10.4983681"><ele>240.4</ele><time>2026-03-28T15:48:57.623Z</time></trkpt><trkpt lat="45.5587724" lon="10.4982731"><ele>240.8</ele><time>2026-03-28T15:48:58.63Z</time></trkpt><trkpt lat="45.5587273" lon="10.4981777"><ele>241.2</ele><time>2026-03-28T15:48:59.641Z</time></trkpt><trkpt lat="45.5586859" lon="10.4980455"><ele>241.6</ele><time>2026-03-28T15:49:00.641Z</time></trkpt><trkpt lat="45.5586651" lon="10.497922"><ele>242.0</ele><time>2026-03-28T15:49:01.629Z</time></trkpt><trkpt lat="45.5586578" lon="10.4977886"><ele>242.8</ele><time>2026-03-28T15:49:02.631Z</time></trkpt><trkpt lat="45.5586506" lon="10.4976454"><ele>243.6</ele><time>2026-03-28T15:49:03.623Z</time></trkpt><trkpt lat="45.5586417" lon="10.4974877"><ele>244.40000000000003</ele><time>2026-03-28T15:49:04.623Z</time></trkpt><trkpt lat="45.5586263" lon="10.4973285"><ele>245.20000000000002</ele><time>2026-03-28T15:49:05.637Z</time></trkpt><trkpt lat="45.5586075" lon="10.4971574"><ele>246.0</ele><time>2026-03-28T15:49:06.643Z</time></trkpt><trkpt lat="45.5585791" lon="10.4970051"><ele>247.4</ele><time>2026-03-28T15:49:07.647Z</time></trkpt><trkpt lat="45.5585577" lon="10.4968782"><ele>248.8</ele><time>2026-03-28T15:49:08.638Z</time></trkpt><trkpt lat="45.5585445" lon="10.4967418"><ele>250.20000000000002</ele><time>2026-03-28T15:49:09.658Z</time></trkpt><trkpt lat="45.5585184" lon="10.4966154"><ele>251.60000000000002</ele><time>2026-03-28T15:49:10.628Z</time></trkpt><trkpt lat="45.5584663" lon="10.4964948"><ele>253.0</ele><time>2026-03-28T15:49:11.628Z</time></trkpt><trkpt lat="45.5584013" lon="10.4963827"><ele>252.99999999999997</ele><time>2026-03-28T15:49:12.62Z</time></trkpt><trkpt lat="45.5583317" lon="10.4962837"><ele>253.0</ele><time>2026-03-28T15:49:13.613Z</time></trkpt><trkpt lat="45.5582576" lon="10.4962112"><ele>253.0</ele><time>2026-03-28T15:49:14.614Z</time></trkpt><trkpt lat="45.5581834" lon="10.4961567"><ele>253.0</ele><time>2026-03-28T15:49:15.611Z</time></trkpt><trkpt lat="45.5581077" lon="10.4961274"><ele>252.99999999999997</ele><time>2026-03-28T15:49:16.634Z</time></trkpt><trkpt lat="45.5580334" lon="10.4961138"><ele>253.0</ele><time>2026-03-28T15:49:17.631Z</time></trkpt><trkpt lat="45.5579592" lon="10.4960955"><ele>254.2</ele><time>2026-03-28T15:49:18.614Z</time></trkpt><trkpt lat="45.5578506" lon="10.4960476"><ele>255.4</ele><time>2026-03-28T15:49:20.614Z</time></trkpt><trkpt lat="45.5577488" lon="10.4960005"><ele>256.59999999999997</ele><time>2026-03-28T15:49:22.632Z</time></trkpt><trkpt lat="45.5576798" lon="10.4959502"><ele>257.8</ele><time>2026-03-28T15:49:24.632Z</time></trkpt><trkpt lat="45.5576508" lon="10.495865"><ele>259.0</ele><time>2026-03-28T15:49:26.656Z</time></trkpt><trkpt lat="45.5577385" lon="10.4959039"><ele>259.0</ele><time>2026-03-28T15:49:33.559Z</time></trkpt><trkpt lat="45.5578211" lon="10.4959559"><ele>259.0</ele><time>2026-03-28T15:49:34.552Z</time></trkpt><trkpt lat="45.5579007" lon="10.4960166"><ele>259.0</ele><time>2026-03-28T15:49:35.546Z</time></trkpt><trkpt lat="45.5579626" lon="10.4960615"><ele>259.0</ele><time>2026-03-28T15:49:36.543Z</time></trkpt><trkpt lat="45.5580437" lon="10.4960978"><ele>259.0</ele><time>2026-03-28T15:49:38.561Z</time></trkpt><trkpt lat="45.5579625" lon="10.495939"><ele>259.0</ele><time>2026-03-28T15:49:45.536Z</time></trkpt><trkpt lat="45.5579155" lon="10.4958374"><ele>259.0</ele><time>2026-03-28T15:49:46.541Z</time></trkpt><trkpt lat="45.5578614" lon="10.4956922"><ele>259.0</ele><time>2026-03-28T15:49:47.538Z</time></trkpt><trkpt lat="45.5578273" lon="10.4955912"><ele>259.0</ele><time>2026-03-28T15:49:48.537Z</time></trkpt><trkpt lat="45.5577859" lon="10.4954451"><ele>259.0</ele><time>2026-03-28T15:49:49.535Z</time></trkpt><trkpt lat="45.5577115" lon="10.4952774"><ele>259.5</ele><time>2026-03-28T15:49:50.535Z</time></trkpt><trkpt lat="45.5576442" lon="10.4951087"><ele>260.0</ele><time>2026-03-28T15:49:51.547Z</time></trkpt><trkpt lat="45.5575872" lon="10.4949591"><ele>260.5</ele><time>2026-03-28T15:49:52.542Z</time></trkpt><trkpt lat="45.5575233" lon="10.4948201"><ele>261.0</ele><time>2026-03-28T15:49:53.534Z</time></trkpt><trkpt lat="45.5574506" lon="10.4946891"><ele>262.40000000000003</ele><time>2026-03-28T15:49:54.527Z</time></trkpt><trkpt lat="45.5573794" lon="10.4945686"><ele>263.8</ele><time>2026-03-28T15:49:55.525Z</time></trkpt><trkpt lat="45.5573259" lon="10.4944549"><ele>265.20000000000005</ele><time>2026-03-28T15:49:56.535Z</time></trkpt><trkpt lat="45.5572833" lon="10.4943134"><ele>266.6</ele><time>2026-03-28T15:49:57.543Z</time></trkpt><trkpt lat="45.5572438" lon="10.4941888"><ele>268.0</ele><time>2026-03-28T15:49:58.539Z</time></trkpt><trkpt lat="45.5572102" lon="10.4940381"><ele>268.0</ele><time>2026-03-28T15:49:59.548Z</time></trkpt><trkpt lat="45.5571765" lon="10.4938865"><ele>268.0</ele><time>2026-03-28T15:50:00.552Z</time></trkpt><trkpt lat="45.557135" lon="10.4937622"><ele>268.0</ele><time>2026-03-28T15:50:01.549Z</time></trkpt><trkpt lat="45.5570859" lon="10.4936468"><ele>268.0</ele><time>2026-03-28T15:50:02.554Z</time></trkpt><trkpt lat="45.5570383" lon="10.4935566"><ele>268.0</ele><time>2026-03-28T15:50:03.557Z</time></trkpt><trkpt lat="45.5569914" lon="10.4934112"><ele>267.3333333333333</ele><time>2026-03-28T15:50:05.565Z</time></trkpt><trkpt lat="45.5569843" lon="10.4933159"><ele>266.66666666666663</ele><time>2026-03-28T15:50:06.562Z</time></trkpt><trkpt lat="45.5569877" lon="10.4932053"><ele>266.0</ele><time>2026-03-28T15:50:07.562Z</time></trkpt><trkpt lat="45.556996" lon="10.4931057"><ele>265.3333333333333</ele><time>2026-03-28T15:50:08.565Z</time></trkpt><trkpt lat="45.5569495" lon="10.4929405"><ele>264.6666666666667</ele><time>2026-03-28T15:50:10.556Z</time></trkpt><trkpt lat="45.5569036" lon="10.492865"><ele>264.0</ele><time>2026-03-28T15:50:11.571Z</time></trkpt><trkpt lat="45.5568288" lon="10.4927825"><ele>264.0</ele><time>2026-03-28T15:50:13.556Z</time></trkpt><trkpt lat="45.5568469" lon="10.4926957"><ele>264.0</ele><time>2026-03-28T15:50:17.573Z</time></trkpt><trkpt lat="45.556912" lon="10.4927051"><ele>264.0</ele><time>2026-03-28T15:50:19.574Z</time></trkpt><trkpt lat="45.5569706" lon="10.4927456"><ele>264.0</ele><time>2026-03-28T15:50:20.556Z</time></trkpt><trkpt lat="45.5570604" lon="10.4927972"><ele>264.0</ele><time>2026-03-28T15:50:21.558Z</time></trkpt><trkpt lat="45.5571618" lon="10.4928341"><ele>264.0</ele><time>2026-03-28T15:50:22.572Z</time></trkpt><trkpt lat="45.557244" lon="10.492861"><ele>265.1666666666667</ele><time>2026-03-28T15:50:23.575Z</time></trkpt><trkpt lat="45.5573463" lon="10.4929034"><ele>266.3333333333333</ele><time>2026-03-28T15:50:25.577Z</time></trkpt><trkpt lat="45.557406" lon="10.4929374"><ele>267.5</ele><time>2026-03-28T15:50:27.582Z</time></trkpt><trkpt lat="45.5574498" lon="10.4930187"><ele>268.66666666666663</ele><time>2026-03-28T15:50:32.588Z</time></trkpt><trkpt lat="45.5574708" lon="10.4931037"><ele>269.8333333333333</ele><time>2026-03-28T15:50:33.569Z</time></trkpt><trkpt lat="45.55749" lon="10.4932261"><ele>271.0</ele><time>2026-03-28T15:50:34.57Z</time></trkpt><trkpt lat="45.5575081" lon="10.4933881"><ele>271.0</ele><time>2026-03-28T15:50:35.563Z</time></trkpt><trkpt lat="45.5575327" lon="10.4935596"><ele>271.0</ele><time>2026-03-28T15:50:36.563Z</time></trkpt><trkpt lat="45.5575642" lon="10.4937135"><ele>271.0</ele><time>2026-03-28T15:50:37.562Z</time></trkpt><trkpt lat="45.5575937" lon="10.4938634"><ele>271.0</ele><time>2026-03-28T15:50:38.564Z</time></trkpt><trkpt lat="45.5576149" lon="10.4939957"><ele>271.0</ele><time>2026-03-28T15:50:39.571Z</time></trkpt><trkpt lat="45.557644" lon="10.4941308"><ele>270.40000000000003</ele><time>2026-03-28T15:50:40.573Z</time></trkpt><trkpt lat="45.5576771" lon="10.4942607"><ele>269.8</ele><time>2026-03-28T15:50:41.557Z</time></trkpt><trkpt lat="45.5577312" lon="10.4943699"><ele>269.20000000000005</ele><time>2026-03-28T15:50:42.573Z</time></trkpt><trkpt lat="45.5578075" lon="10.4944753"><ele>268.6</ele><time>2026-03-28T15:50:43.563Z</time></trkpt><trkpt lat="45.5578826" lon="10.4945585"><ele>268.0</ele><time>2026-03-28T15:50:44.561Z</time></trkpt><trkpt lat="45.557943" lon="10.4946215"><ele>269.3333333333333</ele><time>2026-03-28T15:50:45.557Z</time></trkpt><trkpt lat="45.558003" lon="10.494673"><ele>270.66666666666663</ele><time>2026-03-28T15:50:46.559Z</time></trkpt><trkpt lat="45.5580605" lon="10.4947177"><ele>272.0</ele><time>2026-03-28T15:50:47.562Z</time></trkpt><trkpt lat="45.5581718" lon="10.4947695"><ele>273.3333333333333</ele><time>2026-03-28T15:50:49.558Z</time></trkpt><trkpt lat="45.5582516" lon="10.4947718"><ele>274.6666666666667</ele><time>2026-03-28T15:50:50.557Z</time></trkpt><trkpt lat="45.5583655" lon="10.4947452"><ele>276.0</ele><time>2026-03-28T15:50:51.553Z</time></trkpt><trkpt lat="45.5584871" lon="10.4947188"><ele>276.0</ele><time>2026-03-28T15:50:52.556Z</time></trkpt><trkpt lat="45.5586071" lon="10.4946914"><ele>276.0</ele><time>2026-03-28T15:50:53.56Z</time></trkpt><trkpt lat="45.5587289" lon="10.4946586"><ele>276.0</ele><time>2026-03-28T15:50:54.561Z</time></trkpt><trkpt lat="45.5588277" lon="10.4946263"><ele>276.0</ele><time>2026-03-28T15:50:55.561Z</time></trkpt><trkpt lat="45.558919" lon="10.4946025"><ele>276.0</ele><time>2026-03-28T15:50:56.567Z</time></trkpt><trkpt lat="45.559009" lon="10.4945983"><ele>277.8</ele><time>2026-03-28T15:50:57.566Z</time></trkpt><trkpt lat="45.5591029" lon="10.4946002"><ele>279.6</ele><time>2026-03-28T15:50:58.57Z</time></trkpt><trkpt lat="45.559185" lon="10.4945981"><ele>281.4</ele><time>2026-03-28T15:50:59.566Z</time></trkpt><trkpt lat="45.5592761" lon="10.4945731"><ele>283.2</ele><time>2026-03-28T15:51:00.572Z</time></trkpt><trkpt lat="45.5593785" lon="10.494528"><ele>285.0</ele><time>2026-03-28T15:51:01.577Z</time></trkpt><trkpt lat="45.5594811" lon="10.4944969"><ele>284.4</ele><time>2026-03-28T15:51:02.576Z</time></trkpt><trkpt lat="45.5595804" lon="10.494462"><ele>283.8</ele><time>2026-03-28T15:51:03.576Z</time></trkpt><trkpt lat="45.5596645" lon="10.4944436"><ele>283.2</ele><time>2026-03-28T15:51:04.567Z</time></trkpt><trkpt lat="45.5597424" lon="10.4944213"><ele>282.6</ele><time>2026-03-28T15:51:05.577Z</time></trkpt><trkpt lat="45.55985" lon="10.4944057"><ele>282.0</ele><time>2026-03-28T15:51:07.582Z</time></trkpt><trkpt lat="45.5599485" lon="10.4943918"><ele>282.0</ele><time>2026-03-28T15:51:09.574Z</time></trkpt><trkpt lat="45.5600215" lon="10.4942735"><ele>282.0</ele><time>2026-03-28T15:51:11.566Z</time></trkpt><trkpt lat="45.5600501" lon="10.49417"><ele>282.0</ele><time>2026-03-28T15:51:12.562Z</time></trkpt><trkpt lat="45.5600623" lon="10.4940305"><ele>282.0</ele><time>2026-03-28T15:51:13.578Z</time></trkpt><trkpt lat="45.5600597" lon="10.4938653"><ele>282.0</ele><time>2026-03-28T15:51:14.567Z</time></trkpt><trkpt lat="45.5600522" lon="10.4937009"><ele>281.8</ele><time>2026-03-28T15:51:15.568Z</time></trkpt><trkpt lat="45.5600563" lon="10.493554"><ele>281.6</ele><time>2026-03-28T15:51:16.564Z</time></trkpt><trkpt lat="45.5600761" lon="10.4934278"><ele>281.40000000000003</ele><time>2026-03-28T15:51:17.566Z</time></trkpt><trkpt lat="45.5601141" lon="10.493325"><ele>281.2</ele><time>2026-03-28T15:51:18.561Z</time></trkpt><trkpt lat="45.5601688" lon="10.4932287"><ele>281.0</ele><time>2026-03-28T15:51:19.552Z</time></trkpt><trkpt lat="45.5602422" lon="10.4931101"><ele>281.0</ele><time>2026-03-28T15:51:20.556Z</time></trkpt><trkpt lat="45.5603219" lon="10.4929741"><ele>281.0</ele><time>2026-03-28T15:51:21.569Z</time></trkpt><trkpt lat="45.5604002" lon="10.4928547"><ele>281.0</ele><time>2026-03-28T15:51:22.568Z</time></trkpt><trkpt lat="45.5604611" lon="10.4927263"><ele>281.0</ele><time>2026-03-28T15:51:23.571Z</time></trkpt><trkpt lat="45.5605371" lon="10.4925713"><ele>280.0</ele><time>2026-03-28T15:51:24.565Z</time></trkpt><trkpt lat="45.5606287" lon="10.4924152"><ele>279.0</ele><time>2026-03-28T15:51:25.561Z</time></trkpt><trkpt lat="45.560718" lon="10.492287"><ele>278.0</ele><time>2026-03-28T15:51:26.57Z</time></trkpt><trkpt lat="45.5608157" lon="10.4921815"><ele>277.0</ele><time>2026-03-28T15:51:27.57Z</time></trkpt><trkpt lat="45.5609046" lon="10.4920869"><ele>277.0</ele><time>2026-03-28T15:51:28.567Z</time></trkpt><trkpt lat="45.5609849" lon="10.4920054"><ele>277.0</ele><time>2026-03-28T15:51:29.573Z</time></trkpt><trkpt lat="45.5610449" lon="10.4919328"><ele>277.0</ele><time>2026-03-28T15:51:30.567Z</time></trkpt><trkpt lat="45.5610933" lon="10.4918542"><ele>277.0</ele><time>2026-03-28T15:51:31.579Z</time></trkpt><trkpt lat="45.5611397" lon="10.4917704"><ele>277.0</ele><time>2026-03-28T15:51:32.569Z</time></trkpt><trkpt lat="45.5612082" lon="10.4916752"><ele>277.0</ele><time>2026-03-28T15:51:33.56Z</time></trkpt><trkpt lat="45.5612958" lon="10.4915904"><ele>279.0</ele><time>2026-03-28T15:51:34.574Z</time></trkpt><trkpt lat="45.5614108" lon="10.4915273"><ele>281.0</ele><time>2026-03-28T15:51:35.565Z</time></trkpt><trkpt lat="45.5615446" lon="10.4914774"><ele>283.0</ele><time>2026-03-28T15:51:36.564Z</time></trkpt><trkpt lat="45.5616789" lon="10.4914462"><ele>285.0</ele><time>2026-03-28T15:51:37.557Z</time></trkpt><trkpt lat="45.561812" lon="10.4914308"><ele>285.0</ele><time>2026-03-28T15:51:38.565Z</time></trkpt><trkpt lat="45.5619525" lon="10.4914022"><ele>285.0</ele><time>2026-03-28T15:51:39.567Z</time></trkpt><trkpt lat="45.5620883" lon="10.4913542"><ele>285.0</ele><time>2026-03-28T15:51:40.561Z</time></trkpt><trkpt lat="45.562217" lon="10.4913082"><ele>285.0</ele><time>2026-03-28T15:51:41.574Z</time></trkpt><trkpt lat="45.5623472" lon="10.4912619"><ele>285.8333333333333</ele><time>2026-03-28T15:51:42.568Z</time></trkpt><trkpt lat="45.5624539" lon="10.491247"><ele>286.6666666666667</ele><time>2026-03-28T15:51:43.563Z</time></trkpt><trkpt lat="45.5625482" lon="10.4912059"><ele>287.5</ele><time>2026-03-28T15:51:44.577Z</time></trkpt><trkpt lat="45.5626339" lon="10.4911785"><ele>288.33333333333337</ele><time>2026-03-28T15:51:45.563Z</time></trkpt><trkpt lat="45.5626939" lon="10.4911376"><ele>289.1666666666667</ele><time>2026-03-28T15:51:46.562Z</time></trkpt><trkpt lat="45.562775" lon="10.4911412"><ele>290.0</ele><time>2026-03-28T15:51:47.563Z</time></trkpt><trkpt lat="45.5628433" lon="10.4911187"><ele>290.4</ele><time>2026-03-28T15:51:48.553Z</time></trkpt><trkpt lat="45.5629326" lon="10.4910826"><ele>290.8</ele><time>2026-03-28T15:51:49.562Z</time></trkpt><trkpt lat="45.5630252" lon="10.4910137"><ele>291.2</ele><time>2026-03-28T15:51:50.552Z</time></trkpt><trkpt lat="45.5631279" lon="10.4909404"><ele>291.6</ele><time>2026-03-28T15:51:51.546Z</time></trkpt><trkpt lat="45.5632255" lon="10.4908857"><ele>292.0</ele><time>2026-03-28T15:51:52.54Z</time></trkpt><trkpt lat="45.5632972" lon="10.4908343"><ele>292.0</ele><time>2026-03-28T15:51:53.535Z</time></trkpt><trkpt lat="45.5633604" lon="10.4907663"><ele>292.0</ele><time>2026-03-28T15:51:54.531Z</time></trkpt><trkpt lat="45.5634183" lon="10.490714"><ele>292.0</ele><time>2026-03-28T15:51:55.53Z</time></trkpt><trkpt lat="45.5635546" lon="10.4907021"><ele>292.0</ele><time>2026-03-28T15:51:57.534Z</time></trkpt><trkpt lat="45.5636534" lon="10.4907078"><ele>292.0</ele><time>2026-03-28T15:51:58.54Z</time></trkpt><trkpt lat="45.5637596" lon="10.4907177"><ele>292.5</ele><time>2026-03-28T15:51:59.546Z</time></trkpt><trkpt lat="45.5638694" lon="10.4907374"><ele>293.0</ele><time>2026-03-28T15:52:00.541Z</time></trkpt><trkpt lat="45.5639604" lon="10.4907626"><ele>293.5</ele><time>2026-03-28T15:52:01.547Z</time></trkpt><trkpt lat="45.56403" lon="10.4907998"><ele>294.0</ele><time>2026-03-28T15:52:02.554Z</time></trkpt><trkpt lat="45.5641158" lon="10.4908652"><ele>294.5</ele><time>2026-03-28T15:52:04.563Z</time></trkpt><trkpt lat="45.5641775" lon="10.4908115"><ele>295.0</ele><time>2026-03-28T15:52:17.583Z</time></trkpt><trkpt lat="45.5642561" lon="10.4906468"><ele>295.0</ele><time>2026-03-28T15:52:19.566Z</time></trkpt><trkpt lat="45.5643133" lon="10.4904861"><ele>295.0</ele><time>2026-03-28T15:52:20.565Z</time></trkpt><trkpt lat="45.5643777" lon="10.4903278"><ele>295.0</ele><time>2026-03-28T15:52:21.566Z</time></trkpt><trkpt lat="45.5644392" lon="10.4901739"><ele>295.0</ele><time>2026-03-28T15:52:22.573Z</time></trkpt><trkpt lat="45.5644941" lon="10.4900378"><ele>294.2</ele><time>2026-03-28T15:52:23.571Z</time></trkpt><trkpt lat="45.5645511" lon="10.489913"><ele>293.4</ele><time>2026-03-28T15:52:24.576Z</time></trkpt><trkpt lat="45.5646213" lon="10.4897912"><ele>292.6</ele><time>2026-03-28T15:52:25.573Z</time></trkpt><trkpt lat="45.5647031" lon="10.4896752"><ele>291.8</ele><time>2026-03-28T15:52:26.567Z</time></trkpt><trkpt lat="45.5647825" lon="10.4895761"><ele>291.0</ele><time>2026-03-28T15:52:27.572Z</time></trkpt><trkpt lat="45.5648722" lon="10.4894828"><ele>290.6</ele><time>2026-03-28T15:52:28.579Z</time></trkpt><trkpt lat="45.5649657" lon="10.4893998"><ele>290.20000000000005</ele><time>2026-03-28T15:52:29.569Z</time></trkpt><trkpt lat="45.5650496" lon="10.4893288"><ele>289.79999999999995</ele><time>2026-03-28T15:52:30.58Z</time></trkpt><trkpt lat="45.5651187" lon="10.4892582"><ele>289.4</ele><time>2026-03-28T15:52:31.576Z</time></trkpt><trkpt lat="45.5651947" lon="10.4891865"><ele>289.0</ele><time>2026-03-28T15:52:32.575Z</time></trkpt><trkpt lat="45.5652806" lon="10.4891147"><ele>289.0</ele><time>2026-03-28T15:52:33.571Z</time></trkpt><trkpt lat="45.5653571" lon="10.4890652"><ele>289.0</ele><time>2026-03-28T15:52:34.575Z</time></trkpt><trkpt lat="45.5654468" lon="10.4890118"><ele>289.0</ele><time>2026-03-28T15:52:36.57Z</time></trkpt><trkpt lat="45.5655607" lon="10.4890389"><ele>289.0</ele><time>2026-03-28T15:52:39.595Z</time></trkpt><trkpt lat="45.5656002" lon="10.4891285"><ele>289.0</ele><time>2026-03-28T15:52:40.57Z</time></trkpt><trkpt lat="45.5656626" lon="10.4892501"><ele>289.25</ele><time>2026-03-28T15:52:41.56Z</time></trkpt><trkpt lat="45.5657354" lon="10.4894083"><ele>289.5</ele><time>2026-03-28T15:52:42.57Z</time></trkpt><trkpt lat="45.5658149" lon="10.489556"><ele>289.75</ele><time>2026-03-28T15:52:43.578Z</time></trkpt><trkpt lat="45.56588" lon="10.489699"><ele>290.0</ele><time>2026-03-28T15:52:44.578Z</time></trkpt><trkpt lat="45.5659418" lon="10.4898132"><ele>290.6</ele><time>2026-03-28T15:52:45.579Z</time></trkpt><trkpt lat="45.5659923" lon="10.4899147"><ele>291.2</ele><time>2026-03-28T15:52:46.588Z</time></trkpt><trkpt lat="45.5660422" lon="10.4900395"><ele>291.8</ele><time>2026-03-28T15:52:47.578Z</time></trkpt><trkpt lat="45.5660818" lon="10.4901619"><ele>292.4</ele><time>2026-03-28T15:52:48.575Z</time></trkpt><trkpt lat="45.5661223" lon="10.4902886"><ele>293.0</ele><time>2026-03-28T15:52:49.58Z</time></trkpt><trkpt lat="45.5661546" lon="10.4904052"><ele>293.2</ele><time>2026-03-28T15:52:50.578Z</time></trkpt><trkpt lat="45.566181" lon="10.4905256"><ele>293.4</ele><time>2026-03-28T15:52:51.572Z</time></trkpt><trkpt lat="45.5662187" lon="10.4906379"><ele>293.59999999999997</ele><time>2026-03-28T15:52:52.566Z</time></trkpt><trkpt lat="45.5662801" lon="10.4907576"><ele>293.8</ele><time>2026-03-28T15:52:53.564Z</time></trkpt><trkpt lat="45.5663714" lon="10.4908678"><ele>294.0</ele><time>2026-03-28T15:52:54.573Z</time></trkpt><trkpt lat="45.5664391" lon="10.4909744"><ele>294.0</ele><time>2026-03-28T15:52:55.572Z</time></trkpt><trkpt lat="45.566522" lon="10.4910472"><ele>294.0</ele><time>2026-03-28T15:52:56.56Z</time></trkpt><trkpt lat="45.5666188" lon="10.4911144"><ele>294.0</ele><time>2026-03-28T15:52:57.56Z</time></trkpt><trkpt lat="45.5667183" lon="10.4911738"><ele>294.0</ele><time>2026-03-28T15:52:58.569Z</time></trkpt><trkpt lat="45.5668246" lon="10.4912042"><ele>294.0</ele><time>2026-03-28T15:52:59.572Z</time></trkpt><trkpt lat="45.5669201" lon="10.4912299"><ele>294.0</ele><time>2026-03-28T15:53:00.568Z</time></trkpt><trkpt lat="45.567008" lon="10.4912456"><ele>294.0</ele><time>2026-03-28T15:53:01.576Z</time></trkpt><trkpt lat="45.5670912" lon="10.4912555"><ele>294.0</ele><time>2026-03-28T15:53:02.571Z</time></trkpt><trkpt lat="45.5671753" lon="10.4912455"><ele>294.0</ele><time>2026-03-28T15:53:03.573Z</time></trkpt><trkpt lat="45.5672529" lon="10.4912284"><ele>294.0</ele><time>2026-03-28T15:53:04.577Z</time></trkpt><trkpt lat="45.5673195" lon="10.4912216"><ele>294.0</ele><time>2026-03-28T15:53:05.58Z</time></trkpt><trkpt lat="45.5674172" lon="10.4912472"><ele>294.59999999999997</ele><time>2026-03-28T15:53:07.574Z</time></trkpt><trkpt lat="45.5674911" lon="10.4913412"><ele>295.2</ele><time>2026-03-28T15:53:09.564Z</time></trkpt><trkpt lat="45.5675257" lon="10.4914269"><ele>295.79999999999995</ele><time>2026-03-28T15:53:10.571Z</time></trkpt><trkpt lat="45.5675476" lon="10.4915626"><ele>296.4</ele><time>2026-03-28T15:53:11.571Z</time></trkpt><trkpt lat="45.5675696" lon="10.4917049"><ele>297.0</ele><time>2026-03-28T15:53:12.56Z</time></trkpt><trkpt lat="45.5676013" lon="10.4918267"><ele>297.0</ele><time>2026-03-28T15:53:13.565Z</time></trkpt><trkpt lat="45.5676375" lon="10.4919247"><ele>297.0</ele><time>2026-03-28T15:53:14.567Z</time></trkpt><trkpt lat="45.5676844" lon="10.4919982"><ele>297.0</ele><time>2026-03-28T15:53:15.564Z</time></trkpt><trkpt lat="45.5677733" lon="10.4921088"><ele>297.0</ele><time>2026-03-28T15:53:17.581Z</time></trkpt><trkpt lat="45.5678389" lon="10.4921838"><ele>297.0</ele><time>2026-03-28T15:53:19.565Z</time></trkpt><trkpt lat="45.5678877" lon="10.4922578"><ele>297.0</ele><time>2026-03-28T15:53:21.565Z</time></trkpt><trkpt lat="45.5678867" lon="10.4924467"><ele>296.8</ele><time>2026-03-28T15:53:23.551Z</time></trkpt><trkpt lat="45.5678725" lon="10.4925797"><ele>296.6</ele><time>2026-03-28T15:53:24.552Z</time></trkpt><trkpt lat="45.5678529" lon="10.4927403"><ele>296.40000000000003</ele><time>2026-03-28T15:53:25.546Z</time></trkpt><trkpt lat="45.5678377" lon="10.4928788"><ele>296.2</ele><time>2026-03-28T15:53:26.537Z</time></trkpt><trkpt lat="45.5678346" lon="10.4930098"><ele>296.0</ele><time>2026-03-28T15:53:27.542Z</time></trkpt><trkpt lat="45.567822" lon="10.4931343"><ele>296.0</ele><time>2026-03-28T15:53:28.554Z</time></trkpt><trkpt lat="45.5678165" lon="10.4932456"><ele>296.0</ele><time>2026-03-28T15:53:29.55Z</time></trkpt><trkpt lat="45.5678261" lon="10.4933503"><ele>296.0</ele><time>2026-03-28T15:53:30.554Z</time></trkpt><trkpt lat="45.567792" lon="10.4935261"><ele>296.0</ele><time>2026-03-28T15:53:32.554Z</time></trkpt><trkpt lat="45.5677609" lon="10.493614"><ele>296.0</ele><time>2026-03-28T15:53:33.546Z</time></trkpt><trkpt lat="45.5677226" lon="10.4936866"><ele>296.0</ele><time>2026-03-28T15:53:34.553Z</time></trkpt><trkpt lat="45.567677" lon="10.4937636"><ele>295.8571428571429</ele><time>2026-03-28T15:53:35.549Z</time></trkpt><trkpt lat="45.5676585" lon="10.4938536"><ele>295.7142857142857</ele><time>2026-03-28T15:53:36.552Z</time></trkpt><trkpt lat="45.5676647" lon="10.49395"><ele>295.57142857142856</ele><time>2026-03-28T15:53:37.547Z</time></trkpt><trkpt lat="45.5676799" lon="10.4940605"><ele>295.42857142857144</ele><time>2026-03-28T15:53:38.544Z</time></trkpt><trkpt lat="45.5677001" lon="10.494151"><ele>295.2857142857143</ele><time>2026-03-28T15:53:39.545Z</time></trkpt><trkpt lat="45.5677194" lon="10.4942448"><ele>295.14285714285717</ele><time>2026-03-28T15:53:40.54Z</time></trkpt><trkpt lat="45.5677364" lon="10.4943495"><ele>295.0</ele><time>2026-03-28T15:53:41.546Z</time></trkpt><trkpt lat="45.5677456" lon="10.4944615"><ele>293.4</ele><time>2026-03-28T15:53:42.545Z</time></trkpt><trkpt lat="45.5677567" lon="10.4945927"><ele>291.8</ele><time>2026-03-28T15:53:43.553Z</time></trkpt><trkpt lat="45.5677328" lon="10.4947227"><ele>290.2</ele><time>2026-03-28T15:53:44.545Z</time></trkpt><trkpt lat="45.5677109" lon="10.4948708"><ele>288.6</ele><time>2026-03-28T15:53:45.558Z</time></trkpt><trkpt lat="45.5676849" lon="10.4950272"><ele>287.0</ele><time>2026-03-28T15:53:46.552Z</time></trkpt><trkpt lat="45.5676423" lon="10.4951879"><ele>287.0</ele><time>2026-03-28T15:53:47.554Z</time></trkpt><trkpt lat="45.5676104" lon="10.4953445"><ele>287.0</ele><time>2026-03-28T15:53:48.561Z</time></trkpt><trkpt lat="45.5675739" lon="10.4954815"><ele>287.0</ele><time>2026-03-28T15:53:49.548Z</time></trkpt><trkpt lat="45.5675507" lon="10.495611"><ele>287.0</ele><time>2026-03-28T15:53:50.553Z</time></trkpt><trkpt lat="45.5675408" lon="10.4957179"><ele>287.0</ele><time>2026-03-28T15:53:51.56Z</time></trkpt><trkpt lat="45.5675307" lon="10.4958427"><ele>285.5</ele><time>2026-03-28T15:53:52.559Z</time></trkpt><trkpt lat="45.5675385" lon="10.4959482"><ele>284.0</ele><time>2026-03-28T15:53:53.554Z</time></trkpt><trkpt lat="45.5675546" lon="10.4960372"><ele>282.5</ele><time>2026-03-28T15:53:54.565Z</time></trkpt><trkpt lat="45.5675846" lon="10.4961583"><ele>281.0</ele><time>2026-03-28T15:53:56.558Z</time></trkpt><trkpt lat="45.5676438" lon="10.4961969"><ele>279.5</ele><time>2026-03-28T15:53:58.566Z</time></trkpt><trkpt lat="45.5677533" lon="10.4961519"><ele>278.0</ele><time>2026-03-28T15:54:00.562Z</time></trkpt><trkpt lat="45.5678364" lon="10.4960881"><ele>279.5</ele><time>2026-03-28T15:54:01.566Z</time></trkpt><trkpt lat="45.567909" lon="10.4960364"><ele>281.0</ele><time>2026-03-28T15:54:02.552Z</time></trkpt><trkpt lat="45.5679769" lon="10.4959854"><ele>282.5</ele><time>2026-03-28T15:54:03.552Z</time></trkpt><trkpt lat="45.5680463" lon="10.4959413"><ele>284.0</ele><time>2026-03-28T15:54:04.548Z</time></trkpt><trkpt lat="45.568113" lon="10.4958959"><ele>285.5</ele><time>2026-03-28T15:54:05.545Z</time></trkpt><trkpt lat="45.5681643" lon="10.4958303"><ele>287.0</ele><time>2026-03-28T15:54:06.548Z</time></trkpt><trkpt lat="45.5682018" lon="10.4957179"><ele>287.0</ele><time>2026-03-28T15:54:07.537Z</time></trkpt><trkpt lat="45.5682336" lon="10.495572"><ele>287.0</ele><time>2026-03-28T15:54:08.553Z</time></trkpt><trkpt lat="45.5682654" lon="10.4953945"><ele>287.0</ele><time>2026-03-28T15:54:09.545Z</time></trkpt><trkpt lat="45.5683053" lon="10.4952227"><ele>287.0</ele><time>2026-03-28T15:54:10.541Z</time></trkpt><trkpt lat="45.5683326" lon="10.4950843"><ele>287.8</ele><time>2026-03-28T15:54:11.543Z</time></trkpt><trkpt lat="45.5683463" lon="10.4949685"><ele>288.6</ele><time>2026-03-28T15:54:12.545Z</time></trkpt><trkpt lat="45.5684116" lon="10.4948216"><ele>289.40000000000003</ele><time>2026-03-28T15:54:14.55Z</time></trkpt><trkpt lat="45.5684885" lon="10.4947665"><ele>290.2</ele><time>2026-03-28T15:54:15.547Z</time></trkpt><trkpt lat="45.5685809" lon="10.4947112"><ele>291.0</ele><time>2026-03-28T15:54:16.551Z</time></trkpt><trkpt lat="45.5686995" lon="10.4946523"><ele>290.25</ele><time>2026-03-28T15:54:17.549Z</time></trkpt><trkpt lat="45.5688207" lon="10.4945829"><ele>289.5</ele><time>2026-03-28T15:54:18.552Z</time></trkpt><trkpt lat="45.5689371" lon="10.4945164"><ele>288.75</ele><time>2026-03-28T15:54:19.558Z</time></trkpt><trkpt lat="45.5690457" lon="10.4944846"><ele>288.0</ele><time>2026-03-28T15:54:20.545Z</time></trkpt><trkpt lat="45.5691336" lon="10.4944599"><ele>288.0</ele><time>2026-03-28T15:54:21.547Z</time></trkpt><trkpt lat="45.5692034" lon="10.4944313"><ele>288.0</ele><time>2026-03-28T15:54:22.552Z</time></trkpt><trkpt lat="45.5692572" lon="10.494369"><ele>288.0</ele><time>2026-03-28T15:54:23.566Z</time></trkpt><trkpt lat="45.5692882" lon="10.4942766"><ele>288.0</ele><time>2026-03-28T15:54:24.555Z</time></trkpt><trkpt lat="45.5693476" lon="10.4941739"><ele>288.0</ele><time>2026-03-28T15:54:26.558Z</time></trkpt><trkpt lat="45.5694791" lon="10.4941358"><ele>288.0</ele><time>2026-03-28T15:54:28.554Z</time></trkpt><trkpt lat="45.5695817" lon="10.4941185"><ele>288.4</ele><time>2026-03-28T15:54:29.552Z</time></trkpt><trkpt lat="45.5697003" lon="10.4940909"><ele>288.8</ele><time>2026-03-28T15:54:30.556Z</time></trkpt><trkpt lat="45.5698133" lon="10.4940767"><ele>289.2</ele><time>2026-03-28T15:54:31.556Z</time></trkpt><trkpt lat="45.5699026" lon="10.494063"><ele>289.6</ele><time>2026-03-28T15:54:32.554Z</time></trkpt><trkpt lat="45.5700129" lon="10.4940389"><ele>290.0</ele><time>2026-03-28T15:54:34.555Z</time></trkpt><trkpt lat="45.5700947" lon="10.494069"><ele>290.0</ele><time>2026-03-28T15:54:36.549Z</time></trkpt><trkpt lat="45.5701561" lon="10.4942668"><ele>290.0</ele><time>2026-03-28T15:54:38.55Z</time></trkpt><trkpt lat="45.5701813" lon="10.4944259"><ele>290.0</ele><time>2026-03-28T15:54:39.55Z</time></trkpt><trkpt lat="45.5702101" lon="10.4945767"><ele>290.0</ele><time>2026-03-28T15:54:40.554Z</time></trkpt><trkpt lat="45.5702514" lon="10.494683"><ele>290.4</ele><time>2026-03-28T15:54:41.567Z</time></trkpt><trkpt lat="45.5703062" lon="10.4947588"><ele>290.8</ele><time>2026-03-28T15:54:42.553Z</time></trkpt><trkpt lat="45.5703904" lon="10.4948095"><ele>291.2</ele><time>2026-03-28T15:54:43.559Z</time></trkpt><trkpt lat="45.5704837" lon="10.4948735"><ele>291.6</ele><time>2026-03-28T15:54:44.549Z</time></trkpt><trkpt lat="45.5705912" lon="10.4949243"><ele>292.0</ele><time>2026-03-28T15:54:45.561Z</time></trkpt><trkpt lat="45.5706841" lon="10.4949803"><ele>292.16666666666663</ele><time>2026-03-28T15:54:46.555Z</time></trkpt><trkpt lat="45.5707672" lon="10.4950204"><ele>292.3333333333333</ele><time>2026-03-28T15:54:47.566Z</time></trkpt><trkpt lat="45.5708453" lon="10.4950404"><ele>292.5</ele><time>2026-03-28T15:54:48.557Z</time></trkpt><trkpt lat="45.5709244" lon="10.4950631"><ele>292.6666666666667</ele><time>2026-03-28T15:54:49.562Z</time></trkpt><trkpt lat="45.5709989" lon="10.495086"><ele>292.83333333333337</ele><time>2026-03-28T15:54:50.575Z</time></trkpt><trkpt lat="45.571061" lon="10.4951053"><ele>293.0</ele><time>2026-03-28T15:54:51.559Z</time></trkpt><trkpt lat="45.5711261" lon="10.4951194"><ele>293.6666666666667</ele><time>2026-03-28T15:54:52.572Z</time></trkpt><trkpt lat="45.5711996" lon="10.4951464"><ele>294.33333333333337</ele><time>2026-03-28T15:54:53.566Z</time></trkpt><trkpt lat="45.5712883" lon="10.4952042"><ele>295.0</ele><time>2026-03-28T15:54:54.567Z</time></trkpt><trkpt lat="45.5713825" lon="10.4952592"><ele>295.6666666666667</ele><time>2026-03-28T15:54:55.567Z</time></trkpt><trkpt lat="45.5714626" lon="10.495321"><ele>296.3333333333333</ele><time>2026-03-28T15:54:56.561Z</time></trkpt><trkpt lat="45.5715307" lon="10.4953896"><ele>297.0</ele><time>2026-03-28T15:54:57.571Z</time></trkpt><trkpt lat="45.5715791" lon="10.4954494"><ele>297.0</ele><time>2026-03-28T15:54:58.567Z</time></trkpt><trkpt lat="45.5716203" lon="10.4955181"><ele>297.0</ele><time>2026-03-28T15:54:59.569Z</time></trkpt><trkpt lat="45.5716498" lon="10.4955986"><ele>297.0</ele><time>2026-03-28T15:55:00.578Z</time></trkpt><trkpt lat="45.5716707" lon="10.4956966"><ele>297.0</ele><time>2026-03-28T15:55:01.561Z</time></trkpt><trkpt lat="45.5716833" lon="10.4958298"><ele>297.0</ele><time>2026-03-28T15:55:02.583Z</time></trkpt><trkpt lat="45.571694" lon="10.4960031"><ele>297.0</ele><time>2026-03-28T15:55:03.574Z</time></trkpt><trkpt lat="45.5717186" lon="10.4961892"><ele>298.0</ele><time>2026-03-28T15:55:04.572Z</time></trkpt><trkpt lat="45.5717526" lon="10.4963775"><ele>299.0</ele><time>2026-03-28T15:55:05.571Z</time></trkpt><trkpt lat="45.5717968" lon="10.4965443"><ele>300.0</ele><time>2026-03-28T15:55:06.568Z</time></trkpt><trkpt lat="45.5718476" lon="10.4966933"><ele>301.0</ele><time>2026-03-28T15:55:07.562Z</time></trkpt><trkpt lat="45.5719029" lon="10.4968323"><ele>301.0</ele><time>2026-03-28T15:55:08.559Z</time></trkpt><trkpt lat="45.5719536" lon="10.4969498"><ele>301.0</ele><time>2026-03-28T15:55:09.562Z</time></trkpt><trkpt lat="45.572" lon="10.4970501"><ele>301.0</ele><time>2026-03-28T15:55:10.561Z</time></trkpt><trkpt lat="45.572039" lon="10.497128"><ele>301.0</ele><time>2026-03-28T15:55:11.551Z</time></trkpt><trkpt lat="45.572101" lon="10.4972431"><ele>301.0</ele><time>2026-03-28T15:55:13.555Z</time></trkpt><trkpt lat="45.5721214" lon="10.4973397"><ele>301.0</ele><time>2026-03-28T15:55:15.552Z</time></trkpt><trkpt lat="45.5721093" lon="10.497448"><ele>298.8</ele><time>2026-03-28T15:55:17.581Z</time></trkpt><trkpt lat="45.5721058" lon="10.4975978"><ele>296.6</ele><time>2026-03-28T15:55:19.565Z</time></trkpt><trkpt lat="45.5720927" lon="10.4977112"><ele>294.4</ele><time>2026-03-28T15:55:20.567Z</time></trkpt><trkpt lat="45.5720636" lon="10.4978328"><ele>292.2</ele><time>2026-03-28T15:55:21.579Z</time></trkpt><trkpt lat="45.5720352" lon="10.4979635"><ele>290.0</ele><time>2026-03-28T15:55:22.566Z</time></trkpt><trkpt lat="45.5720102" lon="10.4981055"><ele>290.0</ele><time>2026-03-28T15:55:23.563Z</time></trkpt><trkpt lat="45.5719913" lon="10.4982412"><ele>290.0</ele><time>2026-03-28T15:55:24.56Z</time></trkpt><trkpt lat="45.5719885" lon="10.4983681"><ele>290.0</ele><time>2026-03-28T15:55:25.55Z</time></trkpt><trkpt lat="45.5720098" lon="10.4984932"><ele>290.0</ele><time>2026-03-28T15:55:26.555Z</time></trkpt><trkpt lat="45.5720267" lon="10.4986113"><ele>290.0</ele><time>2026-03-28T15:55:27.563Z</time></trkpt><trkpt lat="45.5720608" lon="10.4987301"><ele>288.1666666666667</ele><time>2026-03-28T15:55:28.56Z</time></trkpt><trkpt lat="45.5720994" lon="10.4988261"><ele>286.33333333333337</ele><time>2026-03-28T15:55:29.564Z</time></trkpt><trkpt lat="45.5721336" lon="10.4989149"><ele>284.5</ele><time>2026-03-28T15:55:30.563Z</time></trkpt><trkpt lat="45.5721579" lon="10.498999"><ele>282.6666666666667</ele><time>2026-03-28T15:55:31.571Z</time></trkpt><trkpt lat="45.5722091" lon="10.4991497"><ele>280.8333333333333</ele><time>2026-03-28T15:55:33.574Z</time></trkpt><trkpt lat="45.5722365" lon="10.4992823"><ele>279.0</ele><time>2026-03-28T15:55:35.56Z</time></trkpt><trkpt lat="45.5722243" lon="10.4993815"><ele>279.0</ele><time>2026-03-28T15:55:37.579Z</time></trkpt><trkpt lat="45.5722757" lon="10.4992913"><ele>279.0</ele><time>2026-03-28T15:55:44.594Z</time></trkpt><trkpt lat="45.5722817" lon="10.4991802"><ele>279.0</ele><time>2026-03-28T15:55:45.585Z</time></trkpt><trkpt lat="45.5722789" lon="10.4990389"><ele>279.0</ele><time>2026-03-28T15:55:46.575Z</time></trkpt><trkpt lat="45.5722835" lon="10.4988739"><ele>279.0</ele><time>2026-03-28T15:55:47.575Z</time></trkpt><trkpt lat="45.5722983" lon="10.4986949"><ele>280.0</ele><time>2026-03-28T15:55:48.57Z</time></trkpt><trkpt lat="45.5723234" lon="10.4985064"><ele>281.0</ele><time>2026-03-28T15:55:49.582Z</time></trkpt><trkpt lat="45.5723534" lon="10.4983246"><ele>282.0</ele><time>2026-03-28T15:55:50.568Z</time></trkpt><trkpt lat="45.572405" lon="10.498142"><ele>283.0</ele><time>2026-03-28T15:55:51.569Z</time></trkpt><trkpt lat="45.5724768" lon="10.4979586"><ele>284.5</ele><time>2026-03-28T15:55:52.575Z</time></trkpt><trkpt lat="45.5725488" lon="10.4977985"><ele>286.0</ele><time>2026-03-28T15:55:53.565Z</time></trkpt><trkpt lat="45.5726194" lon="10.4976459"><ele>287.5</ele><time>2026-03-28T15:55:54.568Z</time></trkpt><trkpt lat="45.5726686" lon="10.49747"><ele>289.0</ele><time>2026-03-28T15:55:55.557Z</time></trkpt><trkpt lat="45.5727283" lon="10.4973212"><ele>289.0</ele><time>2026-03-28T15:55:56.586Z</time></trkpt><trkpt lat="45.5727915" lon="10.4971768"><ele>289.0</ele><time>2026-03-28T15:55:57.576Z</time></trkpt><trkpt lat="45.5728195" lon="10.4970029"><ele>289.0</ele><time>2026-03-28T15:55:58.578Z</time></trkpt><trkpt lat="45.5728086" lon="10.4968457"><ele>289.0</ele><time>2026-03-28T15:55:59.58Z</time></trkpt><trkpt lat="45.5728055" lon="10.4966899"><ele>289.25</ele><time>2026-03-28T15:56:00.575Z</time></trkpt><trkpt lat="45.572792" lon="10.496517"><ele>289.5</ele><time>2026-03-28T15:56:01.571Z</time></trkpt><trkpt lat="45.5727828" lon="10.4963424"><ele>289.75</ele><time>2026-03-28T15:56:02.58Z</time></trkpt><trkpt lat="45.5727635" lon="10.496178"><ele>290.0</ele><time>2026-03-28T15:56:04.654Z</time></trkpt><trkpt lat="45.5727428" lon="10.4960219"><ele>290.6</ele><time>2026-03-28T15:56:05.649Z</time></trkpt><trkpt lat="45.5727179" lon="10.4958827"><ele>291.2</ele><time>2026-03-28T15:56:06.656Z</time></trkpt><trkpt lat="45.5726775" lon="10.4957469"><ele>291.8</ele><time>2026-03-28T15:56:07.653Z</time></trkpt><trkpt lat="45.5726523" lon="10.495602"><ele>292.4</ele><time>2026-03-28T15:56:08.655Z</time></trkpt><trkpt lat="45.5726467" lon="10.4954627"><ele>293.0</ele><time>2026-03-28T15:56:09.635Z</time></trkpt><trkpt lat="45.5726636" lon="10.4953241"><ele>292.5</ele><time>2026-03-28T15:56:10.628Z</time></trkpt><trkpt lat="45.5726973" lon="10.4951921"><ele>292.0</ele><time>2026-03-28T15:56:11.625Z</time></trkpt><trkpt lat="45.5727405" lon="10.4950645"><ele>291.5</ele><time>2026-03-28T15:56:12.621Z</time></trkpt><trkpt lat="45.5727933" lon="10.4949492"><ele>291.0</ele><time>2026-03-28T15:56:13.635Z</time></trkpt><trkpt lat="45.5730049" lon="10.4947377"><ele>295.25</ele><time>2026-03-28T15:56:14.628Z</time></trkpt><trkpt lat="45.5731017" lon="10.4945728"><ele>299.5</ele><time>2026-03-28T15:56:15.639Z</time></trkpt><trkpt lat="45.5731977" lon="10.4944522"><ele>303.75</ele><time>2026-03-28T15:56:16.632Z</time></trkpt><trkpt lat="45.573291" lon="10.4943388"><ele>308.0</ele><time>2026-03-28T15:56:17.631Z</time></trkpt><trkpt lat="45.5733835" lon="10.494222"><ele>308.0</ele><time>2026-03-28T15:56:18.635Z</time></trkpt><trkpt lat="45.5734457" lon="10.4940749"><ele>308.0</ele><time>2026-03-28T15:56:19.626Z</time></trkpt><trkpt lat="45.5736111" lon="10.4937252"><ele>308.0</ele><time>2026-03-28T15:56:20.546Z</time></trkpt><trkpt lat="45.5736721" lon="10.493614"><ele>308.2</ele><time>2026-03-28T15:56:21.549Z</time></trkpt><trkpt lat="45.5736965" lon="10.4934879"><ele>308.4</ele><time>2026-03-28T15:56:22.549Z</time></trkpt><trkpt lat="45.5737217" lon="10.4933301"><ele>308.59999999999997</ele><time>2026-03-28T15:56:23.571Z</time></trkpt><trkpt lat="45.5737345" lon="10.4931626"><ele>308.8</ele><time>2026-03-28T15:56:24.561Z</time></trkpt><trkpt lat="45.5737428" lon="10.4929952"><ele>309.0</ele><time>2026-03-28T15:56:25.572Z</time></trkpt><trkpt lat="45.5737351" lon="10.4928355"><ele>309.0</ele><time>2026-03-28T15:56:26.567Z</time></trkpt><trkpt lat="45.5737382" lon="10.4926838"><ele>309.0</ele><time>2026-03-28T15:56:27.573Z</time></trkpt><trkpt lat="45.5737557" lon="10.4925364"><ele>309.0</ele><time>2026-03-28T15:56:28.572Z</time></trkpt><trkpt lat="45.5737991" lon="10.4924022"><ele>309.0</ele><time>2026-03-28T15:56:29.57Z</time></trkpt><trkpt lat="45.5738713" lon="10.4922995"><ele>309.0</ele><time>2026-03-28T15:56:30.563Z</time></trkpt><trkpt lat="45.5739688" lon="10.4922254"><ele>309.0</ele><time>2026-03-28T15:56:31.569Z</time></trkpt><trkpt lat="45.5740811" lon="10.4922072"><ele>309.0</ele><time>2026-03-28T15:56:32.556Z</time></trkpt><trkpt lat="45.5741946" lon="10.4922057"><ele>309.0</ele><time>2026-03-28T15:56:33.563Z</time></trkpt><trkpt lat="45.5742892" lon="10.4922052"><ele>309.0</ele><time>2026-03-28T15:56:34.583Z</time></trkpt><trkpt lat="45.5743612" lon="10.4922003"><ele>309.0</ele><time>2026-03-28T15:56:35.566Z</time></trkpt><trkpt lat="45.5744424" lon="10.4920622"><ele>309.5</ele><time>2026-03-28T15:56:37.561Z</time></trkpt><trkpt lat="45.5744437" lon="10.491937"><ele>310.0</ele><time>2026-03-28T15:56:38.571Z</time></trkpt><trkpt lat="45.5744298" lon="10.4917674"><ele>310.5</ele><time>2026-03-28T15:56:39.557Z</time></trkpt><trkpt lat="45.5744094" lon="10.4915743"><ele>311.0</ele><time>2026-03-28T15:56:40.555Z</time></trkpt><trkpt lat="45.5743922" lon="10.491351"><ele>311.0</ele><time>2026-03-28T15:56:41.558Z</time></trkpt><trkpt lat="45.5744043" lon="10.4911514"><ele>311.0</ele><time>2026-03-28T15:56:42.569Z</time></trkpt><trkpt lat="45.574444" lon="10.4909713"><ele>311.0</ele><time>2026-03-28T15:56:43.57Z</time></trkpt><trkpt lat="45.5744815" lon="10.4907914"><ele>311.0</ele><time>2026-03-28T15:56:44.581Z</time></trkpt><trkpt lat="45.5744972" lon="10.4906387"><ele>311.0</ele><time>2026-03-28T15:56:45.576Z</time></trkpt><trkpt lat="45.5744991" lon="10.490497"><ele>311.0</ele><time>2026-03-28T15:56:46.571Z</time></trkpt><trkpt lat="45.5744944" lon="10.4903498"><ele>311.0</ele><time>2026-03-28T15:56:47.58Z</time></trkpt><trkpt lat="45.5744798" lon="10.4902202"><ele>311.0</ele><time>2026-03-28T15:56:48.579Z</time></trkpt><trkpt lat="45.5744825" lon="10.4901126"><ele>311.0</ele><time>2026-03-28T15:56:49.588Z</time></trkpt><trkpt lat="45.5744775" lon="10.4899927"><ele>311.6</ele><time>2026-03-28T15:56:50.579Z</time></trkpt><trkpt lat="45.5744672" lon="10.4898602"><ele>312.20000000000005</ele><time>2026-03-28T15:56:51.59Z</time></trkpt><trkpt lat="45.574465" lon="10.4897222"><ele>312.79999999999995</ele><time>2026-03-28T15:56:52.576Z</time></trkpt><trkpt lat="45.5744868" lon="10.4896055"><ele>313.4</ele><time>2026-03-28T15:56:53.571Z</time></trkpt><trkpt lat="45.5745267" lon="10.4894897"><ele>314.0</ele><time>2026-03-28T15:56:54.581Z</time></trkpt><trkpt lat="45.5745896" lon="10.4893854"><ele>315.0</ele><time>2026-03-28T15:56:55.562Z</time></trkpt><trkpt lat="45.5746721" lon="10.4892829"><ele>316.0</ele><time>2026-03-28T15:56:56.565Z</time></trkpt><trkpt lat="45.574773" lon="10.4891632"><ele>317.0</ele><time>2026-03-28T15:56:57.554Z</time></trkpt><trkpt lat="45.5748755" lon="10.4890157"><ele>318.0</ele><time>2026-03-28T15:56:58.558Z</time></trkpt><trkpt lat="45.5749735" lon="10.488886"><ele>318.0</ele><time>2026-03-28T15:56:59.548Z</time></trkpt><trkpt lat="45.5750697" lon="10.4887817"><ele>318.0</ele><time>2026-03-28T15:57:00.54Z</time></trkpt><trkpt lat="45.5751708" lon="10.4886815"><ele>318.0</ele><time>2026-03-28T15:57:01.547Z</time></trkpt><trkpt lat="45.5752655" lon="10.4886025"><ele>318.0</ele><time>2026-03-28T15:57:02.559Z</time></trkpt><trkpt lat="45.5753738" lon="10.4885375"><ele>318.3333333333333</ele><time>2026-03-28T15:57:03.559Z</time></trkpt><trkpt lat="45.5754665" lon="10.4884881"><ele>318.6666666666667</ele><time>2026-03-28T15:57:04.556Z</time></trkpt><trkpt lat="45.5755373" lon="10.4884226"><ele>319.0</ele><time>2026-03-28T15:57:05.554Z</time></trkpt><trkpt lat="45.575579" lon="10.4883311"><ele>319.33333333333337</ele><time>2026-03-28T15:57:06.575Z</time></trkpt><trkpt lat="45.5755886" lon="10.4882359"><ele>319.6666666666667</ele><time>2026-03-28T15:57:07.558Z</time></trkpt><trkpt lat="45.5755755" lon="10.4881025"><ele>320.0</ele><time>2026-03-28T15:57:08.549Z</time></trkpt><trkpt lat="45.5755467" lon="10.4879558"><ele>319.5</ele><time>2026-03-28T15:57:09.56Z</time></trkpt><trkpt lat="45.5755388" lon="10.4878059"><ele>319.0</ele><time>2026-03-28T15:57:10.552Z</time></trkpt><trkpt lat="45.5755509" lon="10.4876125"><ele>318.5</ele><time>2026-03-28T15:57:11.559Z</time></trkpt><trkpt lat="45.5755667" lon="10.4873863"><ele>318.0</ele><time>2026-03-28T15:57:12.558Z</time></trkpt><trkpt lat="45.5755817" lon="10.4871947"><ele>316.75</ele><time>2026-03-28T15:57:13.562Z</time></trkpt><trkpt lat="45.5755865" lon="10.487018"><ele>315.5</ele><time>2026-03-28T15:57:14.565Z</time></trkpt><trkpt lat="45.575598" lon="10.4868445"><ele>314.25</ele><time>2026-03-28T15:57:15.572Z</time></trkpt><trkpt lat="45.5756035" lon="10.4866691"><ele>313.0</ele><time>2026-03-28T15:57:16.57Z</time></trkpt><trkpt lat="45.5755821" lon="10.4864991"><ele>313.0</ele><time>2026-03-28T15:57:17.583Z</time></trkpt><trkpt lat="45.5755553" lon="10.4863426"><ele>313.0</ele><time>2026-03-28T15:57:18.58Z</time></trkpt><trkpt lat="45.575527" lon="10.4861783"><ele>313.0</ele><time>2026-03-28T15:57:19.575Z</time></trkpt><trkpt lat="45.5754892" lon="10.4860197"><ele>313.0</ele><time>2026-03-28T15:57:20.584Z</time></trkpt><trkpt lat="45.5754441" lon="10.4858797"><ele>312.3333333333333</ele><time>2026-03-28T15:57:21.58Z</time></trkpt><trkpt lat="45.5754045" lon="10.4857581"><ele>311.66666666666663</ele><time>2026-03-28T15:57:22.586Z</time></trkpt><trkpt lat="45.5753725" lon="10.4856502"><ele>311.0</ele><time>2026-03-28T15:57:23.582Z</time></trkpt><trkpt lat="45.575355" lon="10.4855493"><ele>310.3333333333333</ele><time>2026-03-28T15:57:24.566Z</time></trkpt><trkpt lat="45.5753619" lon="10.4854324"><ele>309.6666666666667</ele><time>2026-03-28T15:57:25.58Z</time></trkpt><trkpt lat="45.5753922" lon="10.4853056"><ele>309.0</ele><time>2026-03-28T15:57:26.564Z</time></trkpt><trkpt lat="45.5754362" lon="10.4851488"><ele>307.0</ele><time>2026-03-28T15:57:27.571Z</time></trkpt><trkpt lat="45.5754947" lon="10.4849507"><ele>305.0</ele><time>2026-03-28T15:57:28.573Z</time></trkpt><trkpt lat="45.5755421" lon="10.4847157"><ele>303.0</ele><time>2026-03-28T15:57:29.563Z</time></trkpt><trkpt lat="45.5755746" lon="10.4844368"><ele>301.0</ele><time>2026-03-28T15:57:30.569Z</time></trkpt><trkpt lat="45.57561" lon="10.4842137"><ele>299.0</ele><time>2026-03-28T15:57:31.571Z</time></trkpt><trkpt lat="45.5756529" lon="10.4840284"><ele>297.0</ele><time>2026-03-28T15:57:32.568Z</time></trkpt><trkpt lat="45.5756872" lon="10.4838634"><ele>295.0</ele><time>2026-03-28T15:57:33.568Z</time></trkpt><trkpt lat="45.5757228" lon="10.4837135"><ele>293.5</ele><time>2026-03-28T15:57:34.581Z</time></trkpt><trkpt lat="45.5757655" lon="10.4835487"><ele>292.0</ele><time>2026-03-28T15:57:35.577Z</time></trkpt><trkpt lat="45.5757919" lon="10.4833872"><ele>290.5</ele><time>2026-03-28T15:57:36.575Z</time></trkpt><trkpt lat="45.5758112" lon="10.483227"><ele>289.0</ele><time>2026-03-28T15:57:37.578Z</time></trkpt><trkpt lat="45.5758268" lon="10.4830841"><ele>289.0</ele><time>2026-03-28T15:57:38.574Z</time></trkpt><trkpt lat="45.5758368" lon="10.4829447"><ele>289.0</ele><time>2026-03-28T15:57:39.58Z</time></trkpt><trkpt lat="45.5758415" lon="10.4828207"><ele>289.0</ele><time>2026-03-28T15:57:40.575Z</time></trkpt><trkpt lat="45.5758385" lon="10.4827056"><ele>289.0</ele><time>2026-03-28T15:57:41.568Z</time></trkpt><trkpt lat="45.5758273" lon="10.4825628"><ele>289.0</ele><time>2026-03-28T15:57:43.575Z</time></trkpt><trkpt lat="45.5757841" lon="10.4824721"><ele>289.0</ele><time>2026-03-28T15:57:59.582Z</time></trkpt><trkpt lat="45.5756256" lon="10.4824659"><ele>289.25</ele><time>2026-03-28T15:58:01.573Z</time></trkpt><trkpt lat="45.5755286" lon="10.4824934"><ele>289.5</ele><time>2026-03-28T15:58:02.589Z</time></trkpt><trkpt lat="45.5754107" lon="10.4825255"><ele>289.75</ele><time>2026-03-28T15:58:03.598Z</time></trkpt><trkpt lat="45.5752792" lon="10.4825573"><ele>290.0</ele><time>2026-03-28T15:58:05.681Z</time></trkpt><trkpt lat="45.5751364" lon="10.4825874"><ele>290.0</ele><time>2026-03-28T15:58:06.665Z</time></trkpt><trkpt lat="45.5749886" lon="10.4826109"><ele>290.0</ele><time>2026-03-28T15:58:07.668Z</time></trkpt><trkpt lat="45.5748391" lon="10.482629"><ele>290.0</ele><time>2026-03-28T15:58:08.665Z</time></trkpt><trkpt lat="45.5746833" lon="10.4826421"><ele>289.33333333333337</ele><time>2026-03-28T15:58:09.67Z</time></trkpt><trkpt lat="45.5745161" lon="10.4826445"><ele>288.6666666666667</ele><time>2026-03-28T15:58:10.671Z</time></trkpt><trkpt lat="45.5743574" lon="10.4826383"><ele>288.0</ele><time>2026-03-28T15:58:11.671Z</time></trkpt><trkpt lat="45.5741932" lon="10.4826331"><ele>288.0</ele><time>2026-03-28T15:58:12.682Z</time></trkpt><trkpt lat="45.5740239" lon="10.4826279"><ele>288.0</ele><time>2026-03-28T15:58:13.667Z</time></trkpt><trkpt lat="45.5738659" lon="10.4826237"><ele>288.0</ele><time>2026-03-28T15:58:14.671Z</time></trkpt><trkpt lat="45.5737214" lon="10.482622"><ele>289.0</ele><time>2026-03-28T15:58:15.671Z</time></trkpt><trkpt lat="45.5735806" lon="10.4826366"><ele>290.0</ele><time>2026-03-28T15:58:16.671Z</time></trkpt><trkpt lat="45.5734481" lon="10.4826327"><ele>291.0</ele><time>2026-03-28T15:58:17.668Z</time></trkpt><trkpt lat="45.5733256" lon="10.4826345"><ele>292.0</ele><time>2026-03-28T15:58:18.675Z</time></trkpt><trkpt lat="45.5732002" lon="10.4826289"><ele>292.0</ele><time>2026-03-28T15:58:19.655Z</time></trkpt><trkpt lat="45.5730815" lon="10.4826243"><ele>292.0</ele><time>2026-03-28T15:58:20.659Z</time></trkpt><trkpt lat="45.5729746" lon="10.4826213"><ele>292.0</ele><time>2026-03-28T15:58:21.67Z</time></trkpt><trkpt lat="45.5728762" lon="10.4826146"><ele>292.0</ele><time>2026-03-28T15:58:22.671Z</time></trkpt><trkpt lat="45.5727747" lon="10.482612"><ele>292.0</ele><time>2026-03-28T15:58:23.694Z</time></trkpt><trkpt lat="45.5726702" lon="10.4826095"><ele>293.5</ele><time>2026-03-28T15:58:24.68Z</time></trkpt><trkpt lat="45.5725629" lon="10.4826057"><ele>295.0</ele><time>2026-03-28T15:58:25.672Z</time></trkpt><trkpt lat="45.5724498" lon="10.4825996"><ele>296.5</ele><time>2026-03-28T15:58:26.686Z</time></trkpt><trkpt lat="45.5723253" lon="10.482595"><ele>298.0</ele><time>2026-03-28T15:58:27.66Z</time></trkpt><trkpt lat="45.5721973" lon="10.4825926"><ele>298.0</ele><time>2026-03-28T15:58:28.652Z</time></trkpt><trkpt lat="45.572085" lon="10.4825935"><ele>298.0</ele><time>2026-03-28T15:58:29.653Z</time></trkpt><trkpt lat="45.5719671" lon="10.4825973"><ele>298.0</ele><time>2026-03-28T15:58:30.649Z</time></trkpt><trkpt lat="45.5718494" lon="10.4825996"><ele>298.0</ele><time>2026-03-28T15:58:31.666Z</time></trkpt><trkpt lat="45.571723" lon="10.4825972"><ele>298.5</ele><time>2026-03-28T15:58:32.663Z</time></trkpt><trkpt lat="45.571595" lon="10.4825932"><ele>299.0</ele><time>2026-03-28T15:58:33.667Z</time></trkpt><trkpt lat="45.5714628" lon="10.4825835"><ele>299.5</ele><time>2026-03-28T15:58:34.665Z</time></trkpt><trkpt lat="45.5713268" lon="10.4825713"><ele>300.0</ele><time>2026-03-28T15:58:35.68Z</time></trkpt><trkpt lat="45.5711962" lon="10.48256"><ele>301.25</ele><time>2026-03-28T15:58:36.668Z</time></trkpt><trkpt lat="45.5710637" lon="10.4825494"><ele>302.5</ele><time>2026-03-28T15:58:37.674Z</time></trkpt><trkpt lat="45.5709288" lon="10.4825364"><ele>303.75</ele><time>2026-03-28T15:58:38.666Z</time></trkpt><trkpt lat="45.5707909" lon="10.4825194"><ele>305.0</ele><time>2026-03-28T15:58:39.669Z</time></trkpt><trkpt lat="45.5706491" lon="10.4824959"><ele>305.0</ele><time>2026-03-28T15:58:40.675Z</time></trkpt><trkpt lat="45.5705055" lon="10.4824669"><ele>305.0</ele><time>2026-03-28T15:58:41.665Z</time></trkpt><trkpt lat="45.5703843" lon="10.4824438"><ele>305.0</ele><time>2026-03-28T15:58:42.669Z</time></trkpt><trkpt lat="45.5702667" lon="10.4824176"><ele>305.0</ele><time>2026-03-28T15:58:43.665Z</time></trkpt><trkpt lat="45.5701427" lon="10.4823839"><ele>306.5</ele><time>2026-03-28T15:58:44.669Z</time></trkpt><trkpt lat="45.5700082" lon="10.4823443"><ele>308.0</ele><time>2026-03-28T15:58:45.666Z</time></trkpt><trkpt lat="45.5698662" lon="10.4823044"><ele>309.5</ele><time>2026-03-28T15:58:46.674Z</time></trkpt><trkpt lat="45.5697158" lon="10.4822617"><ele>311.0</ele><time>2026-03-28T15:58:47.67Z</time></trkpt><trkpt lat="45.5695607" lon="10.4822162"><ele>312.33333333333337</ele><time>2026-03-28T15:58:48.671Z</time></trkpt><trkpt lat="45.5694024" lon="10.4821667"><ele>313.6666666666667</ele><time>2026-03-28T15:58:49.669Z</time></trkpt><trkpt lat="45.5692576" lon="10.4821222"><ele>315.0</ele><time>2026-03-28T15:58:50.666Z</time></trkpt><trkpt lat="45.5691076" lon="10.482076"><ele>315.0</ele><time>2026-03-28T15:58:51.663Z</time></trkpt><trkpt lat="45.568949" lon="10.4820274"><ele>315.0</ele><time>2026-03-28T15:58:52.675Z</time></trkpt><trkpt lat="45.5687837" lon="10.4819781"><ele>315.0</ele><time>2026-03-28T15:58:53.67Z</time></trkpt><trkpt lat="45.5686132" lon="10.4819253"><ele>316.0</ele><time>2026-03-28T15:58:54.672Z</time></trkpt><trkpt lat="45.5684367" lon="10.4818726"><ele>317.0</ele><time>2026-03-28T15:58:55.667Z</time></trkpt><trkpt lat="45.5682621" lon="10.4818202"><ele>318.0</ele><time>2026-03-28T15:58:56.675Z</time></trkpt><trkpt lat="45.5680845" lon="10.4817674"><ele>318.0</ele><time>2026-03-28T15:58:57.684Z</time></trkpt><trkpt lat="45.5679094" lon="10.4817179"><ele>318.0</ele><time>2026-03-28T15:58:58.667Z</time></trkpt><trkpt lat="45.5677361" lon="10.481668"><ele>318.0</ele><time>2026-03-28T15:58:59.675Z</time></trkpt><trkpt lat="45.5675625" lon="10.4816191"><ele>319.0</ele><time>2026-03-28T15:59:00.666Z</time></trkpt><trkpt lat="45.567388" lon="10.4815768"><ele>320.0</ele><time>2026-03-28T15:59:01.658Z</time></trkpt><trkpt lat="45.5672018" lon="10.481545"><ele>321.0</ele><time>2026-03-28T15:59:02.665Z</time></trkpt><trkpt lat="45.5670074" lon="10.481526"><ele>321.0</ele><time>2026-03-28T15:59:03.659Z</time></trkpt><trkpt lat="45.5668117" lon="10.4815168"><ele>321.0</ele><time>2026-03-28T15:59:04.664Z</time></trkpt><trkpt lat="45.566612" lon="10.4815215"><ele>321.0</ele><time>2026-03-28T15:59:05.665Z</time></trkpt><trkpt lat="45.5664126" lon="10.4815397"><ele>321.0</ele><time>2026-03-28T15:59:06.664Z</time></trkpt><trkpt lat="45.5662156" lon="10.4815706"><ele>321.0</ele><time>2026-03-28T15:59:07.677Z</time></trkpt><trkpt lat="45.5660206" lon="10.4816124"><ele>321.0</ele><time>2026-03-28T15:59:08.665Z</time></trkpt><trkpt lat="45.5658258" lon="10.4816657"><ele>321.3333333333333</ele><time>2026-03-28T15:59:09.666Z</time></trkpt><trkpt lat="45.5656301" lon="10.4817323"><ele>321.66666666666663</ele><time>2026-03-28T15:59:10.67Z</time></trkpt><trkpt lat="45.5654425" lon="10.481801"><ele>322.0</ele><time>2026-03-28T15:59:11.661Z</time></trkpt><trkpt lat="45.5652577" lon="10.4818699"><ele>321.3333333333333</ele><time>2026-03-28T15:59:12.665Z</time></trkpt><trkpt lat="45.5650699" lon="10.4819377"><ele>320.6666666666667</ele><time>2026-03-28T15:59:13.666Z</time></trkpt><trkpt lat="45.5648785" lon="10.4820062"><ele>320.0</ele><time>2026-03-28T15:59:14.663Z</time></trkpt><trkpt lat="45.5646837" lon="10.4820735"><ele>321.33333333333337</ele><time>2026-03-28T15:59:15.672Z</time></trkpt><trkpt lat="45.564489" lon="10.4821386"><ele>322.6666666666667</ele><time>2026-03-28T15:59:16.664Z</time></trkpt><trkpt lat="45.5642933" lon="10.4822028"><ele>324.0</ele><time>2026-03-28T15:59:17.664Z</time></trkpt><trkpt lat="45.5641018" lon="10.4822543"><ele>324.0</ele><time>2026-03-28T15:59:18.665Z</time></trkpt><trkpt lat="45.5639133" lon="10.4823036"><ele>324.0</ele><time>2026-03-28T15:59:19.671Z</time></trkpt><trkpt lat="45.5637208" lon="10.4823519"><ele>324.0</ele><time>2026-03-28T15:59:20.666Z</time></trkpt><trkpt lat="45.5635287" lon="10.4823994"><ele>324.0</ele><time>2026-03-28T15:59:21.675Z</time></trkpt><trkpt lat="45.5633419" lon="10.4824471"><ele>324.0</ele><time>2026-03-28T15:59:22.679Z</time></trkpt><trkpt lat="45.5631507" lon="10.4824938"><ele>324.0</ele><time>2026-03-28T15:59:23.668Z</time></trkpt><trkpt lat="45.5629578" lon="10.482538"><ele>324.3333333333333</ele><time>2026-03-28T15:59:24.669Z</time></trkpt><trkpt lat="45.5627648" lon="10.4825812"><ele>324.66666666666663</ele><time>2026-03-28T15:59:25.664Z</time></trkpt><trkpt lat="45.5625868" lon="10.4826203"><ele>325.0</ele><time>2026-03-28T15:59:26.663Z</time></trkpt><trkpt lat="45.5624126" lon="10.4826598"><ele>325.0</ele><time>2026-03-28T15:59:27.655Z</time></trkpt><trkpt lat="45.5622417" lon="10.4826995"><ele>325.0</ele><time>2026-03-28T15:59:28.689Z</time></trkpt><trkpt lat="45.5620815" lon="10.482738"><ele>325.0</ele><time>2026-03-28T15:59:29.661Z</time></trkpt><trkpt lat="45.5619351" lon="10.4827711"><ele>324.75</ele><time>2026-03-28T15:59:30.656Z</time></trkpt><trkpt lat="45.5618017" lon="10.4828031"><ele>324.5</ele><time>2026-03-28T15:59:31.668Z</time></trkpt><trkpt lat="45.5616832" lon="10.4828324"><ele>324.25</ele><time>2026-03-28T15:59:32.663Z</time></trkpt><trkpt lat="45.5615775" lon="10.482857"><ele>324.0</ele><time>2026-03-28T15:59:33.666Z</time></trkpt><trkpt lat="45.5614813" lon="10.4828558"><ele>324.0</ele><time>2026-03-28T15:59:34.663Z</time></trkpt><trkpt lat="45.5613983" lon="10.4828155"><ele>324.0</ele><time>2026-03-28T15:59:35.664Z</time></trkpt><trkpt lat="45.5613162" lon="10.4827468"><ele>324.0</ele><time>2026-03-28T15:59:36.641Z</time></trkpt><trkpt lat="45.5612427" lon="10.4826325"><ele>324.0</ele><time>2026-03-28T15:59:37.644Z</time></trkpt><trkpt lat="45.5611769" lon="10.4824717"><ele>324.0</ele><time>2026-03-28T15:59:38.64Z</time></trkpt><trkpt lat="45.5611131" lon="10.482275"><ele>323.6666666666667</ele><time>2026-03-28T15:59:39.655Z</time></trkpt><trkpt lat="45.5610463" lon="10.4820737"><ele>323.33333333333337</ele><time>2026-03-28T15:59:40.656Z</time></trkpt><trkpt lat="45.560972" lon="10.4818724"><ele>323.0</ele><time>2026-03-28T15:59:41.647Z</time></trkpt><trkpt lat="45.560894" lon="10.4816884"><ele>323.0</ele><time>2026-03-28T15:59:42.665Z</time></trkpt><trkpt lat="45.5608038" lon="10.4815271"><ele>323.0</ele><time>2026-03-28T15:59:43.648Z</time></trkpt><trkpt lat="45.5606955" lon="10.4813873"><ele>323.0</ele><time>2026-03-28T15:59:44.632Z</time></trkpt><trkpt lat="45.5605744" lon="10.4812794"><ele>323.0</ele><time>2026-03-28T15:59:45.63Z</time></trkpt><trkpt lat="45.560443" lon="10.4811999"><ele>326.5</ele><time>2026-03-28T15:59:46.63Z</time></trkpt><trkpt lat="45.5603071" lon="10.4811351"><ele>330.0</ele><time>2026-03-28T15:59:47.64Z</time></trkpt><trkpt lat="45.5601758" lon="10.4810846"><ele>333.5</ele><time>2026-03-28T15:59:48.64Z</time></trkpt><trkpt lat="45.5600484" lon="10.4810314"><ele>337.0</ele><time>2026-03-28T15:59:49.646Z</time></trkpt><trkpt lat="45.5599348" lon="10.4809682"><ele>337.0</ele><time>2026-03-28T15:59:50.645Z</time></trkpt><trkpt lat="45.5598443" lon="10.4808881"><ele>337.0</ele><time>2026-03-28T15:59:51.648Z</time></trkpt><trkpt lat="45.5597785" lon="10.4807806"><ele>337.0</ele><time>2026-03-28T15:59:52.631Z</time></trkpt><trkpt lat="45.55974" lon="10.4806529"><ele>337.0</ele><time>2026-03-28T15:59:53.624Z</time></trkpt><trkpt lat="45.559719" lon="10.4805034"><ele>337.0</ele><time>2026-03-28T15:59:54.626Z</time></trkpt><trkpt lat="45.5597048" lon="10.4803463"><ele>339.25</ele><time>2026-03-28T15:59:55.616Z</time></trkpt><trkpt lat="45.5596886" lon="10.4801705"><ele>341.5</ele><time>2026-03-28T15:59:56.651Z</time></trkpt><trkpt lat="45.5596768" lon="10.480009"><ele>343.75</ele><time>2026-03-28T15:59:57.632Z</time></trkpt><trkpt lat="45.5596697" lon="10.4798451"><ele>346.0</ele><time>2026-03-28T15:59:58.637Z</time></trkpt><trkpt lat="45.5596691" lon="10.4796723"><ele>345.0</ele><time>2026-03-28T15:59:59.649Z</time></trkpt><trkpt lat="45.55968" lon="10.4795263"><ele>344.0</ele><time>2026-03-28T16:00:00.642Z</time></trkpt><trkpt lat="45.5597067" lon="10.4793783"><ele>343.0</ele><time>2026-03-28T16:00:01.632Z</time></trkpt><trkpt lat="45.5597489" lon="10.4792112"><ele>342.0</ele><time>2026-03-28T16:00:02.636Z</time></trkpt><trkpt lat="45.5598008" lon="10.4790222"><ele>342.0</ele><time>2026-03-28T16:00:03.641Z</time></trkpt><trkpt lat="45.5598507" lon="10.4788475"><ele>342.0</ele><time>2026-03-28T16:00:04.635Z</time></trkpt><trkpt lat="45.5598984" lon="10.4786761"><ele>342.0</ele><time>2026-03-28T16:00:05.669Z</time></trkpt><trkpt lat="45.5599338" lon="10.4785144"><ele>342.0</ele><time>2026-03-28T16:00:06.661Z</time></trkpt><trkpt lat="45.5599607" lon="10.4783459"><ele>341.0</ele><time>2026-03-28T16:00:07.654Z</time></trkpt><trkpt lat="45.5599829" lon="10.4781625"><ele>340.0</ele><time>2026-03-28T16:00:08.636Z</time></trkpt><trkpt lat="45.5599936" lon="10.4779602"><ele>339.0</ele><time>2026-03-28T16:00:09.637Z</time></trkpt><trkpt lat="45.5599955" lon="10.4777579"><ele>338.0</ele><time>2026-03-28T16:00:10.636Z</time></trkpt><trkpt lat="45.5599916" lon="10.4775567"><ele>337.5</ele><time>2026-03-28T16:00:11.631Z</time></trkpt><trkpt lat="45.5599839" lon="10.477355"><ele>337.0</ele><time>2026-03-28T16:00:12.646Z</time></trkpt><trkpt lat="45.5599801" lon="10.4771716"><ele>336.5</ele><time>2026-03-28T16:00:13.643Z</time></trkpt><trkpt lat="45.5599809" lon="10.4770193"><ele>336.0</ele><time>2026-03-28T16:00:14.638Z</time></trkpt><trkpt lat="45.5599828" lon="10.4768593"><ele>334.6</ele><time>2026-03-28T16:00:15.634Z</time></trkpt><trkpt lat="45.560003" lon="10.4767296"><ele>333.20000000000005</ele><time>2026-03-28T16:00:16.628Z</time></trkpt><trkpt lat="45.560045" lon="10.4765992"><ele>331.79999999999995</ele><time>2026-03-28T16:00:17.62Z</time></trkpt><trkpt lat="45.5600986" lon="10.4764605"><ele>330.4</ele><time>2026-03-28T16:00:18.621Z</time></trkpt><trkpt lat="45.560173" lon="10.4763053"><ele>329.0</ele><time>2026-03-28T16:00:19.619Z</time></trkpt><trkpt lat="45.5602619" lon="10.4761363"><ele>326.0</ele><time>2026-03-28T16:00:20.626Z</time></trkpt><trkpt lat="45.560357" lon="10.4759596"><ele>323.0</ele><time>2026-03-28T16:00:21.634Z</time></trkpt><trkpt lat="45.5604513" lon="10.4757778"><ele>320.0</ele><time>2026-03-28T16:00:22.64Z</time></trkpt><trkpt lat="45.5605295" lon="10.475615"><ele>320.0</ele><time>2026-03-28T16:00:23.639Z</time></trkpt><trkpt lat="45.5606009" lon="10.4754635"><ele>320.0</ele><time>2026-03-28T16:00:24.649Z</time></trkpt><trkpt lat="45.5606657" lon="10.4753176"><ele>320.0</ele><time>2026-03-28T16:00:25.647Z</time></trkpt><trkpt lat="45.5607165" lon="10.4751876"><ele>320.0</ele><time>2026-03-28T16:00:26.656Z</time></trkpt><trkpt lat="45.5607602" lon="10.4750717"><ele>320.0</ele><time>2026-03-28T16:00:27.664Z</time></trkpt><trkpt lat="45.5607962" lon="10.4749648"><ele>318.1666666666667</ele><time>2026-03-28T16:00:28.643Z</time></trkpt><trkpt lat="45.560812" lon="10.4748588"><ele>316.33333333333337</ele><time>2026-03-28T16:00:29.663Z</time></trkpt><trkpt lat="45.5607934" lon="10.4747542"><ele>314.5</ele><time>2026-03-28T16:00:30.673Z</time></trkpt><trkpt lat="45.5607439" lon="10.4746544"><ele>312.6666666666667</ele><time>2026-03-28T16:00:31.65Z</time></trkpt><trkpt lat="45.5606819" lon="10.4745813"><ele>310.8333333333333</ele><time>2026-03-28T16:00:32.639Z</time></trkpt><trkpt lat="45.560586" lon="10.4745435"><ele>309.0</ele><time>2026-03-28T16:00:33.648Z</time></trkpt><trkpt lat="45.560353" lon="10.4745182"><ele>306.8</ele><time>2026-03-28T16:00:34.579Z</time></trkpt><trkpt lat="45.5602557" lon="10.4744979"><ele>304.59999999999997</ele><time>2026-03-28T16:00:35.568Z</time></trkpt><trkpt lat="45.5601753" lon="10.4744578"><ele>302.4</ele><time>2026-03-28T16:00:36.572Z</time></trkpt><trkpt lat="45.5601069" lon="10.4743952"><ele>300.2</ele><time>2026-03-28T16:00:37.574Z</time></trkpt><trkpt lat="45.5600561" lon="10.4742833"><ele>298.0</ele><time>2026-03-28T16:00:38.579Z</time></trkpt><trkpt lat="45.5600167" lon="10.4741228"><ele>298.0</ele><time>2026-03-28T16:00:39.572Z</time></trkpt><trkpt lat="45.5599712" lon="10.473916"><ele>298.0</ele><time>2026-03-28T16:00:40.567Z</time></trkpt><trkpt lat="45.559916" lon="10.4736814"><ele>298.0</ele><time>2026-03-28T16:00:41.585Z</time></trkpt><trkpt lat="45.5598567" lon="10.4734212"><ele>296.66666666666663</ele><time>2026-03-28T16:00:42.585Z</time></trkpt><trkpt lat="45.5597933" lon="10.4731849"><ele>295.3333333333333</ele><time>2026-03-28T16:00:43.588Z</time></trkpt><trkpt lat="45.5597347" lon="10.4729933"><ele>294.0</ele><time>2026-03-28T16:00:44.579Z</time></trkpt><trkpt lat="45.5596919" lon="10.4728053"><ele>293.5</ele><time>2026-03-28T16:00:45.581Z</time></trkpt><trkpt lat="45.5596332" lon="10.4726132"><ele>293.0</ele><time>2026-03-28T16:00:46.581Z</time></trkpt><trkpt lat="45.559595" lon="10.472432"><ele>292.5</ele><time>2026-03-28T16:00:47.58Z</time></trkpt><trkpt lat="45.5595606" lon="10.472274"><ele>292.0</ele><time>2026-03-28T16:00:48.575Z</time></trkpt><trkpt lat="45.5595402" lon="10.4721275"><ele>291.66666666666663</ele><time>2026-03-28T16:00:49.578Z</time></trkpt><trkpt lat="45.5595196" lon="10.4719867"><ele>291.3333333333333</ele><time>2026-03-28T16:00:50.585Z</time></trkpt><trkpt lat="45.5595043" lon="10.471861"><ele>291.0</ele><time>2026-03-28T16:00:51.576Z</time></trkpt><trkpt lat="45.5594913" lon="10.4717659"><ele>290.6666666666667</ele><time>2026-03-28T16:00:52.572Z</time></trkpt><trkpt lat="45.5594663" lon="10.4716797"><ele>290.33333333333337</ele><time>2026-03-28T16:00:53.563Z</time></trkpt><trkpt lat="45.5593474" lon="10.4716256"><ele>290.0</ele><time>2026-03-28T16:00:55.561Z</time></trkpt><trkpt lat="45.5592625" lon="10.4716259"><ele>290.0</ele><time>2026-03-28T16:00:56.567Z</time></trkpt><trkpt lat="45.5591794" lon="10.4716236"><ele>290.0</ele><time>2026-03-28T16:00:57.563Z</time></trkpt><trkpt lat="45.5591066" lon="10.4715759"><ele>290.0</ele><time>2026-03-28T16:00:58.567Z</time></trkpt><trkpt lat="45.5590122" lon="10.471495"><ele>290.0</ele><time>2026-03-28T16:00:59.566Z</time></trkpt><trkpt lat="45.5589047" lon="10.471396"><ele>290.0</ele><time>2026-03-28T16:01:00.564Z</time></trkpt><trkpt lat="45.558798" lon="10.4712887"><ele>289.4</ele><time>2026-03-28T16:01:01.584Z</time></trkpt><trkpt lat="45.5587149" lon="10.471189"><ele>288.8</ele><time>2026-03-28T16:01:02.581Z</time></trkpt><trkpt lat="45.5586415" lon="10.4710923"><ele>288.2</ele><time>2026-03-28T16:01:03.572Z</time></trkpt><trkpt lat="45.5585886" lon="10.4710057"><ele>287.6</ele><time>2026-03-28T16:01:04.573Z</time></trkpt><trkpt lat="45.5585277" lon="10.4708845"><ele>287.0</ele><time>2026-03-28T16:01:06.582Z</time></trkpt><trkpt lat="45.5584992" lon="10.4707501"><ele>286.5</ele><time>2026-03-28T16:01:08.582Z</time></trkpt><trkpt lat="45.5584853" lon="10.4705749"><ele>286.0</ele><time>2026-03-28T16:01:10.573Z</time></trkpt><trkpt lat="45.5584093" lon="10.4704314"><ele>285.5</ele><time>2026-03-28T16:01:12.587Z</time></trkpt><trkpt lat="45.5583338" lon="10.4703901"><ele>285.0</ele><time>2026-03-28T16:01:13.585Z</time></trkpt><trkpt lat="45.5582126" lon="10.4703481"><ele>285.0</ele><time>2026-03-28T16:01:14.579Z</time></trkpt><trkpt lat="45.5580729" lon="10.4703132"><ele>285.0</ele><time>2026-03-28T16:01:15.582Z</time></trkpt><trkpt lat="45.5579246" lon="10.4702901"><ele>285.0</ele><time>2026-03-28T16:01:16.571Z</time></trkpt><trkpt lat="45.5577504" lon="10.4702652"><ele>284.0</ele><time>2026-03-28T16:01:17.577Z</time></trkpt><trkpt lat="45.5575925" lon="10.470243"><ele>283.0</ele><time>2026-03-28T16:01:18.587Z</time></trkpt><trkpt lat="45.5574373" lon="10.4702312"><ele>282.0</ele><time>2026-03-28T16:01:19.579Z</time></trkpt><trkpt lat="45.5572954" lon="10.4702059"><ele>282.0</ele><time>2026-03-28T16:01:20.588Z</time></trkpt><trkpt lat="45.5571707" lon="10.4701852"><ele>282.0</ele><time>2026-03-28T16:01:21.576Z</time></trkpt><trkpt lat="45.55705" lon="10.4701483"><ele>282.0</ele><time>2026-03-28T16:01:22.576Z</time></trkpt><trkpt lat="45.5569053" lon="10.4700845"><ele>282.0</ele><time>2026-03-28T16:01:23.577Z</time></trkpt><trkpt lat="45.5567674" lon="10.469997"><ele>281.6666666666667</ele><time>2026-03-28T16:01:24.566Z</time></trkpt><trkpt lat="45.5566453" lon="10.4698763"><ele>281.33333333333337</ele><time>2026-03-28T16:01:25.585Z</time></trkpt><trkpt lat="45.5565059" lon="10.4697527"><ele>281.0</ele><time>2026-03-28T16:01:26.582Z</time></trkpt><trkpt lat="45.5563736" lon="10.4696238"><ele>280.25</ele><time>2026-03-28T16:01:27.581Z</time></trkpt><trkpt lat="45.5562439" lon="10.4694965"><ele>279.5</ele><time>2026-03-28T16:01:28.582Z</time></trkpt><trkpt lat="45.5561265" lon="10.469381"><ele>278.75</ele><time>2026-03-28T16:01:29.594Z</time></trkpt><trkpt lat="45.5560099" lon="10.4692511"><ele>278.0</ele><time>2026-03-28T16:01:30.587Z</time></trkpt><trkpt lat="45.5558964" lon="10.4690956"><ele>277.25</ele><time>2026-03-28T16:01:31.587Z</time></trkpt><trkpt lat="45.5558007" lon="10.4689623"><ele>276.5</ele><time>2026-03-28T16:01:32.595Z</time></trkpt><trkpt lat="45.5557025" lon="10.4688474"><ele>275.75</ele><time>2026-03-28T16:01:33.579Z</time></trkpt><trkpt lat="45.5555744" lon="10.4687425"><ele>275.0</ele><time>2026-03-28T16:01:34.581Z</time></trkpt><trkpt lat="45.5554224" lon="10.4686584"><ele>273.33333333333337</ele><time>2026-03-28T16:01:35.565Z</time></trkpt><trkpt lat="45.5552561" lon="10.4685883"><ele>271.6666666666667</ele><time>2026-03-28T16:01:36.582Z</time></trkpt><trkpt lat="45.5550811" lon="10.4685181"><ele>270.0</ele><time>2026-03-28T16:01:37.58Z</time></trkpt><trkpt lat="45.5549079" lon="10.4684405"><ele>270.0</ele><time>2026-03-28T16:01:38.581Z</time></trkpt><trkpt lat="45.5547466" lon="10.4683734"><ele>270.0</ele><time>2026-03-28T16:01:39.583Z</time></trkpt><trkpt lat="45.5545853" lon="10.4682991"><ele>270.0</ele><time>2026-03-28T16:01:40.577Z</time></trkpt><trkpt lat="45.5544173" lon="10.4682272"><ele>268.0</ele><time>2026-03-28T16:01:41.578Z</time></trkpt><trkpt lat="45.5542591" lon="10.4681519"><ele>266.0</ele><time>2026-03-28T16:01:42.576Z</time></trkpt><trkpt lat="45.5541116" lon="10.4680894"><ele>264.0</ele><time>2026-03-28T16:01:43.578Z</time></trkpt><trkpt lat="45.5539531" lon="10.4680254"><ele>264.0</ele><time>2026-03-28T16:01:44.581Z</time></trkpt><trkpt lat="45.553777" lon="10.4679587"><ele>264.0</ele><time>2026-03-28T16:01:45.571Z</time></trkpt><trkpt lat="45.5535767" lon="10.467919"><ele>264.0</ele><time>2026-03-28T16:01:46.577Z</time></trkpt><trkpt lat="45.5533822" lon="10.4679195"><ele>262.6666666666667</ele><time>2026-03-28T16:01:47.581Z</time></trkpt><trkpt lat="45.5531893" lon="10.4679217"><ele>261.33333333333337</ele><time>2026-03-28T16:01:48.583Z</time></trkpt><trkpt lat="45.5529866" lon="10.4679379"><ele>260.0</ele><time>2026-03-28T16:01:49.593Z</time></trkpt><trkpt lat="45.5527799" lon="10.4679515"><ele>260.0</ele><time>2026-03-28T16:01:50.584Z</time></trkpt><trkpt lat="45.5525878" lon="10.4679742"><ele>260.0</ele><time>2026-03-28T16:01:51.593Z</time></trkpt><trkpt lat="45.5524099" lon="10.4679777"><ele>260.0</ele><time>2026-03-28T16:01:52.579Z</time></trkpt><trkpt lat="45.5522348" lon="10.4679814"><ele>260.0</ele><time>2026-03-28T16:01:53.577Z</time></trkpt><trkpt lat="45.5520612" lon="10.4679803"><ele>260.0</ele><time>2026-03-28T16:01:54.589Z</time></trkpt><trkpt lat="45.5518963" lon="10.4679684"><ele>260.0</ele><time>2026-03-28T16:01:55.593Z</time></trkpt><trkpt lat="45.5517137" lon="10.4679484"><ele>259.0</ele><time>2026-03-28T16:01:56.586Z</time></trkpt><trkpt lat="45.5515546" lon="10.467895"><ele>258.0</ele><time>2026-03-28T16:01:57.59Z</time></trkpt><trkpt lat="45.5513939" lon="10.4678087"><ele>257.0</ele><time>2026-03-28T16:01:58.584Z</time></trkpt><trkpt lat="45.5512362" lon="10.4676986"><ele>259.0</ele><time>2026-03-28T16:01:59.582Z</time></trkpt><trkpt lat="45.5510808" lon="10.4675564"><ele>261.0</ele><time>2026-03-28T16:02:00.573Z</time></trkpt><trkpt lat="45.5509571" lon="10.4674088"><ele>263.0</ele><time>2026-03-28T16:02:01.571Z</time></trkpt><trkpt lat="45.5508354" lon="10.4672743"><ele>263.0</ele><time>2026-03-28T16:02:02.575Z</time></trkpt><trkpt lat="45.5507244" lon="10.4671574"><ele>263.0</ele><time>2026-03-28T16:02:03.585Z</time></trkpt><trkpt lat="45.5506168" lon="10.467059"><ele>263.0</ele><time>2026-03-28T16:02:04.571Z</time></trkpt><trkpt lat="45.5505298" lon="10.4669754"><ele>263.0</ele><time>2026-03-28T16:02:05.577Z</time></trkpt><trkpt lat="45.5504538" lon="10.4668964"><ele>262.6</ele><time>2026-03-28T16:02:06.58Z</time></trkpt><trkpt lat="45.5503753" lon="10.4668649"><ele>262.20000000000005</ele><time>2026-03-28T16:02:07.575Z</time></trkpt><trkpt lat="45.5502787" lon="10.4668755"><ele>261.8</ele><time>2026-03-28T16:02:08.586Z</time></trkpt><trkpt lat="45.5501928" lon="10.466958"><ele>261.40000000000003</ele><time>2026-03-28T16:02:09.574Z</time></trkpt><trkpt lat="45.5501529" lon="10.4670593"><ele>261.0</ele><time>2026-03-28T16:02:10.57Z</time></trkpt><trkpt lat="45.5500975" lon="10.4671839"><ele>262.5</ele><time>2026-03-28T16:02:11.567Z</time></trkpt><trkpt lat="45.5500409" lon="10.4673266"><ele>264.0</ele><time>2026-03-28T16:02:12.569Z</time></trkpt><trkpt lat="45.5499811" lon="10.4674625"><ele>265.5</ele><time>2026-03-28T16:02:13.566Z</time></trkpt><trkpt lat="45.5498848" lon="10.4675803"><ele>267.0</ele><time>2026-03-28T16:02:14.568Z</time></trkpt><trkpt lat="45.5497902" lon="10.4676719"><ele>267.0</ele><time>2026-03-28T16:02:15.562Z</time></trkpt><trkpt lat="45.5497067" lon="10.4677517"><ele>267.0</ele><time>2026-03-28T16:02:16.559Z</time></trkpt><trkpt lat="45.5496355" lon="10.4678129"><ele>267.0</ele><time>2026-03-28T16:02:17.569Z</time></trkpt><trkpt lat="45.5495696" lon="10.4678588"><ele>267.0</ele><time>2026-03-28T16:02:18.575Z</time></trkpt><trkpt lat="45.5494919" lon="10.467891"><ele>267.0</ele><time>2026-03-28T16:02:19.585Z</time></trkpt><trkpt lat="45.5493788" lon="10.4679127"><ele>267.0</ele><time>2026-03-28T16:02:20.573Z</time></trkpt><trkpt lat="45.5492663" lon="10.4678787"><ele>267.0</ele><time>2026-03-28T16:02:21.582Z</time></trkpt><trkpt lat="45.5491443" lon="10.4677952"><ele>267.0</ele><time>2026-03-28T16:02:22.576Z</time></trkpt><trkpt lat="45.5490144" lon="10.4676931"><ele>267.0</ele><time>2026-03-28T16:02:23.573Z</time></trkpt><trkpt lat="45.5488844" lon="10.4675983"><ele>267.0</ele><time>2026-03-28T16:02:24.576Z</time></trkpt><trkpt lat="45.5487603" lon="10.4675222"><ele>267.0</ele><time>2026-03-28T16:02:25.587Z</time></trkpt><trkpt lat="45.548636" lon="10.4674336"><ele>267.0</ele><time>2026-03-28T16:02:26.584Z</time></trkpt><trkpt lat="45.5485141" lon="10.4673555"><ele>267.0</ele><time>2026-03-28T16:02:27.595Z</time></trkpt><trkpt lat="45.5484058" lon="10.4672908"><ele>266.5</ele><time>2026-03-28T16:02:28.591Z</time></trkpt><trkpt lat="45.5482971" lon="10.4672109"><ele>266.0</ele><time>2026-03-28T16:02:30.67Z</time></trkpt><trkpt lat="45.5481815" lon="10.4671271"><ele>265.5</ele><time>2026-03-28T16:02:31.667Z</time></trkpt><trkpt lat="45.5480601" lon="10.4670445"><ele>265.0</ele><time>2026-03-28T16:02:32.664Z</time></trkpt><trkpt lat="45.5479449" lon="10.4669686"><ele>263.6</ele><time>2026-03-28T16:02:33.658Z</time></trkpt><trkpt lat="45.5478401" lon="10.4668953"><ele>262.2</ele><time>2026-03-28T16:02:34.676Z</time></trkpt><trkpt lat="45.5477348" lon="10.4668107"><ele>260.8</ele><time>2026-03-28T16:02:35.661Z</time></trkpt><trkpt lat="45.5476558" lon="10.4667279"><ele>259.4</ele><time>2026-03-28T16:02:36.663Z</time></trkpt><trkpt lat="45.5475859" lon="10.466642"><ele>258.0</ele><time>2026-03-28T16:02:37.645Z</time></trkpt><trkpt lat="45.5475187" lon="10.466548"><ele>258.0</ele><time>2026-03-28T16:02:38.643Z</time></trkpt><trkpt lat="45.547475" lon="10.4664347"><ele>258.0</ele><time>2026-03-28T16:02:39.643Z</time></trkpt><trkpt lat="45.5474314" lon="10.4663256"><ele>258.0</ele><time>2026-03-28T16:02:40.643Z</time></trkpt><trkpt lat="45.5473963" lon="10.4662044"><ele>258.0</ele><time>2026-03-28T16:02:41.669Z</time></trkpt><trkpt lat="45.5473764" lon="10.466065"><ele>258.0</ele><time>2026-03-28T16:02:42.668Z</time></trkpt><trkpt lat="45.5473612" lon="10.4659066"><ele>257.75</ele><time>2026-03-28T16:02:43.662Z</time></trkpt><trkpt lat="45.5473498" lon="10.4657349"><ele>257.5</ele><time>2026-03-28T16:02:44.663Z</time></trkpt><trkpt lat="45.5473501" lon="10.4655457"><ele>257.25</ele><time>2026-03-28T16:02:45.654Z</time></trkpt><trkpt lat="45.547364" lon="10.4653373"><ele>257.0</ele><time>2026-03-28T16:02:46.646Z</time></trkpt><trkpt lat="45.5473841" lon="10.465107"><ele>257.0</ele><time>2026-03-28T16:02:47.649Z</time></trkpt><trkpt lat="45.5474065" lon="10.464858"><ele>257.0</ele><time>2026-03-28T16:02:48.656Z</time></trkpt><trkpt lat="45.5474294" lon="10.4646061"><ele>257.0</ele><time>2026-03-28T16:02:49.65Z</time></trkpt><trkpt lat="45.5474525" lon="10.4643488"><ele>257.0</ele><time>2026-03-28T16:02:50.675Z</time></trkpt><trkpt lat="45.5474829" lon="10.4640811"><ele>257.0</ele><time>2026-03-28T16:02:51.676Z</time></trkpt><trkpt lat="45.5475108" lon="10.4638162"><ele>257.0</ele><time>2026-03-28T16:02:52.669Z</time></trkpt><trkpt lat="45.5475389" lon="10.4635682"><ele>256.0</ele><time>2026-03-28T16:02:53.664Z</time></trkpt><trkpt lat="45.5475692" lon="10.4633148"><ele>255.0</ele><time>2026-03-28T16:02:54.675Z</time></trkpt><trkpt lat="45.5475979" lon="10.46306"><ele>254.0</ele><time>2026-03-28T16:02:55.674Z</time></trkpt><trkpt lat="45.5476278" lon="10.4628041"><ele>252.66666666666669</ele><time>2026-03-28T16:02:56.677Z</time></trkpt><trkpt lat="45.5476604" lon="10.4625455"><ele>251.33333333333331</ele><time>2026-03-28T16:02:57.673Z</time></trkpt><trkpt lat="45.54769" lon="10.4622811"><ele>250.0</ele><time>2026-03-28T16:02:58.679Z</time></trkpt><trkpt lat="45.5477151" lon="10.4620323"><ele>249.0</ele><time>2026-03-28T16:02:59.674Z</time></trkpt><trkpt lat="45.547741" lon="10.4617828"><ele>248.0</ele><time>2026-03-28T16:03:00.673Z</time></trkpt><trkpt lat="45.5477692" lon="10.4615365"><ele>247.0</ele><time>2026-03-28T16:03:01.681Z</time></trkpt><trkpt lat="45.547805" lon="10.4612934"><ele>247.0</ele><time>2026-03-28T16:03:02.663Z</time></trkpt><trkpt lat="45.547855" lon="10.4610515"><ele>247.0</ele><time>2026-03-28T16:03:03.66Z</time></trkpt><trkpt lat="45.5479188" lon="10.4608169"><ele>247.0</ele><time>2026-03-28T16:03:04.658Z</time></trkpt><trkpt lat="45.5479884" lon="10.4606001"><ele>246.5</ele><time>2026-03-28T16:03:05.635Z</time></trkpt><trkpt lat="45.5480558" lon="10.4604024"><ele>246.0</ele><time>2026-03-28T16:03:06.635Z</time></trkpt><trkpt lat="45.548122" lon="10.4602273"><ele>245.5</ele><time>2026-03-28T16:03:07.635Z</time></trkpt><trkpt lat="45.5481845" lon="10.4600693"><ele>245.0</ele><time>2026-03-28T16:03:08.659Z</time></trkpt><trkpt lat="45.5482451" lon="10.4599271"><ele>245.0</ele><time>2026-03-28T16:03:09.66Z</time></trkpt><trkpt lat="45.5483007" lon="10.4598051"><ele>245.0</ele><time>2026-03-28T16:03:10.659Z</time></trkpt><trkpt lat="45.5483596" lon="10.4596844"><ele>245.0</ele><time>2026-03-28T16:03:11.657Z</time></trkpt><trkpt lat="45.5484133" lon="10.4595694"><ele>245.0</ele><time>2026-03-28T16:03:12.658Z</time></trkpt><trkpt lat="45.548447" lon="10.4594757"><ele>245.0</ele><time>2026-03-28T16:03:13.66Z</time></trkpt><trkpt lat="45.548472" lon="10.4593731"><ele>245.0</ele><time>2026-03-28T16:03:14.644Z</time></trkpt><trkpt lat="45.54847" lon="10.4592748"><ele>245.0</ele><time>2026-03-28T16:03:15.642Z</time></trkpt><trkpt lat="45.5484405" lon="10.4591783"><ele>245.0</ele><time>2026-03-28T16:03:16.64Z</time></trkpt><trkpt lat="45.5483497" lon="10.4589846"><ele>245.0</ele><time>2026-03-28T16:03:17.56Z</time></trkpt><trkpt lat="45.5482842" lon="10.4588472"><ele>245.0</ele><time>2026-03-28T16:03:18.575Z</time></trkpt><trkpt lat="45.5482331" lon="10.4586842"><ele>244.5</ele><time>2026-03-28T16:03:19.574Z</time></trkpt><trkpt lat="45.5481791" lon="10.4585159"><ele>244.0</ele><time>2026-03-28T16:03:20.574Z</time></trkpt><trkpt lat="45.5480987" lon="10.4583485"><ele>243.5</ele><time>2026-03-28T16:03:21.583Z</time></trkpt><trkpt lat="45.5479897" lon="10.4581985"><ele>243.0</ele><time>2026-03-28T16:03:22.591Z</time></trkpt><trkpt lat="45.5478368" lon="10.4580433"><ele>242.0</ele><time>2026-03-28T16:03:23.581Z</time></trkpt><trkpt lat="45.5477022" lon="10.4578595"><ele>241.0</ele><time>2026-03-28T16:03:24.593Z</time></trkpt><trkpt lat="45.5475531" lon="10.4576983"><ele>240.0</ele><time>2026-03-28T16:03:25.582Z</time></trkpt><trkpt lat="45.5474175" lon="10.4575338"><ele>240.0</ele><time>2026-03-28T16:03:26.579Z</time></trkpt><trkpt lat="45.5472963" lon="10.4573751"><ele>240.0</ele><time>2026-03-28T16:03:27.573Z</time></trkpt><trkpt lat="45.5471858" lon="10.45723"><ele>240.0</ele><time>2026-03-28T16:03:28.578Z</time></trkpt><trkpt lat="45.5470721" lon="10.4570819"><ele>241.0</ele><time>2026-03-28T16:03:29.581Z</time></trkpt><trkpt lat="45.5469756" lon="10.4569116"><ele>242.0</ele><time>2026-03-28T16:03:30.573Z</time></trkpt><trkpt lat="45.5469033" lon="10.4567134"><ele>243.0</ele><time>2026-03-28T16:03:31.578Z</time></trkpt><trkpt lat="45.5468514" lon="10.4564996"><ele>242.0</ele><time>2026-03-28T16:03:32.582Z</time></trkpt><trkpt lat="45.546815" lon="10.456252"><ele>241.0</ele><time>2026-03-28T16:03:33.579Z</time></trkpt><trkpt lat="45.5467897" lon="10.4559973"><ele>240.0</ele><time>2026-03-28T16:03:34.584Z</time></trkpt><trkpt lat="45.546764" lon="10.4557408"><ele>240.0</ele><time>2026-03-28T16:03:35.596Z</time></trkpt><trkpt lat="45.5467447" lon="10.4554778"><ele>240.0</ele><time>2026-03-28T16:03:36.586Z</time></trkpt><trkpt lat="45.5467216" lon="10.4552089"><ele>240.0</ele><time>2026-03-28T16:03:37.592Z</time></trkpt><trkpt lat="45.5466882" lon="10.4549534"><ele>240.0</ele><time>2026-03-28T16:03:38.585Z</time></trkpt><trkpt lat="45.5466643" lon="10.454703"><ele>240.0</ele><time>2026-03-28T16:03:39.595Z</time></trkpt><trkpt lat="45.546645" lon="10.4544566"><ele>240.0</ele><time>2026-03-28T16:03:40.586Z</time></trkpt><trkpt lat="45.5466276" lon="10.4542033"><ele>239.33333333333331</ele><time>2026-03-28T16:03:41.583Z</time></trkpt><trkpt lat="45.5466091" lon="10.4539778"><ele>238.66666666666666</ele><time>2026-03-28T16:03:42.582Z</time></trkpt><trkpt lat="45.5465888" lon="10.4537464"><ele>238.0</ele><time>2026-03-28T16:03:43.591Z</time></trkpt><trkpt lat="45.5465761" lon="10.4535206"><ele>237.66666666666666</ele><time>2026-03-28T16:03:44.586Z</time></trkpt><trkpt lat="45.5465409" lon="10.4532928"><ele>237.33333333333331</ele><time>2026-03-28T16:03:45.586Z</time></trkpt><trkpt lat="45.5464867" lon="10.4530663"><ele>237.0</ele><time>2026-03-28T16:03:46.577Z</time></trkpt><trkpt lat="45.5464055" lon="10.452826"><ele>236.33333333333331</ele><time>2026-03-28T16:03:47.578Z</time></trkpt><trkpt lat="45.5463193" lon="10.4525896"><ele>235.66666666666666</ele><time>2026-03-28T16:03:48.586Z</time></trkpt><trkpt lat="45.5462239" lon="10.4523495"><ele>235.0</ele><time>2026-03-28T16:03:49.588Z</time></trkpt><trkpt lat="45.5461042" lon="10.4521044"><ele>235.0</ele><time>2026-03-28T16:03:50.587Z</time></trkpt><trkpt lat="45.5459964" lon="10.4518516"><ele>235.0</ele><time>2026-03-28T16:03:51.591Z</time></trkpt><trkpt lat="45.5458997" lon="10.4516024"><ele>235.0</ele><time>2026-03-28T16:03:52.594Z</time></trkpt><trkpt lat="45.5457955" lon="10.4513449"><ele>235.0</ele><time>2026-03-28T16:03:53.586Z</time></trkpt><trkpt lat="45.5456839" lon="10.4510937"><ele>235.0</ele><time>2026-03-28T16:03:54.596Z</time></trkpt><trkpt lat="45.5455722" lon="10.4508384"><ele>235.0</ele><time>2026-03-28T16:03:55.59Z</time></trkpt><trkpt lat="45.5454643" lon="10.4505907"><ele>234.33333333333331</ele><time>2026-03-28T16:03:56.599Z</time></trkpt><trkpt lat="45.5453563" lon="10.4503463"><ele>233.66666666666669</ele><time>2026-03-28T16:03:57.587Z</time></trkpt><trkpt lat="45.5452469" lon="10.4500903"><ele>233.0</ele><time>2026-03-28T16:03:58.588Z</time></trkpt><trkpt lat="45.5451358" lon="10.4498208"><ele>232.66666666666669</ele><time>2026-03-28T16:03:59.591Z</time></trkpt><trkpt lat="45.5450234" lon="10.4495611"><ele>232.33333333333331</ele><time>2026-03-28T16:04:00.591Z</time></trkpt><trkpt lat="45.5449147" lon="10.4492911"><ele>232.0</ele><time>2026-03-28T16:04:01.596Z</time></trkpt><trkpt lat="45.5448047" lon="10.449027"><ele>231.33333333333331</ele><time>2026-03-28T16:04:02.583Z</time></trkpt><trkpt lat="45.5446947" lon="10.4487682"><ele>230.66666666666669</ele><time>2026-03-28T16:04:03.595Z</time></trkpt><trkpt lat="45.5445872" lon="10.4485024"><ele>230.0</ele><time>2026-03-28T16:04:04.593Z</time></trkpt><trkpt lat="45.5444813" lon="10.4482631"><ele>229.66666666666669</ele><time>2026-03-28T16:04:05.59Z</time></trkpt><trkpt lat="45.5443724" lon="10.4480153"><ele>229.33333333333331</ele><time>2026-03-28T16:04:06.601Z</time></trkpt><trkpt lat="45.5442622" lon="10.4477693"><ele>229.0</ele><time>2026-03-28T16:04:07.59Z</time></trkpt><trkpt lat="45.5441534" lon="10.4475252"><ele>229.0</ele><time>2026-03-28T16:04:08.597Z</time></trkpt><trkpt lat="45.5440416" lon="10.4473013"><ele>229.0</ele><time>2026-03-28T16:04:09.586Z</time></trkpt><trkpt lat="45.5439418" lon="10.4470838"><ele>229.0</ele><time>2026-03-28T16:04:10.589Z</time></trkpt><trkpt lat="45.5438605" lon="10.4468794"><ele>229.0</ele><time>2026-03-28T16:04:11.592Z</time></trkpt><trkpt lat="45.5437679" lon="10.4466707"><ele>229.0</ele><time>2026-03-28T16:04:12.589Z</time></trkpt><trkpt lat="45.5436709" lon="10.4464443"><ele>229.0</ele><time>2026-03-28T16:04:13.595Z</time></trkpt><trkpt lat="45.543565" lon="10.4462067"><ele>229.0</ele><time>2026-03-28T16:04:14.591Z</time></trkpt><trkpt lat="45.5434637" lon="10.4459532"><ele>229.0</ele><time>2026-03-28T16:04:15.589Z</time></trkpt><trkpt lat="45.54336" lon="10.4457094"><ele>229.0</ele><time>2026-03-28T16:04:16.589Z</time></trkpt><trkpt lat="45.5432631" lon="10.4454699"><ele>229.66666666666666</ele><time>2026-03-28T16:04:17.591Z</time></trkpt><trkpt lat="45.5431555" lon="10.4452191"><ele>230.33333333333331</ele><time>2026-03-28T16:04:18.594Z</time></trkpt><trkpt lat="45.5430572" lon="10.4450007"><ele>231.0</ele><time>2026-03-28T16:04:19.587Z</time></trkpt><trkpt lat="45.5429634" lon="10.4447982"><ele>229.75</ele><time>2026-03-28T16:04:20.588Z</time></trkpt><trkpt lat="45.5428763" lon="10.4445973"><ele>228.5</ele><time>2026-03-28T16:04:21.587Z</time></trkpt><trkpt lat="45.542804" lon="10.4444095"><ele>227.25</ele><time>2026-03-28T16:04:22.597Z</time></trkpt><trkpt lat="45.5427412" lon="10.4442637"><ele>226.0</ele><time>2026-03-28T16:04:23.584Z</time></trkpt><trkpt lat="45.5426663" lon="10.4441131"><ele>226.0</ele><time>2026-03-28T16:04:24.589Z</time></trkpt><trkpt lat="45.5425662" lon="10.4439757"><ele>226.0</ele><time>2026-03-28T16:04:25.579Z</time></trkpt><trkpt lat="45.5424691" lon="10.4438567"><ele>226.0</ele><time>2026-03-28T16:04:26.584Z</time></trkpt><trkpt lat="45.542372" lon="10.4437442"><ele>226.0</ele><time>2026-03-28T16:04:27.574Z</time></trkpt><trkpt lat="45.5422762" lon="10.4436723"><ele>224.0</ele><time>2026-03-28T16:04:28.575Z</time></trkpt><trkpt lat="45.5421825" lon="10.4436098"><ele>222.00000000000003</ele><time>2026-03-28T16:04:29.569Z</time></trkpt><trkpt lat="45.5420827" lon="10.4435722"><ele>220.00000000000003</ele><time>2026-03-28T16:04:30.572Z</time></trkpt><trkpt lat="45.5420037" lon="10.4435501"><ele>218.0</ele><time>2026-03-28T16:04:31.575Z</time></trkpt><trkpt lat="45.5419062" lon="10.4435338"><ele>216.0</ele><time>2026-03-28T16:04:33.569Z</time></trkpt><trkpt lat="45.541829" lon="10.4435115"><ele>216.0</ele><time>2026-03-28T16:04:39.599Z</time></trkpt><trkpt lat="45.54177" lon="10.4436011"><ele>216.0</ele><time>2026-03-28T16:04:46.584Z</time></trkpt><trkpt lat="45.5417313" lon="10.4438392"><ele>216.0</ele><time>2026-03-28T16:04:48.575Z</time></trkpt><trkpt lat="45.5416929" lon="10.444004"><ele>216.0</ele><time>2026-03-28T16:04:49.565Z</time></trkpt><trkpt lat="45.5416411" lon="10.4441816"><ele>217.4</ele><time>2026-03-28T16:04:50.561Z</time></trkpt><trkpt lat="45.5415939" lon="10.4443404"><ele>218.8</ele><time>2026-03-28T16:04:51.567Z</time></trkpt><trkpt lat="45.5415519" lon="10.4444735"><ele>220.20000000000002</ele><time>2026-03-28T16:04:52.561Z</time></trkpt><trkpt lat="45.5415203" lon="10.4445772"><ele>221.60000000000002</ele><time>2026-03-28T16:04:53.56Z</time></trkpt><trkpt lat="45.5414922" lon="10.4446612"><ele>223.0</ele><time>2026-03-28T16:04:54.562Z</time></trkpt><trkpt lat="45.541438" lon="10.4448273"><ele>223.28571428571428</ele><time>2026-03-28T16:04:56.566Z</time></trkpt><trkpt lat="45.5414151" lon="10.4449247"><ele>223.57142857142856</ele><time>2026-03-28T16:04:57.568Z</time></trkpt><trkpt lat="45.54139" lon="10.4450194"><ele>223.8571428571429</ele><time>2026-03-28T16:04:58.567Z</time></trkpt><trkpt lat="45.5413675" lon="10.4451086"><ele>224.14285714285717</ele><time>2026-03-28T16:04:59.569Z</time></trkpt><trkpt lat="45.5413456" lon="10.4451931"><ele>224.42857142857144</ele><time>2026-03-28T16:05:00.569Z</time></trkpt><trkpt lat="45.5413266" lon="10.4452819"><ele>224.71428571428575</ele><time>2026-03-28T16:05:01.571Z</time></trkpt><trkpt lat="45.5413086" lon="10.4453789"><ele>225.00000000000003</ele><time>2026-03-28T16:05:02.57Z</time></trkpt><trkpt lat="45.5412753" lon="10.445506"><ele>224.83333333333334</ele><time>2026-03-28T16:05:04.572Z</time></trkpt><trkpt lat="45.5412457" lon="10.4455898"><ele>224.66666666666669</ele><time>2026-03-28T16:05:06.583Z</time></trkpt><trkpt lat="45.5412087" lon="10.4456963"><ele>224.5</ele><time>2026-03-28T16:05:08.584Z</time></trkpt><trkpt lat="45.5411065" lon="10.4457831"><ele>224.33333333333334</ele><time>2026-03-28T16:05:10.556Z</time></trkpt><trkpt lat="45.5410199" lon="10.4457962"><ele>224.16666666666669</ele><time>2026-03-28T16:05:11.555Z</time></trkpt><trkpt lat="45.5409296" lon="10.4457909"><ele>224.0</ele><time>2026-03-28T16:05:12.555Z</time></trkpt><trkpt lat="45.5408265" lon="10.4457709"><ele>224.0</ele><time>2026-03-28T16:05:13.56Z</time></trkpt><trkpt lat="45.540714" lon="10.4457302"><ele>224.0</ele><time>2026-03-28T16:05:14.563Z</time></trkpt><trkpt lat="45.5406049" lon="10.4456959"><ele>224.0</ele><time>2026-03-28T16:05:15.582Z</time></trkpt><trkpt lat="45.5404937" lon="10.4456606"><ele>224.0</ele><time>2026-03-28T16:05:17.65Z</time></trkpt><trkpt lat="45.5403746" lon="10.445625"><ele>223.5</ele><time>2026-03-28T16:05:18.651Z</time></trkpt><trkpt lat="45.5402531" lon="10.4455877"><ele>223.0</ele><time>2026-03-28T16:05:19.653Z</time></trkpt><trkpt lat="45.5401339" lon="10.4455471"><ele>222.5</ele><time>2026-03-28T16:05:20.653Z</time></trkpt><trkpt lat="45.5400174" lon="10.4455073"><ele>222.0</ele><time>2026-03-28T16:05:21.657Z</time></trkpt><trkpt lat="45.5399002" lon="10.445469"><ele>221.8</ele><time>2026-03-28T16:05:22.66Z</time></trkpt><trkpt lat="45.5397921" lon="10.4454287"><ele>221.6</ele><time>2026-03-28T16:05:23.66Z</time></trkpt><trkpt lat="45.539688" lon="10.4453873"><ele>221.40000000000003</ele><time>2026-03-28T16:05:24.66Z</time></trkpt><trkpt lat="45.5395848" lon="10.4453498"><ele>221.20000000000002</ele><time>2026-03-28T16:05:25.655Z</time></trkpt><trkpt lat="45.5394824" lon="10.4453125"><ele>221.0</ele><time>2026-03-28T16:05:26.661Z</time></trkpt><trkpt lat="45.5393806" lon="10.4452777"><ele>220.66666666666669</ele><time>2026-03-28T16:05:27.657Z</time></trkpt><trkpt lat="45.5392888" lon="10.4452296"><ele>220.33333333333334</ele><time>2026-03-28T16:05:28.656Z</time></trkpt><trkpt lat="45.5392072" lon="10.4452042"><ele>220.0</ele><time>2026-03-28T16:05:29.654Z</time></trkpt><trkpt lat="45.5391364" lon="10.445179"><ele>219.66666666666669</ele><time>2026-03-28T16:05:30.657Z</time></trkpt><trkpt lat="45.53907" lon="10.445147"><ele>219.33333333333334</ele><time>2026-03-28T16:05:31.653Z</time></trkpt><trkpt lat="45.5389996" lon="10.4450963"><ele>219.0</ele><time>2026-03-28T16:05:32.655Z</time></trkpt><trkpt lat="45.5389341" lon="10.4450396"><ele>219.0</ele><time>2026-03-28T16:05:33.635Z</time></trkpt><trkpt lat="45.5388609" lon="10.4449966"><ele>219.0</ele><time>2026-03-28T16:05:34.633Z</time></trkpt><trkpt lat="45.5387058" lon="10.4449945"><ele>219.0</ele><time>2026-03-28T16:05:35.549Z</time></trkpt><trkpt lat="45.5386066" lon="10.4449764"><ele>219.0</ele><time>2026-03-28T16:05:36.549Z</time></trkpt><trkpt lat="45.5384945" lon="10.4449374"><ele>219.5</ele><time>2026-03-28T16:05:37.563Z</time></trkpt><trkpt lat="45.5383723" lon="10.4449003"><ele>220.0</ele><time>2026-03-28T16:05:38.564Z</time></trkpt><trkpt lat="45.5382479" lon="10.4448582"><ele>220.5</ele><time>2026-03-28T16:05:39.572Z</time></trkpt><trkpt lat="45.5381216" lon="10.4448074"><ele>221.0</ele><time>2026-03-28T16:05:40.555Z</time></trkpt><trkpt lat="45.5379933" lon="10.4447573"><ele>221.25</ele><time>2026-03-28T16:05:41.556Z</time></trkpt><trkpt lat="45.5378711" lon="10.4447068"><ele>221.5</ele><time>2026-03-28T16:05:42.555Z</time></trkpt><trkpt lat="45.5377537" lon="10.4446636"><ele>221.75</ele><time>2026-03-28T16:05:43.557Z</time></trkpt><trkpt lat="45.5376313" lon="10.4446117"><ele>222.0</ele><time>2026-03-28T16:05:44.556Z</time></trkpt><trkpt lat="45.5375028" lon="10.44457"><ele>221.0</ele><time>2026-03-28T16:05:45.561Z</time></trkpt><trkpt lat="45.5373823" lon="10.4445259"><ele>220.0</ele><time>2026-03-28T16:05:46.562Z</time></trkpt><trkpt lat="45.5372523" lon="10.4444765"><ele>219.0</ele><time>2026-03-28T16:05:47.565Z</time></trkpt><trkpt lat="45.5371198" lon="10.4444318"><ele>218.0</ele><time>2026-03-28T16:05:48.567Z</time></trkpt><trkpt lat="45.5369792" lon="10.444394"><ele>217.33333333333334</ele><time>2026-03-28T16:05:49.563Z</time></trkpt><trkpt lat="45.5368443" lon="10.4443695"><ele>216.66666666666669</ele><time>2026-03-28T16:05:50.569Z</time></trkpt><trkpt lat="45.536688" lon="10.4443502"><ele>216.0</ele><time>2026-03-28T16:05:51.565Z</time></trkpt><trkpt lat="45.5365274" lon="10.4443439"><ele>216.0</ele><time>2026-03-28T16:05:52.568Z</time></trkpt><trkpt lat="45.5363595" lon="10.4443719"><ele>216.0</ele><time>2026-03-28T16:05:53.574Z</time></trkpt><trkpt lat="45.5361894" lon="10.4443991"><ele>216.0</ele><time>2026-03-28T16:05:54.572Z</time></trkpt><trkpt lat="45.5360418" lon="10.4444162"><ele>214.66666666666669</ele><time>2026-03-28T16:05:55.582Z</time></trkpt><trkpt lat="45.5358743" lon="10.4444348"><ele>213.33333333333334</ele><time>2026-03-28T16:05:56.579Z</time></trkpt><trkpt lat="45.5357119" lon="10.444431"><ele>212.0</ele><time>2026-03-28T16:05:57.577Z</time></trkpt><trkpt lat="45.535555" lon="10.4444315"><ele>212.0</ele><time>2026-03-28T16:05:58.575Z</time></trkpt><trkpt lat="45.5353929" lon="10.4444335"><ele>212.0</ele><time>2026-03-28T16:05:59.576Z</time></trkpt><trkpt lat="45.5352384" lon="10.4444149"><ele>212.0</ele><time>2026-03-28T16:06:00.578Z</time></trkpt><trkpt lat="45.5350847" lon="10.4443736"><ele>211.66666666666669</ele><time>2026-03-28T16:06:01.568Z</time></trkpt><trkpt lat="45.534927" lon="10.4443147"><ele>211.33333333333331</ele><time>2026-03-28T16:06:02.585Z</time></trkpt><trkpt lat="45.534781" lon="10.4442271"><ele>211.0</ele><time>2026-03-28T16:06:03.568Z</time></trkpt><trkpt lat="45.534656" lon="10.4441374"><ele>211.0</ele><time>2026-03-28T16:06:04.57Z</time></trkpt><trkpt lat="45.5345124" lon="10.4440637"><ele>211.0</ele><time>2026-03-28T16:06:05.571Z</time></trkpt><trkpt lat="45.5343658" lon="10.4440036"><ele>211.0</ele><time>2026-03-28T16:06:06.574Z</time></trkpt><trkpt lat="45.534219" lon="10.4439524"><ele>211.0</ele><time>2026-03-28T16:06:07.573Z</time></trkpt><trkpt lat="45.5340763" lon="10.4439397"><ele>211.0</ele><time>2026-03-28T16:06:08.576Z</time></trkpt><trkpt lat="45.5339334" lon="10.4439358"><ele>211.0</ele><time>2026-03-28T16:06:09.571Z</time></trkpt><trkpt lat="45.5337918" lon="10.4439329"><ele>211.0</ele><time>2026-03-28T16:06:10.585Z</time></trkpt><trkpt lat="45.5336565" lon="10.443932"><ele>210.75</ele><time>2026-03-28T16:06:11.574Z</time></trkpt><trkpt lat="45.5335124" lon="10.4439206"><ele>210.5</ele><time>2026-03-28T16:06:12.577Z</time></trkpt><trkpt lat="45.5333703" lon="10.4439157"><ele>210.25</ele><time>2026-03-28T16:06:13.577Z</time></trkpt><trkpt lat="45.5332085" lon="10.4439201"><ele>210.0</ele><time>2026-03-28T16:06:14.578Z</time></trkpt><trkpt lat="45.5330481" lon="10.443916"><ele>210.33333333333331</ele><time>2026-03-28T16:06:15.578Z</time></trkpt><trkpt lat="45.532884" lon="10.4439005"><ele>210.66666666666666</ele><time>2026-03-28T16:06:16.575Z</time></trkpt><trkpt lat="45.5327165" lon="10.4439034"><ele>211.0</ele><time>2026-03-28T16:06:17.578Z</time></trkpt><trkpt lat="45.5325674" lon="10.4438882"><ele>211.0</ele><time>2026-03-28T16:06:18.574Z</time></trkpt><trkpt lat="45.5324098" lon="10.4438503"><ele>211.0</ele><time>2026-03-28T16:06:19.576Z</time></trkpt><trkpt lat="45.5322481" lon="10.4438239"><ele>211.0</ele><time>2026-03-28T16:06:20.577Z</time></trkpt><trkpt lat="45.5320906" lon="10.4437954"><ele>210.5</ele><time>2026-03-28T16:06:21.583Z</time></trkpt><trkpt lat="45.5319451" lon="10.4437811"><ele>210.0</ele><time>2026-03-28T16:06:22.574Z</time></trkpt><trkpt lat="45.5317967" lon="10.4437606"><ele>209.5</ele><time>2026-03-28T16:06:23.582Z</time></trkpt><trkpt lat="45.5316466" lon="10.4437234"><ele>209.0</ele><time>2026-03-28T16:06:24.578Z</time></trkpt><trkpt lat="45.5314913" lon="10.4436913"><ele>209.0</ele><time>2026-03-28T16:06:25.575Z</time></trkpt><trkpt lat="45.5313566" lon="10.4436619"><ele>209.0</ele><time>2026-03-28T16:06:26.579Z</time></trkpt><trkpt lat="45.531228" lon="10.4436287"><ele>209.0</ele><time>2026-03-28T16:06:27.574Z</time></trkpt><trkpt lat="45.5311167" lon="10.4435922"><ele>209.0</ele><time>2026-03-28T16:06:28.579Z</time></trkpt><trkpt lat="45.5310313" lon="10.4435418"><ele>209.0</ele><time>2026-03-28T16:06:29.573Z</time></trkpt><trkpt lat="45.5309524" lon="10.4434986"><ele>209.0</ele><time>2026-03-28T16:06:30.577Z</time></trkpt><trkpt lat="45.5308809" lon="10.4434508"><ele>209.0</ele><time>2026-03-28T16:06:31.571Z</time></trkpt><trkpt lat="45.5307945" lon="10.443375"><ele>209.0</ele><time>2026-03-28T16:06:33.567Z</time></trkpt><trkpt lat="45.5307364" lon="10.4432754"><ele>209.0</ele><time>2026-03-28T16:06:36.579Z</time></trkpt><trkpt lat="45.5306649" lon="10.4431581"><ele>209.0</ele><time>2026-03-28T16:06:38.578Z</time></trkpt><trkpt lat="45.5305705" lon="10.4431"><ele>209.0</ele><time>2026-03-28T16:06:40.569Z</time></trkpt><trkpt lat="45.530463" lon="10.4431321"><ele>209.0</ele><time>2026-03-28T16:06:42.569Z</time></trkpt><trkpt lat="45.5304076" lon="10.4432701"><ele>209.0</ele><time>2026-03-28T16:06:44.571Z</time></trkpt><trkpt lat="45.5303955" lon="10.443366"><ele>209.0</ele><time>2026-03-28T16:06:45.566Z</time></trkpt><trkpt lat="45.5304085" lon="10.4434563"><ele>209.0</ele><time>2026-03-28T16:06:46.562Z</time></trkpt><trkpt lat="45.5304452" lon="10.443537"><ele>209.0</ele><time>2026-03-28T16:06:47.558Z</time></trkpt><trkpt lat="45.5304764" lon="10.4436301"><ele>209.0</ele><time>2026-03-28T16:06:48.57Z</time></trkpt><trkpt lat="45.5305167" lon="10.4437649"><ele>209.0</ele><time>2026-03-28T16:06:49.559Z</time></trkpt><trkpt lat="45.5305523" lon="10.4439293"><ele>209.0</ele><time>2026-03-28T16:06:50.563Z</time></trkpt><trkpt lat="45.5305632" lon="10.4441092"><ele>209.0</ele><time>2026-03-28T16:06:51.568Z</time></trkpt><trkpt lat="45.5305406" lon="10.4443216"><ele>209.0</ele><time>2026-03-28T16:06:52.558Z</time></trkpt><trkpt lat="45.5305024" lon="10.4445823"><ele>209.0</ele><time>2026-03-28T16:06:53.561Z</time></trkpt><trkpt lat="45.5304392" lon="10.4448378"><ele>210.33333333333334</ele><time>2026-03-28T16:06:54.566Z</time></trkpt><trkpt lat="45.5303747" lon="10.445115"><ele>211.66666666666669</ele><time>2026-03-28T16:06:55.565Z</time></trkpt><trkpt lat="45.5303218" lon="10.4453814"><ele>213.0</ele><time>2026-03-28T16:06:56.572Z</time></trkpt><trkpt lat="45.5302712" lon="10.4456473"><ele>213.0</ele><time>2026-03-28T16:06:57.569Z</time></trkpt><trkpt lat="45.5302207" lon="10.4458888"><ele>213.0</ele><time>2026-03-28T16:06:58.572Z</time></trkpt><trkpt lat="45.530166" lon="10.4461159"><ele>213.0</ele><time>2026-03-28T16:06:59.562Z</time></trkpt><trkpt lat="45.5301172" lon="10.4463329"><ele>212.75</ele><time>2026-03-28T16:07:00.566Z</time></trkpt><trkpt lat="45.5300811" lon="10.4465251"><ele>212.5</ele><time>2026-03-28T16:07:01.552Z</time></trkpt><trkpt lat="45.5300423" lon="10.4467116"><ele>212.25</ele><time>2026-03-28T16:07:02.56Z</time></trkpt><trkpt lat="45.5299815" lon="10.4468749"><ele>212.0</ele><time>2026-03-28T16:07:03.556Z</time></trkpt><trkpt lat="45.5298926" lon="10.4470448"><ele>211.33333333333334</ele><time>2026-03-28T16:07:04.567Z</time></trkpt><trkpt lat="45.5297901" lon="10.4471915"><ele>210.66666666666669</ele><time>2026-03-28T16:07:05.568Z</time></trkpt><trkpt lat="45.529651" lon="10.4473146"><ele>210.0</ele><time>2026-03-28T16:07:06.564Z</time></trkpt><trkpt lat="45.5295116" lon="10.4474523"><ele>211.33333333333331</ele><time>2026-03-28T16:07:07.573Z</time></trkpt><trkpt lat="45.5293542" lon="10.4475879"><ele>212.66666666666666</ele><time>2026-03-28T16:07:08.565Z</time></trkpt><trkpt lat="45.5292178" lon="10.4477189"><ele>214.0</ele><time>2026-03-28T16:07:09.59Z</time></trkpt><trkpt lat="45.5290869" lon="10.4478401"><ele>212.5</ele><time>2026-03-28T16:07:10.574Z</time></trkpt><trkpt lat="45.5289641" lon="10.4479642"><ele>211.0</ele><time>2026-03-28T16:07:11.564Z</time></trkpt><trkpt lat="45.5288603" lon="10.4480963"><ele>209.5</ele><time>2026-03-28T16:07:13.648Z</time></trkpt><trkpt lat="45.5287677" lon="10.4482227"><ele>208.0</ele><time>2026-03-28T16:07:14.653Z</time></trkpt><trkpt lat="45.5286765" lon="10.4483678"><ele>208.0</ele><time>2026-03-28T16:07:15.629Z</time></trkpt><trkpt lat="45.5286032" lon="10.4485196"><ele>208.0</ele><time>2026-03-28T16:07:16.637Z</time></trkpt><trkpt lat="45.5285514" lon="10.4486792"><ele>208.0</ele><time>2026-03-28T16:07:17.642Z</time></trkpt><trkpt lat="45.5285181" lon="10.44886"><ele>208.0</ele><time>2026-03-28T16:07:18.636Z</time></trkpt><trkpt lat="45.5285051" lon="10.4490673"><ele>208.0</ele><time>2026-03-28T16:07:19.671Z</time></trkpt><trkpt lat="45.5285164" lon="10.4492876"><ele>208.0</ele><time>2026-03-28T16:07:20.665Z</time></trkpt><trkpt lat="45.5285291" lon="10.449511"><ele>208.0</ele><time>2026-03-28T16:07:21.658Z</time></trkpt><trkpt lat="45.5285369" lon="10.4497194"><ele>208.0</ele><time>2026-03-28T16:07:22.66Z</time></trkpt><trkpt lat="45.5285376" lon="10.4499169"><ele>208.0</ele><time>2026-03-28T16:07:23.668Z</time></trkpt><trkpt lat="45.5285358" lon="10.4501033"><ele>208.0</ele><time>2026-03-28T16:07:24.662Z</time></trkpt><trkpt lat="45.5285192" lon="10.4502876"><ele>208.0</ele><time>2026-03-28T16:07:25.645Z</time></trkpt><trkpt lat="45.5284769" lon="10.4504761"><ele>208.0</ele><time>2026-03-28T16:07:26.638Z</time></trkpt><trkpt lat="45.5284158" lon="10.4506559"><ele>208.0</ele><time>2026-03-28T16:07:27.639Z</time></trkpt><trkpt lat="45.5283311" lon="10.4508419"><ele>208.0</ele><time>2026-03-28T16:07:28.639Z</time></trkpt><trkpt lat="45.5282265" lon="10.4510305"><ele>208.0</ele><time>2026-03-28T16:07:29.655Z</time></trkpt><trkpt lat="45.5281034" lon="10.4512205"><ele>208.0</ele><time>2026-03-28T16:07:30.657Z</time></trkpt><trkpt lat="45.5279719" lon="10.4514015"><ele>208.0</ele><time>2026-03-28T16:07:31.644Z</time></trkpt><trkpt lat="45.5278302" lon="10.451579"><ele>208.0</ele><time>2026-03-28T16:07:32.648Z</time></trkpt><trkpt lat="45.5276997" lon="10.4517482"><ele>208.0</ele><time>2026-03-28T16:07:33.637Z</time></trkpt><trkpt lat="45.527588" lon="10.4519141"><ele>208.0</ele><time>2026-03-28T16:07:34.639Z</time></trkpt><trkpt lat="45.5274903" lon="10.4520878"><ele>207.5</ele><time>2026-03-28T16:07:35.66Z</time></trkpt><trkpt lat="45.5274077" lon="10.4522639"><ele>207.0</ele><time>2026-03-28T16:07:36.658Z</time></trkpt><trkpt lat="45.527328" lon="10.4524382"><ele>206.5</ele><time>2026-03-28T16:07:37.64Z</time></trkpt><trkpt lat="45.5272546" lon="10.452597"><ele>206.0</ele><time>2026-03-28T16:07:38.638Z</time></trkpt><trkpt lat="45.5271904" lon="10.4527413"><ele>206.0</ele><time>2026-03-28T16:07:39.64Z</time></trkpt><trkpt lat="45.5271254" lon="10.4528905"><ele>206.0</ele><time>2026-03-28T16:07:40.64Z</time></trkpt><trkpt lat="45.527064" lon="10.4530309"><ele>206.0</ele><time>2026-03-28T16:07:41.642Z</time></trkpt><trkpt lat="45.526999" lon="10.4531582"><ele>206.0</ele><time>2026-03-28T16:07:42.655Z</time></trkpt><trkpt lat="45.5269335" lon="10.4532718"><ele>206.0</ele><time>2026-03-28T16:07:43.648Z</time></trkpt><trkpt lat="45.5268697" lon="10.4533881"><ele>206.0</ele><time>2026-03-28T16:07:44.662Z</time></trkpt><trkpt lat="45.5267944" lon="10.4535058"><ele>206.0</ele><time>2026-03-28T16:07:45.652Z</time></trkpt><trkpt lat="45.5267081" lon="10.4536284"><ele>206.0</ele><time>2026-03-28T16:07:46.65Z</time></trkpt><trkpt lat="45.5266175" lon="10.4537628"><ele>206.66666666666669</ele><time>2026-03-28T16:07:47.659Z</time></trkpt><trkpt lat="45.5265232" lon="10.4539126"><ele>207.33333333333331</ele><time>2026-03-28T16:07:48.646Z</time></trkpt><trkpt lat="45.5264421" lon="10.4540917"><ele>208.0</ele><time>2026-03-28T16:07:49.65Z</time></trkpt><trkpt lat="45.526366" lon="10.4543005"><ele>208.0</ele><time>2026-03-28T16:07:50.635Z</time></trkpt><trkpt lat="45.5262858" lon="10.4545312"><ele>208.0</ele><time>2026-03-28T16:07:51.644Z</time></trkpt><trkpt lat="45.5262022" lon="10.4547722"><ele>208.0</ele><time>2026-03-28T16:07:52.641Z</time></trkpt><trkpt lat="45.5261221" lon="10.4550005"><ele>207.0</ele><time>2026-03-28T16:07:53.643Z</time></trkpt><trkpt lat="45.5260422" lon="10.4552215"><ele>206.0</ele><time>2026-03-28T16:07:54.664Z</time></trkpt><trkpt lat="45.5259623" lon="10.4554431"><ele>205.0</ele><time>2026-03-28T16:07:55.67Z</time></trkpt><trkpt lat="45.5258798" lon="10.4556659"><ele>205.0</ele><time>2026-03-28T16:07:56.662Z</time></trkpt><trkpt lat="45.5258074" lon="10.4558728"><ele>205.0</ele><time>2026-03-28T16:07:57.673Z</time></trkpt><trkpt lat="45.5257416" lon="10.4560643"><ele>205.0</ele><time>2026-03-28T16:07:58.662Z</time></trkpt><trkpt lat="45.5256716" lon="10.4562526"><ele>205.0</ele><time>2026-03-28T16:07:59.661Z</time></trkpt><trkpt lat="45.5255943" lon="10.4564448"><ele>205.0</ele><time>2026-03-28T16:08:00.661Z</time></trkpt><trkpt lat="45.525502" lon="10.4566498"><ele>205.0</ele><time>2026-03-28T16:08:01.663Z</time></trkpt><trkpt lat="45.5254068" lon="10.4568449"><ele>204.33333333333331</ele><time>2026-03-28T16:08:02.664Z</time></trkpt><trkpt lat="45.5253143" lon="10.4570255"><ele>203.66666666666669</ele><time>2026-03-28T16:08:03.667Z</time></trkpt><trkpt lat="45.5252217" lon="10.4572082"><ele>203.0</ele><time>2026-03-28T16:08:04.665Z</time></trkpt><trkpt lat="45.5251323" lon="10.4573895"><ele>203.0</ele><time>2026-03-28T16:08:05.665Z</time></trkpt><trkpt lat="45.5250438" lon="10.4575666"><ele>203.0</ele><time>2026-03-28T16:08:06.662Z</time></trkpt><trkpt lat="45.5249616" lon="10.4577344"><ele>203.0</ele><time>2026-03-28T16:08:07.663Z</time></trkpt><trkpt lat="45.5248771" lon="10.4579095"><ele>203.0</ele><time>2026-03-28T16:08:08.652Z</time></trkpt><trkpt lat="45.5247905" lon="10.4580912"><ele>203.0</ele><time>2026-03-28T16:08:09.66Z</time></trkpt><trkpt lat="45.5247029" lon="10.4582814"><ele>203.0</ele><time>2026-03-28T16:08:10.66Z</time></trkpt><trkpt lat="45.5246194" lon="10.4584845"><ele>203.0</ele><time>2026-03-28T16:08:11.667Z</time></trkpt><trkpt lat="45.5245328" lon="10.4586922"><ele>202.0</ele><time>2026-03-28T16:08:12.664Z</time></trkpt><trkpt lat="45.5244501" lon="10.4588897"><ele>201.0</ele><time>2026-03-28T16:08:13.68Z</time></trkpt><trkpt lat="45.5243723" lon="10.4590796"><ele>200.0</ele><time>2026-03-28T16:08:14.658Z</time></trkpt><trkpt lat="45.524292" lon="10.459255"><ele>200.0</ele><time>2026-03-28T16:08:15.656Z</time></trkpt><trkpt lat="45.524203" lon="10.4594086"><ele>200.0</ele><time>2026-03-28T16:08:16.654Z</time></trkpt><trkpt lat="45.5240994" lon="10.4595481"><ele>200.0</ele><time>2026-03-28T16:08:17.642Z</time></trkpt><trkpt lat="45.5239806" lon="10.4596628"><ele>200.0</ele><time>2026-03-28T16:08:18.632Z</time></trkpt><trkpt lat="45.5238594" lon="10.4597402"><ele>200.0</ele><time>2026-03-28T16:08:19.631Z</time></trkpt><trkpt lat="45.5237333" lon="10.459796"><ele>200.0</ele><time>2026-03-28T16:08:20.628Z</time></trkpt><trkpt lat="45.523604" lon="10.4598404"><ele>200.0</ele><time>2026-03-28T16:08:21.654Z</time></trkpt><trkpt lat="45.5234852" lon="10.4598732"><ele>200.0</ele><time>2026-03-28T16:08:22.657Z</time></trkpt><trkpt lat="45.523365" lon="10.4599092"><ele>200.0</ele><time>2026-03-28T16:08:23.662Z</time></trkpt><trkpt lat="45.5232531" lon="10.4599404"><ele>200.0</ele><time>2026-03-28T16:08:24.66Z</time></trkpt><trkpt lat="45.5231449" lon="10.4599704"><ele>200.0</ele><time>2026-03-28T16:08:25.662Z</time></trkpt><trkpt lat="45.523036" lon="10.4599966"><ele>200.0</ele><time>2026-03-28T16:08:26.665Z</time></trkpt><trkpt lat="45.5229361" lon="10.4600131"><ele>200.0</ele><time>2026-03-28T16:08:27.661Z</time></trkpt><trkpt lat="45.5228312" lon="10.4600169"><ele>200.25</ele><time>2026-03-28T16:08:28.646Z</time></trkpt><trkpt lat="45.5227005" lon="10.4600304"><ele>200.5</ele><time>2026-03-28T16:08:29.645Z</time></trkpt><trkpt lat="45.5225683" lon="10.4600435"><ele>200.75</ele><time>2026-03-28T16:08:30.652Z</time></trkpt><trkpt lat="45.5224319" lon="10.4600611"><ele>201.0</ele><time>2026-03-28T16:08:31.654Z</time></trkpt><trkpt lat="45.5222809" lon="10.460087"><ele>201.0</ele><time>2026-03-28T16:08:32.646Z</time></trkpt><trkpt lat="45.5221128" lon="10.4601253"><ele>201.0</ele><time>2026-03-28T16:08:33.646Z</time></trkpt><trkpt lat="45.5219433" lon="10.4601787"><ele>201.0</ele><time>2026-03-28T16:08:34.654Z</time></trkpt><trkpt lat="45.5217687" lon="10.460249"><ele>201.0</ele><time>2026-03-28T16:08:35.644Z</time></trkpt><trkpt lat="45.5215993" lon="10.4603268"><ele>201.0</ele><time>2026-03-28T16:08:36.642Z</time></trkpt><trkpt lat="45.521445" lon="10.4603957"><ele>201.0</ele><time>2026-03-28T16:08:37.646Z</time></trkpt><trkpt lat="45.5213014" lon="10.4604624"><ele>201.25</ele><time>2026-03-28T16:08:38.64Z</time></trkpt><trkpt lat="45.5211674" lon="10.4605253"><ele>201.5</ele><time>2026-03-28T16:08:39.655Z</time></trkpt><trkpt lat="45.5210546" lon="10.4605804"><ele>201.75</ele><time>2026-03-28T16:08:40.661Z</time></trkpt><trkpt lat="45.520956" lon="10.4606291"><ele>202.0</ele><time>2026-03-28T16:08:41.666Z</time></trkpt><trkpt lat="45.5207957" lon="10.4607164"><ele>201.99999999999997</ele><time>2026-03-28T16:08:42.579Z</time></trkpt><trkpt lat="45.5207165" lon="10.4607534"><ele>202.0</ele><time>2026-03-28T16:08:43.574Z</time></trkpt><trkpt lat="45.5206516" lon="10.460788"><ele>202.0</ele><time>2026-03-28T16:08:44.581Z</time></trkpt><trkpt lat="45.520569" lon="10.4608174"><ele>202.0</ele><time>2026-03-28T16:08:46.567Z</time></trkpt><trkpt lat="45.520463" lon="10.4608687"><ele>201.99999999999997</ele><time>2026-03-28T16:08:48.571Z</time></trkpt><trkpt lat="45.5203774" lon="10.4609391"><ele>202.0</ele><time>2026-03-28T16:08:50.57Z</time></trkpt><trkpt lat="45.5203141" lon="10.4609958"><ele>201.71428571428572</ele><time>2026-03-28T16:08:53.591Z</time></trkpt><trkpt lat="45.5202435" lon="10.4610614"><ele>201.42857142857142</ele><time>2026-03-28T16:08:55.587Z</time></trkpt><trkpt lat="45.5201844" lon="10.4611075"><ele>201.14285714285717</ele><time>2026-03-28T16:08:56.58Z</time></trkpt><trkpt lat="45.520117" lon="10.461149"><ele>200.85714285714286</ele><time>2026-03-28T16:08:57.575Z</time></trkpt><trkpt lat="45.5200519" lon="10.4611802"><ele>200.57142857142858</ele><time>2026-03-28T16:08:58.571Z</time></trkpt><trkpt lat="45.5199645" lon="10.4611896"><ele>200.2857142857143</ele><time>2026-03-28T16:09:00.579Z</time></trkpt><trkpt lat="45.5198966" lon="10.4611885"><ele>200.0</ele><time>2026-03-28T16:09:02.58Z</time></trkpt><trkpt lat="45.5198498" lon="10.4612622"><ele>200.0</ele><time>2026-03-28T16:09:05.577Z</time></trkpt><trkpt lat="45.5197573" lon="10.4613455"><ele>200.0</ele><time>2026-03-28T16:09:07.577Z</time></trkpt><trkpt lat="45.519687" lon="10.4613757"><ele>200.0</ele><time>2026-03-28T16:09:08.576Z</time></trkpt><trkpt lat="45.5195969" lon="10.4613975"><ele>200.0</ele><time>2026-03-28T16:09:10.569Z</time></trkpt><trkpt lat="45.5196302" lon="10.461475"><ele>200.0</ele><time>2026-03-28T16:09:13.577Z</time></trkpt><trkpt lat="45.5197628" lon="10.4615088"><ele>200.00000000000003</ele><time>2026-03-28T16:09:15.587Z</time></trkpt><trkpt lat="45.5198414" lon="10.4615608"><ele>200.0</ele><time>2026-03-28T16:09:16.566Z</time></trkpt><trkpt lat="45.5199168" lon="10.4616129"><ele>200.0</ele><time>2026-03-28T16:09:17.576Z</time></trkpt><trkpt lat="45.519989" lon="10.4616267"><ele>200.0</ele><time>2026-03-28T16:09:18.556Z</time></trkpt><trkpt lat="45.5200611" lon="10.4616173"><ele>200.00000000000003</ele><time>2026-03-28T16:09:19.578Z</time></trkpt><trkpt lat="45.5201304" lon="10.4615419"><ele>200.0</ele><time>2026-03-28T16:09:20.573Z</time></trkpt><trkpt lat="45.5201862" lon="10.4614419"><ele>200.00000000000003</ele><time>2026-03-28T16:09:21.555Z</time></trkpt><trkpt lat="45.5202315" lon="10.4613388"><ele>200.0</ele><time>2026-03-28T16:09:22.556Z</time></trkpt><trkpt lat="45.520258" lon="10.461219"><ele>200.0</ele><time>2026-03-28T16:09:23.566Z</time></trkpt><trkpt lat="45.5202974" lon="10.4611227"><ele>200.0</ele><time>2026-03-28T16:09:24.566Z</time></trkpt><trkpt lat="45.5203386" lon="10.461051"><ele>200.00000000000003</ele><time>2026-03-28T16:09:25.57Z</time></trkpt><trkpt lat="45.5204297" lon="10.4609643"><ele>200.0</ele><time>2026-03-28T16:09:27.575Z</time></trkpt><trkpt lat="45.5204888" lon="10.4609277"><ele>200.5</ele><time>2026-03-28T16:09:28.567Z</time></trkpt><trkpt lat="45.5205693" lon="10.4608813"><ele>201.0</ele><time>2026-03-28T16:09:29.566Z</time></trkpt><trkpt lat="45.5206752" lon="10.4608178"><ele>201.5</ele><time>2026-03-28T16:09:30.564Z</time></trkpt><trkpt lat="45.5208051" lon="10.4607442"><ele>202.0</ele><time>2026-03-28T16:09:31.564Z</time></trkpt><trkpt lat="45.5209477" lon="10.4606621"><ele>202.0</ele><time>2026-03-28T16:09:32.568Z</time></trkpt><trkpt lat="45.5210881" lon="10.4605918"><ele>202.0</ele><time>2026-03-28T16:09:33.567Z</time></trkpt><trkpt lat="45.5212076" lon="10.4605433"><ele>202.0</ele><time>2026-03-28T16:09:34.571Z</time></trkpt><trkpt lat="45.5213181" lon="10.4604696"><ele>202.0</ele><time>2026-03-28T16:09:35.576Z</time></trkpt><trkpt lat="45.5214247" lon="10.4604269"><ele>201.83333333333331</ele><time>2026-03-28T16:09:36.573Z</time></trkpt><trkpt lat="45.5215138" lon="10.4603803"><ele>201.66666666666666</ele><time>2026-03-28T16:09:37.574Z</time></trkpt><trkpt lat="45.5216023" lon="10.4603454"><ele>201.5</ele><time>2026-03-28T16:09:38.573Z</time></trkpt><trkpt lat="45.5216803" lon="10.4603216"><ele>201.33333333333331</ele><time>2026-03-28T16:09:39.571Z</time></trkpt><trkpt lat="45.5217436" lon="10.4602923"><ele>201.16666666666666</ele><time>2026-03-28T16:09:40.569Z</time></trkpt><trkpt lat="45.5218064" lon="10.4602703"><ele>201.0</ele><time>2026-03-28T16:09:41.569Z</time></trkpt><trkpt lat="45.5219124" lon="10.4602258"><ele>201.0</ele><time>2026-03-28T16:09:43.563Z</time></trkpt><trkpt lat="45.5219691" lon="10.460092"><ele>201.0</ele><time>2026-03-28T16:09:45.549Z</time></trkpt><trkpt lat="45.5219432" lon="10.4599385"><ele>201.0</ele><time>2026-03-28T16:09:47.563Z</time></trkpt><trkpt lat="45.5219022" lon="10.4598648"><ele>201.0</ele><time>2026-03-28T16:09:48.558Z</time></trkpt><trkpt lat="45.5218397" lon="10.4597841"><ele>201.0</ele><time>2026-03-28T16:09:49.566Z</time></trkpt><trkpt lat="45.5217377" lon="10.4597127"><ele>201.0</ele><time>2026-03-28T16:09:50.552Z</time></trkpt><trkpt lat="45.5216045" lon="10.4596467"><ele>201.0</ele><time>2026-03-28T16:09:51.557Z</time></trkpt><trkpt lat="45.5214515" lon="10.4595706"><ele>201.0</ele><time>2026-03-28T16:09:52.56Z</time></trkpt><trkpt lat="45.5213031" lon="10.4594852"><ele>200.5</ele><time>2026-03-28T16:09:53.564Z</time></trkpt><trkpt lat="45.5211706" lon="10.459413"><ele>200.0</ele><time>2026-03-28T16:09:54.562Z</time></trkpt><trkpt lat="45.5210262" lon="10.4593395"><ele>199.5</ele><time>2026-03-28T16:09:55.566Z</time></trkpt><trkpt lat="45.5208918" lon="10.4592674"><ele>199.0</ele><time>2026-03-28T16:09:56.568Z</time></trkpt><trkpt lat="45.5207628" lon="10.4591847"><ele>199.0</ele><time>2026-03-28T16:09:57.565Z</time></trkpt><trkpt lat="45.5206394" lon="10.4591056"><ele>199.0</ele><time>2026-03-28T16:09:58.566Z</time></trkpt><trkpt lat="45.5205148" lon="10.4590071"><ele>199.0</ele><time>2026-03-28T16:09:59.566Z</time></trkpt><trkpt lat="45.5204118" lon="10.458898"><ele>199.0</ele><time>2026-03-28T16:10:00.565Z</time></trkpt><trkpt lat="45.5202986" lon="10.4587938"><ele>198.25</ele><time>2026-03-28T16:10:01.562Z</time></trkpt><trkpt lat="45.5201825" lon="10.458686"><ele>197.5</ele><time>2026-03-28T16:10:02.561Z</time></trkpt><trkpt lat="45.5200755" lon="10.4585859"><ele>196.75</ele><time>2026-03-28T16:10:03.562Z</time></trkpt><trkpt lat="45.5199596" lon="10.4585217"><ele>196.0</ele><time>2026-03-28T16:10:04.56Z</time></trkpt><trkpt lat="45.5198467" lon="10.4584555"><ele>196.0</ele><time>2026-03-28T16:10:05.561Z</time></trkpt><trkpt lat="45.5197434" lon="10.4583952"><ele>196.0</ele><time>2026-03-28T16:10:06.563Z</time></trkpt><trkpt lat="45.5196452" lon="10.458349"><ele>196.0</ele><time>2026-03-28T16:10:07.555Z</time></trkpt><trkpt lat="45.5195537" lon="10.458322"><ele>196.0</ele><time>2026-03-28T16:10:08.555Z</time></trkpt><trkpt lat="45.519469" lon="10.458304"><ele>196.0</ele><time>2026-03-28T16:10:09.566Z</time></trkpt><trkpt lat="45.5193759" lon="10.4582883"><ele>195.5</ele><time>2026-03-28T16:10:10.56Z</time></trkpt><trkpt lat="45.519267" lon="10.4582866"><ele>195.0</ele><time>2026-03-28T16:10:11.575Z</time></trkpt><trkpt lat="45.5191451" lon="10.4582694"><ele>194.5</ele><time>2026-03-28T16:10:12.569Z</time></trkpt><trkpt lat="45.5190298" lon="10.4582471"><ele>194.0</ele><time>2026-03-28T16:10:13.565Z</time></trkpt><trkpt lat="45.5189219" lon="10.4582057"><ele>194.0</ele><time>2026-03-28T16:10:14.57Z</time></trkpt><trkpt lat="45.5188104" lon="10.4581617"><ele>194.0</ele><time>2026-03-28T16:10:15.571Z</time></trkpt><trkpt lat="45.5186969" lon="10.4581241"><ele>194.0</ele><time>2026-03-28T16:10:16.567Z</time></trkpt><trkpt lat="45.5185813" lon="10.4580825"><ele>194.0</ele><time>2026-03-28T16:10:17.58Z</time></trkpt><trkpt lat="45.518455" lon="10.4580412"><ele>194.25</ele><time>2026-03-28T16:10:18.561Z</time></trkpt><trkpt lat="45.5183309" lon="10.4579926"><ele>194.5</ele><time>2026-03-28T16:10:19.556Z</time></trkpt><trkpt lat="45.5182111" lon="10.4579385"><ele>194.75</ele><time>2026-03-28T16:10:20.553Z</time></trkpt><trkpt lat="45.5180911" lon="10.4578916"><ele>195.0</ele><time>2026-03-28T16:10:21.554Z</time></trkpt><trkpt lat="45.5179642" lon="10.4578466"><ele>194.0</ele><time>2026-03-28T16:10:22.564Z</time></trkpt><trkpt lat="45.5178155" lon="10.4577858"><ele>193.0</ele><time>2026-03-28T16:10:23.569Z</time></trkpt><trkpt lat="45.517681" lon="10.4577377"><ele>192.0</ele><time>2026-03-28T16:10:24.569Z</time></trkpt><trkpt lat="45.5175656" lon="10.4576874"><ele>191.0</ele><time>2026-03-28T16:10:25.575Z</time></trkpt><trkpt lat="45.517428" lon="10.4576435"><ele>191.0</ele><time>2026-03-28T16:10:26.571Z</time></trkpt><trkpt lat="45.5173116" lon="10.4575907"><ele>191.0</ele><time>2026-03-28T16:10:27.578Z</time></trkpt><trkpt lat="45.5171722" lon="10.4575202"><ele>191.0</ele><time>2026-03-28T16:10:28.569Z</time></trkpt><trkpt lat="45.5170471" lon="10.4574548"><ele>191.0</ele><time>2026-03-28T16:10:29.577Z</time></trkpt><trkpt lat="45.516927" lon="10.4573894"><ele>191.0</ele><time>2026-03-28T16:10:30.574Z</time></trkpt><trkpt lat="45.5168143" lon="10.4573292"><ele>191.0</ele><time>2026-03-28T16:10:31.574Z</time></trkpt><trkpt lat="45.5167123" lon="10.4572819"><ele>191.0</ele><time>2026-03-28T16:10:32.576Z</time></trkpt><trkpt lat="45.5166176" lon="10.4572381"><ele>191.0</ele><time>2026-03-28T16:10:33.577Z</time></trkpt><trkpt lat="45.5165216" lon="10.4571941"><ele>191.0</ele><time>2026-03-28T16:10:34.578Z</time></trkpt><trkpt lat="45.5164395" lon="10.4571469"><ele>190.5</ele><time>2026-03-28T16:10:35.571Z</time></trkpt><trkpt lat="45.5163458" lon="10.4570989"><ele>190.0</ele><time>2026-03-28T16:10:36.569Z</time></trkpt><trkpt lat="45.5162418" lon="10.4570402"><ele>189.5</ele><time>2026-03-28T16:10:37.566Z</time></trkpt><trkpt lat="45.5161167" lon="10.4569737"><ele>189.0</ele><time>2026-03-28T16:10:38.562Z</time></trkpt><trkpt lat="45.5160101" lon="10.4569036"><ele>189.0</ele><time>2026-03-28T16:10:39.568Z</time></trkpt><trkpt lat="45.5159134" lon="10.4568354"><ele>189.0</ele><time>2026-03-28T16:10:40.563Z</time></trkpt><trkpt lat="45.515801" lon="10.4567581"><ele>189.0</ele><time>2026-03-28T16:10:41.564Z</time></trkpt><trkpt lat="45.5156874" lon="10.4566609"><ele>189.0</ele><time>2026-03-28T16:10:42.563Z</time></trkpt><trkpt lat="45.515594" lon="10.4565744"><ele>189.0</ele><time>2026-03-28T16:10:43.562Z</time></trkpt><trkpt lat="45.5155164" lon="10.4564996"><ele>189.0</ele><time>2026-03-28T16:10:44.566Z</time></trkpt><trkpt lat="45.5154375" lon="10.4564218"><ele>189.0</ele><time>2026-03-28T16:10:45.565Z</time></trkpt><trkpt lat="45.5153491" lon="10.4563589"><ele>189.0</ele><time>2026-03-28T16:10:46.575Z</time></trkpt><trkpt lat="45.5152538" lon="10.4563011"><ele>189.0</ele><time>2026-03-28T16:10:47.559Z</time></trkpt><trkpt lat="45.515159" lon="10.4562567"><ele>188.79999999999998</ele><time>2026-03-28T16:10:48.569Z</time></trkpt><trkpt lat="45.5150545" lon="10.4562342"><ele>188.6</ele><time>2026-03-28T16:10:49.556Z</time></trkpt><trkpt lat="45.5149644" lon="10.4562304"><ele>188.4</ele><time>2026-03-28T16:10:50.568Z</time></trkpt><trkpt lat="45.514874" lon="10.4562335"><ele>188.2</ele><time>2026-03-28T16:10:51.568Z</time></trkpt><trkpt lat="45.5147698" lon="10.4562061"><ele>188.0</ele><time>2026-03-28T16:10:52.562Z</time></trkpt><trkpt lat="45.5146686" lon="10.4561628"><ele>188.0</ele><time>2026-03-28T16:10:53.562Z</time></trkpt><trkpt lat="45.5145717" lon="10.4561191"><ele>188.0</ele><time>2026-03-28T16:10:54.563Z</time></trkpt><trkpt lat="45.5144616" lon="10.4560499"><ele>188.0</ele><time>2026-03-28T16:10:55.573Z</time></trkpt><trkpt lat="45.5143456" lon="10.4559798"><ele>188.0</ele><time>2026-03-28T16:10:56.564Z</time></trkpt><trkpt lat="45.5142354" lon="10.4559251"><ele>187.60000000000002</ele><time>2026-03-28T16:10:57.563Z</time></trkpt><trkpt lat="45.5141381" lon="10.4558925"><ele>187.20000000000002</ele><time>2026-03-28T16:10:58.567Z</time></trkpt><trkpt lat="45.5140486" lon="10.4558538"><ele>186.8</ele><time>2026-03-28T16:10:59.563Z</time></trkpt><trkpt lat="45.5139563" lon="10.4558095"><ele>186.4</ele><time>2026-03-28T16:11:00.568Z</time></trkpt><trkpt lat="45.51386" lon="10.4557558"><ele>186.0</ele><time>2026-03-28T16:11:01.567Z</time></trkpt><trkpt lat="45.5137683" lon="10.4556982"><ele>186.0</ele><time>2026-03-28T16:11:02.571Z</time></trkpt><trkpt lat="45.5136637" lon="10.4556332"><ele>186.0</ele><time>2026-03-28T16:11:03.564Z</time></trkpt><trkpt lat="45.5135502" lon="10.4555695"><ele>186.0</ele><time>2026-03-28T16:11:04.563Z</time></trkpt><trkpt lat="45.5134641" lon="10.4555135"><ele>186.0</ele><time>2026-03-28T16:11:05.559Z</time></trkpt><trkpt lat="45.5133921" lon="10.4554701"><ele>186.0</ele><time>2026-03-28T16:11:06.559Z</time></trkpt><trkpt lat="45.5133175" lon="10.4554128"><ele>185.83333333333334</ele><time>2026-03-28T16:11:07.564Z</time></trkpt><trkpt lat="45.51326" lon="10.4553733"><ele>185.66666666666666</ele><time>2026-03-28T16:11:08.565Z</time></trkpt><trkpt lat="45.5131488" lon="10.4552984"><ele>185.5</ele><time>2026-03-28T16:11:10.561Z</time></trkpt><trkpt lat="45.5130436" lon="10.4552341"><ele>185.33333333333331</ele><time>2026-03-28T16:11:12.568Z</time></trkpt><trkpt lat="45.5129791" lon="10.4552054"><ele>185.16666666666666</ele><time>2026-03-28T16:11:13.569Z</time></trkpt><trkpt lat="45.5129064" lon="10.4551884"><ele>185.0</ele><time>2026-03-28T16:11:14.564Z</time></trkpt><trkpt lat="45.5128235" lon="10.4551789"><ele>184.83333333333331</ele><time>2026-03-28T16:11:15.564Z</time></trkpt><trkpt lat="45.5127308" lon="10.4551824"><ele>184.66666666666666</ele><time>2026-03-28T16:11:16.557Z</time></trkpt><trkpt lat="45.5126365" lon="10.4552102"><ele>184.5</ele><time>2026-03-28T16:11:17.574Z</time></trkpt><trkpt lat="45.5125509" lon="10.4552405"><ele>184.33333333333334</ele><time>2026-03-28T16:11:18.565Z</time></trkpt><trkpt lat="45.5124681" lon="10.4552948"><ele>184.16666666666669</ele><time>2026-03-28T16:11:19.579Z</time></trkpt><trkpt lat="45.5123965" lon="10.4553362"><ele>184.0</ele><time>2026-03-28T16:11:20.565Z</time></trkpt><trkpt lat="45.5122927" lon="10.4554059"><ele>184.2</ele><time>2026-03-28T16:11:22.575Z</time></trkpt><trkpt lat="45.5121747" lon="10.4554932"><ele>184.39999999999998</ele><time>2026-03-28T16:11:24.573Z</time></trkpt><trkpt lat="45.5120978" lon="10.4555576"><ele>184.6</ele><time>2026-03-28T16:11:25.573Z</time></trkpt><trkpt lat="45.5120158" lon="10.4556414"><ele>184.8</ele><time>2026-03-28T16:11:26.574Z</time></trkpt><trkpt lat="45.511941" lon="10.4557356"><ele>185.0</ele><time>2026-03-28T16:11:27.569Z</time></trkpt><trkpt lat="45.5118585" lon="10.4558402"><ele>185.0</ele><time>2026-03-28T16:11:28.578Z</time></trkpt><trkpt lat="45.5117707" lon="10.4559488"><ele>185.0</ele><time>2026-03-28T16:11:29.568Z</time></trkpt><trkpt lat="45.5116674" lon="10.4560717"><ele>185.0</ele><time>2026-03-28T16:11:30.572Z</time></trkpt><trkpt lat="45.5115789" lon="10.4561951"><ele>185.0</ele><time>2026-03-28T16:11:31.565Z</time></trkpt><trkpt lat="45.5114918" lon="10.4563175"><ele>185.0</ele><time>2026-03-28T16:11:32.569Z</time></trkpt><trkpt lat="45.5114096" lon="10.4564227"><ele>185.0</ele><time>2026-03-28T16:11:33.573Z</time></trkpt><trkpt lat="45.5113315" lon="10.4565214"><ele>185.0</ele><time>2026-03-28T16:11:34.572Z</time></trkpt><trkpt lat="45.5112531" lon="10.4566241"><ele>185.0</ele><time>2026-03-28T16:11:35.579Z</time></trkpt><trkpt lat="45.5111704" lon="10.4567187"><ele>185.0</ele><time>2026-03-28T16:11:36.574Z</time></trkpt><trkpt lat="45.5110975" lon="10.4568194"><ele>185.0</ele><time>2026-03-28T16:11:37.578Z</time></trkpt><trkpt lat="45.5110239" lon="10.4569114"><ele>185.0</ele><time>2026-03-28T16:11:38.57Z</time></trkpt><trkpt lat="45.5109526" lon="10.4570033"><ele>185.0</ele><time>2026-03-28T16:11:39.575Z</time></trkpt><trkpt lat="45.5108693" lon="10.4570952"><ele>185.0</ele><time>2026-03-28T16:11:40.573Z</time></trkpt><trkpt lat="45.5107901" lon="10.4571722"><ele>185.0</ele><time>2026-03-28T16:11:41.573Z</time></trkpt><trkpt lat="45.5107251" lon="10.4572453"><ele>185.0</ele><time>2026-03-28T16:11:42.573Z</time></trkpt><trkpt lat="45.5106751" lon="10.4573143"><ele>185.0</ele><time>2026-03-28T16:11:43.584Z</time></trkpt><trkpt lat="45.5106167" lon="10.4573931"><ele>185.0</ele><time>2026-03-28T16:11:44.571Z</time></trkpt><trkpt lat="45.5105496" lon="10.4574849"><ele>185.0</ele><time>2026-03-28T16:11:45.579Z</time></trkpt><trkpt lat="45.5104654" lon="10.4576027"><ele>185.0</ele><time>2026-03-28T16:11:46.566Z</time></trkpt><trkpt lat="45.5103738" lon="10.4577334"><ele>184.66666666666666</ele><time>2026-03-28T16:11:47.575Z</time></trkpt><trkpt lat="45.5102752" lon="10.4578799"><ele>184.33333333333334</ele><time>2026-03-28T16:11:48.574Z</time></trkpt><trkpt lat="45.5101732" lon="10.4580416"><ele>184.0</ele><time>2026-03-28T16:11:49.583Z</time></trkpt><trkpt lat="45.5100704" lon="10.4582113"><ele>184.0</ele><time>2026-03-28T16:11:50.606Z</time></trkpt><trkpt lat="45.5099707" lon="10.4584006"><ele>184.0</ele><time>2026-03-28T16:11:51.588Z</time></trkpt><trkpt lat="45.5098568" lon="10.458581"><ele>184.0</ele><time>2026-03-28T16:11:52.589Z</time></trkpt><trkpt lat="45.5097355" lon="10.4587672"><ele>184.0</ele><time>2026-03-28T16:11:53.582Z</time></trkpt><trkpt lat="45.5096238" lon="10.4589413"><ele>184.0</ele><time>2026-03-28T16:11:54.584Z</time></trkpt><trkpt lat="45.5095369" lon="10.4591131"><ele>184.0</ele><time>2026-03-28T16:11:55.582Z</time></trkpt><trkpt lat="45.5094521" lon="10.4592969"><ele>184.0</ele><time>2026-03-28T16:11:56.583Z</time></trkpt><trkpt lat="45.5093486" lon="10.4594896"><ele>184.0</ele><time>2026-03-28T16:11:57.582Z</time></trkpt><trkpt lat="45.5092559" lon="10.4596676"><ele>184.0</ele><time>2026-03-28T16:11:58.581Z</time></trkpt><trkpt lat="45.509171" lon="10.4598484"><ele>184.0</ele><time>2026-03-28T16:11:59.584Z</time></trkpt><trkpt lat="45.5090875" lon="10.46002"><ele>184.0</ele><time>2026-03-28T16:12:00.591Z</time></trkpt><trkpt lat="45.5090148" lon="10.4601999"><ele>184.0</ele><time>2026-03-28T16:12:01.583Z</time></trkpt><trkpt lat="45.508907" lon="10.4603521"><ele>184.0</ele><time>2026-03-28T16:12:02.588Z</time></trkpt><trkpt lat="45.5088304" lon="10.4605094"><ele>184.0</ele><time>2026-03-28T16:12:03.582Z</time></trkpt><trkpt lat="45.5087401" lon="10.4606701"><ele>184.0</ele><time>2026-03-28T16:12:04.584Z</time></trkpt><trkpt lat="45.5086413" lon="10.4608292"><ele>184.0</ele><time>2026-03-28T16:12:05.585Z</time></trkpt><trkpt lat="45.5085336" lon="10.4609858"><ele>184.0</ele><time>2026-03-28T16:12:06.58Z</time></trkpt><trkpt lat="45.5084376" lon="10.461114"><ele>184.0</ele><time>2026-03-28T16:12:07.583Z</time></trkpt><trkpt lat="45.5083603" lon="10.4612287"><ele>184.0</ele><time>2026-03-28T16:12:08.573Z</time></trkpt><trkpt lat="45.5082787" lon="10.4613449"><ele>184.0</ele><time>2026-03-28T16:12:09.58Z</time></trkpt><trkpt lat="45.5082165" lon="10.4614828"><ele>184.0</ele><time>2026-03-28T16:12:10.574Z</time></trkpt><trkpt lat="45.5081901" lon="10.4616033"><ele>184.0</ele><time>2026-03-28T16:12:11.564Z</time></trkpt><trkpt lat="45.5081752" lon="10.4617548"><ele>184.5</ele><time>2026-03-28T16:12:12.566Z</time></trkpt><trkpt lat="45.5081753" lon="10.4619327"><ele>185.0</ele><time>2026-03-28T16:12:13.568Z</time></trkpt><trkpt lat="45.5081934" lon="10.4621245"><ele>185.5</ele><time>2026-03-28T16:12:14.572Z</time></trkpt><trkpt lat="45.508216" lon="10.4623126"><ele>186.0</ele><time>2026-03-28T16:12:15.57Z</time></trkpt><trkpt lat="45.5082582" lon="10.4624871"><ele>186.4</ele><time>2026-03-28T16:12:16.561Z</time></trkpt><trkpt lat="45.5082788" lon="10.4626547"><ele>186.8</ele><time>2026-03-28T16:12:17.557Z</time></trkpt><trkpt lat="45.5083099" lon="10.4627722"><ele>187.20000000000002</ele><time>2026-03-28T16:12:18.557Z</time></trkpt><trkpt lat="45.5083237" lon="10.462902"><ele>187.60000000000002</ele><time>2026-03-28T16:12:19.565Z</time></trkpt><trkpt lat="45.5083277" lon="10.4630361"><ele>188.0</ele><time>2026-03-28T16:12:20.575Z</time></trkpt><trkpt lat="45.5083455" lon="10.4631413"><ele>188.0</ele><time>2026-03-28T16:12:21.564Z</time></trkpt><trkpt lat="45.5083458" lon="10.4632507"><ele>188.0</ele><time>2026-03-28T16:12:22.562Z</time></trkpt><trkpt lat="45.5083579" lon="10.4633502"><ele>188.0</ele><time>2026-03-28T16:12:23.567Z</time></trkpt><trkpt lat="45.5083617" lon="10.4634455"><ele>188.0</ele><time>2026-03-28T16:12:24.562Z</time></trkpt><trkpt lat="45.5083702" lon="10.463553"><ele>188.0</ele><time>2026-03-28T16:12:26.558Z</time></trkpt><trkpt lat="45.5082865" lon="10.4635465"><ele>188.0</ele><time>2026-03-28T16:12:34.578Z</time></trkpt><trkpt lat="45.5082465" lon="10.4634432"><ele>188.0</ele><time>2026-03-28T16:12:37.579Z</time></trkpt><trkpt lat="45.5082214" lon="10.4633036"><ele>188.0</ele><time>2026-03-28T16:12:39.589Z</time></trkpt><trkpt lat="45.5082005" lon="10.4632129"><ele>188.0</ele><time>2026-03-28T16:12:40.576Z</time></trkpt><trkpt lat="45.5081496" lon="10.4630763"><ele>188.0</ele><time>2026-03-28T16:12:42.575Z</time></trkpt><trkpt lat="45.5080813" lon="10.462973"><ele>188.0</ele><time>2026-03-28T16:12:44.568Z</time></trkpt><trkpt lat="45.5080013" lon="10.4629605"><ele>188.0</ele><time>2026-03-28T16:12:46.571Z</time></trkpt><trkpt lat="45.5079371" lon="10.4630184"><ele>188.0</ele><time>2026-03-28T16:12:49.588Z</time></trkpt></trkseg></trk></gpx>